<?xml version="1.0" encoding="UTF-8" standalone="no" ?>
<gpx xmlns="http://www.topografix.com/GPX/1/1" xmlns:xsi="http://www.w3.org/2001/XMLSchema-instance" xsi:schemaLocation="http://www.topografix.com/GPX/1/1 http://www.topografix.com/GPX/1/1/gpx.xsd" version="1.1" creator="VisuGPX - https://www.visugpx.com">
  <metadata>
    <name>Rando La Polaire Dourdan 24/11/2019</name>
    <desc><![CDATA[Rando La Polaire Dourdan 24/11/2019
D+ compteur = 595 m]]></desc>
  </metadata>
  <wpt lat="48.53428" lon="1.99424">
    <ele>110.99</ele>
    <name><![CDATA[0000003]]></name>
    <type><![CDATA[Point de départ]]></type>
  </wpt>
  <wpt lat="48.5342" lon="1.9943">
    <ele>116.73</ele>
    <name><![CDATA[0000004]]></name>
    <desc><![CDATA[<p><br /><h3>Nom: Segment: 1</h3><br />Heure de départ: 09:00 24 nov. 2019<br/>Heure d'arrivée: 12:43 24 nov. 2019<br/>Distance: 41,5km (03:42)<br/>Temps déplacement: 03:13<br/>Vitesse moyenne: 11,19 km/h<br/>Vitesse moyenne mouv.: 12,72 km/h<br/>Vitesse Max.: 43,18 km/h<br/>Altitude minimale: 96 m<br/>Altitude maximale: 200 m<br/>Vitesse de montée: 599,8 m/h<br/>Vitesse de descente: -940,1 m/h<br/>Gain d'altitude: 1342 m<br/>Perte d'altitude: -1336 m<br/>Temps de montée: 02:14<br/>Temps de descente: 01:25<br/></p>]]></desc>
    <type><![CDATA[Point d'arrivée]]></type>
  </wpt>
  <trk>
    <name><![CDATA[2019-11-24 09:00]]></name>
    <desc><![CDATA[<p>Heure de départ: 09:00 24 nov. 2019<br/>Heure d'arrivée: 12:43 24 nov. 2019<br/>Distance: 41,5 km (03:42)<br/>Temps déplacement: 03:13<br/>Vitesse moyenne: 11,19 km/h<br/>Vitesse moyenne mouv.: 12,84 km/h<br/>Vitesse Max.: 43,18 km/h<br/>Altitude minimale: 96 m<br/>Altitude maximale: 200 m<br/>Vitesse de montée: 473,3 m/h<br/>Vitesse de descente: -719,9 m/h<br/>Gain d'altitude: 1038 m<br/>Perte d'altitude: -1031 m<br/>Temps de montée: 02:11<br/>Temps de descente: 01:25<br/></p><hr align="center" width="480" style="height: 2px; width: 517px"/>]]></desc>
    <trkseg>
      <trkpt lat="48.53428" lon="1.99424">
        <ele>110.99</ele>
        <time>2019-11-24T08:00:27Z</time>
      </trkpt>
      <trkpt lat="48.53446" lon="1.99431">
        <ele>110.45</ele>
        <time>2019-11-24T08:01:50Z</time>
      </trkpt>
      <trkpt lat="48.53465" lon="1.99434">
        <ele>114.72</ele>
        <time>2019-11-24T08:01:58Z</time>
      </trkpt>
      <trkpt lat="48.53457" lon="1.99463">
        <ele>111.87</ele>
        <time>2019-11-24T08:02:06Z</time>
      </trkpt>
      <trkpt lat="48.53454" lon="1.99492">
        <ele>114.59</ele>
        <time>2019-11-24T08:02:09Z</time>
      </trkpt>
      <trkpt lat="48.5346" lon="1.99521">
        <ele>117.16</ele>
        <time>2019-11-24T08:02:16Z</time>
      </trkpt>
      <trkpt lat="48.53462" lon="1.99556">
        <ele>118.22</ele>
        <time>2019-11-24T08:02:22Z</time>
      </trkpt>
      <trkpt lat="48.53462" lon="1.99588">
        <ele>117.6</ele>
        <time>2019-11-24T08:02:26Z</time>
      </trkpt>
      <trkpt lat="48.53462" lon="1.99626">
        <ele>115.88</ele>
        <time>2019-11-24T08:02:30Z</time>
      </trkpt>
      <trkpt lat="48.5346" lon="1.99657">
        <ele>115.08</ele>
        <time>2019-11-24T08:02:35Z</time>
      </trkpt>
      <trkpt lat="48.53462" lon="1.99684">
        <ele>115.51</ele>
        <time>2019-11-24T08:02:40Z</time>
      </trkpt>
      <trkpt lat="48.5346" lon="1.99716">
        <ele>115.14</ele>
        <time>2019-11-24T08:02:45Z</time>
      </trkpt>
      <trkpt lat="48.53461" lon="1.99748">
        <ele>113.51</ele>
        <time>2019-11-24T08:02:51Z</time>
      </trkpt>
      <trkpt lat="48.5346" lon="1.99781">
        <ele>113.59</ele>
        <time>2019-11-24T08:02:56Z</time>
      </trkpt>
      <trkpt lat="48.53458" lon="1.99817">
        <ele>113.12</ele>
        <time>2019-11-24T08:03:00Z</time>
      </trkpt>
      <trkpt lat="48.53458" lon="1.99845">
        <ele>112.94</ele>
        <time>2019-11-24T08:03:03Z</time>
      </trkpt>
      <trkpt lat="48.53457" lon="1.99874">
        <ele>112.32</ele>
        <time>2019-11-24T08:03:06Z</time>
      </trkpt>
      <trkpt lat="48.53456" lon="1.99909">
        <ele>112.53</ele>
        <time>2019-11-24T08:03:10Z</time>
      </trkpt>
      <trkpt lat="48.53455" lon="1.99943">
        <ele>112</ele>
        <time>2019-11-24T08:03:14Z</time>
      </trkpt>
      <trkpt lat="48.53455" lon="1.9998">
        <ele>111.86</ele>
        <time>2019-11-24T08:03:18Z</time>
      </trkpt>
      <trkpt lat="48.53455" lon="2.00008">
        <ele>111.76</ele>
        <time>2019-11-24T08:03:21Z</time>
      </trkpt>
      <trkpt lat="48.53452" lon="2.00041">
        <ele>111.75</ele>
        <time>2019-11-24T08:03:25Z</time>
      </trkpt>
      <trkpt lat="48.53448" lon="2.00071">
        <ele>109.79</ele>
        <time>2019-11-24T08:03:29Z</time>
      </trkpt>
      <trkpt lat="48.53447" lon="2.00102">
        <ele>109.2</ele>
        <time>2019-11-24T08:03:33Z</time>
      </trkpt>
      <trkpt lat="48.53446" lon="2.0013">
        <ele>108.73</ele>
        <time>2019-11-24T08:03:37Z</time>
      </trkpt>
      <trkpt lat="48.53436" lon="2.00154">
        <ele>108.23</ele>
        <time>2019-11-24T08:03:43Z</time>
      </trkpt>
      <trkpt lat="48.5342" lon="2.00168">
        <ele>107.77</ele>
        <time>2019-11-24T08:03:51Z</time>
      </trkpt>
      <trkpt lat="48.53398" lon="2.00161">
        <ele>108.23</ele>
        <time>2019-11-24T08:03:55Z</time>
      </trkpt>
      <trkpt lat="48.53379" lon="2.0016">
        <ele>106.2</ele>
        <time>2019-11-24T08:03:58Z</time>
      </trkpt>
      <trkpt lat="48.53358" lon="2.00157">
        <ele>104.15</ele>
        <time>2019-11-24T08:04:01Z</time>
      </trkpt>
      <trkpt lat="48.53336" lon="2.00154">
        <ele>102.14</ele>
        <time>2019-11-24T08:04:04Z</time>
      </trkpt>
      <trkpt lat="48.53318" lon="2.00156">
        <ele>101.05</ele>
        <time>2019-11-24T08:04:08Z</time>
      </trkpt>
      <trkpt lat="48.53298" lon="2.00156">
        <ele>101.02</ele>
        <time>2019-11-24T08:04:12Z</time>
      </trkpt>
      <trkpt lat="48.53277" lon="2.00157">
        <ele>100.03</ele>
        <time>2019-11-24T08:04:16Z</time>
      </trkpt>
      <trkpt lat="48.53266" lon="2.00184">
        <ele>96.77</ele>
        <time>2019-11-24T08:04:30Z</time>
      </trkpt>
      <trkpt lat="48.53266" lon="2.00218">
        <ele>97.28</ele>
        <time>2019-11-24T08:04:34Z</time>
      </trkpt>
      <trkpt lat="48.53266" lon="2.00247">
        <ele>97.55</ele>
        <time>2019-11-24T08:04:38Z</time>
      </trkpt>
      <trkpt lat="48.5326" lon="2.00275">
        <ele>97.31</ele>
        <time>2019-11-24T08:04:42Z</time>
      </trkpt>
      <trkpt lat="48.53257" lon="2.00304">
        <ele>97.53</ele>
        <time>2019-11-24T08:04:48Z</time>
      </trkpt>
      <trkpt lat="48.53256" lon="2.00336">
        <ele>100.32</ele>
        <time>2019-11-24T08:04:53Z</time>
      </trkpt>
      <trkpt lat="48.53249" lon="2.00364">
        <ele>98.58</ele>
        <time>2019-11-24T08:04:57Z</time>
      </trkpt>
      <trkpt lat="48.53242" lon="2.00396">
        <ele>98.32</ele>
        <time>2019-11-24T08:05:00Z</time>
      </trkpt>
      <trkpt lat="48.53234" lon="2.00422">
        <ele>98.37</ele>
        <time>2019-11-24T08:05:04Z</time>
      </trkpt>
      <trkpt lat="48.53228" lon="2.00455">
        <ele>98.14</ele>
        <time>2019-11-24T08:05:08Z</time>
      </trkpt>
      <trkpt lat="48.53226" lon="2.00482">
        <ele>98.52</ele>
        <time>2019-11-24T08:05:13Z</time>
      </trkpt>
      <trkpt lat="48.53218" lon="2.00512">
        <ele>97.34</ele>
        <time>2019-11-24T08:05:19Z</time>
      </trkpt>
      <trkpt lat="48.53212" lon="2.00539">
        <ele>96.8</ele>
        <time>2019-11-24T08:05:22Z</time>
      </trkpt>
      <trkpt lat="48.53206" lon="2.00565">
        <ele>96.44</ele>
        <time>2019-11-24T08:05:26Z</time>
      </trkpt>
      <trkpt lat="48.53198" lon="2.0059">
        <ele>99.41</ele>
        <time>2019-11-24T08:05:32Z</time>
      </trkpt>
      <trkpt lat="48.53185" lon="2.00616">
        <ele>99.61</ele>
        <time>2019-11-24T08:05:35Z</time>
      </trkpt>
      <trkpt lat="48.53173" lon="2.0064">
        <ele>97.8</ele>
        <time>2019-11-24T08:05:38Z</time>
      </trkpt>
      <trkpt lat="48.53161" lon="2.00663">
        <ele>96.77</ele>
        <time>2019-11-24T08:05:42Z</time>
      </trkpt>
      <trkpt lat="48.53147" lon="2.00686">
        <ele>98.89</ele>
        <time>2019-11-24T08:05:50Z</time>
      </trkpt>
      <trkpt lat="48.53133" lon="2.00708">
        <ele>100.43</ele>
        <time>2019-11-24T08:05:56Z</time>
      </trkpt>
      <trkpt lat="48.53117" lon="2.00727">
        <ele>100.03</ele>
        <time>2019-11-24T08:06:02Z</time>
      </trkpt>
      <trkpt lat="48.531" lon="2.00746">
        <ele>101.84</ele>
        <time>2019-11-24T08:06:07Z</time>
      </trkpt>
      <trkpt lat="48.53078" lon="2.00769">
        <ele>106.23</ele>
        <time>2019-11-24T08:06:11Z</time>
      </trkpt>
      <trkpt lat="48.53058" lon="2.00783">
        <ele>102.32</ele>
        <time>2019-11-24T08:06:14Z</time>
      </trkpt>
      <trkpt lat="48.53039" lon="2.00787">
        <ele>104.81</ele>
        <time>2019-11-24T08:06:22Z</time>
      </trkpt>
      <trkpt lat="48.53015" lon="2.00794">
        <ele>104.9</ele>
        <time>2019-11-24T08:06:27Z</time>
      </trkpt>
      <trkpt lat="48.53001" lon="2.00815">
        <ele>102.72</ele>
        <time>2019-11-24T08:06:31Z</time>
      </trkpt>
      <trkpt lat="48.52987" lon="2.00837">
        <ele>102.22</ele>
        <time>2019-11-24T08:06:35Z</time>
      </trkpt>
      <trkpt lat="48.52973" lon="2.00862">
        <ele>101.43</ele>
        <time>2019-11-24T08:06:39Z</time>
      </trkpt>
      <trkpt lat="48.52959" lon="2.00889">
        <ele>99.66</ele>
        <time>2019-11-24T08:06:43Z</time>
      </trkpt>
      <trkpt lat="48.52948" lon="2.00916">
        <ele>100.31</ele>
        <time>2019-11-24T08:06:47Z</time>
      </trkpt>
      <trkpt lat="48.5293" lon="2.0091">
        <ele>99.39</ele>
        <time>2019-11-24T08:06:53Z</time>
      </trkpt>
      <trkpt lat="48.52917" lon="2.00889">
        <ele>101.52</ele>
        <time>2019-11-24T08:06:57Z</time>
      </trkpt>
      <trkpt lat="48.52902" lon="2.00867">
        <ele>99.45</ele>
        <time>2019-11-24T08:07:00Z</time>
      </trkpt>
      <trkpt lat="48.52888" lon="2.00843">
        <ele>98.3</ele>
        <time>2019-11-24T08:07:04Z</time>
      </trkpt>
      <trkpt lat="48.52869" lon="2.00822">
        <ele>98.1</ele>
        <time>2019-11-24T08:07:08Z</time>
      </trkpt>
      <trkpt lat="48.52852" lon="2.00807">
        <ele>97.41</ele>
        <time>2019-11-24T08:07:11Z</time>
      </trkpt>
      <trkpt lat="48.52834" lon="2.00795">
        <ele>97.06</ele>
        <time>2019-11-24T08:07:14Z</time>
      </trkpt>
      <trkpt lat="48.52814" lon="2.0078">
        <ele>98.43</ele>
        <time>2019-11-24T08:07:18Z</time>
      </trkpt>
      <trkpt lat="48.52794" lon="2.00762">
        <ele>97.75</ele>
        <time>2019-11-24T08:07:22Z</time>
      </trkpt>
      <trkpt lat="48.52777" lon="2.00746">
        <ele>98.22</ele>
        <time>2019-11-24T08:07:26Z</time>
      </trkpt>
      <trkpt lat="48.52766" lon="2.00721">
        <ele>97.01</ele>
        <time>2019-11-24T08:07:32Z</time>
      </trkpt>
      <trkpt lat="48.52779" lon="2.00696">
        <ele>97.55</ele>
        <time>2019-11-24T08:07:38Z</time>
      </trkpt>
      <trkpt lat="48.52793" lon="2.00668">
        <ele>97.41</ele>
        <time>2019-11-24T08:07:42Z</time>
      </trkpt>
      <trkpt lat="48.52804" lon="2.00644">
        <ele>97.3</ele>
        <time>2019-11-24T08:07:47Z</time>
      </trkpt>
      <trkpt lat="48.52816" lon="2.00619">
        <ele>99.29</ele>
        <time>2019-11-24T08:07:52Z</time>
      </trkpt>
      <trkpt lat="48.52832" lon="2.00588">
        <ele>99.05</ele>
        <time>2019-11-24T08:07:55Z</time>
      </trkpt>
      <trkpt lat="48.52843" lon="2.00562">
        <ele>97.91</ele>
        <time>2019-11-24T08:07:58Z</time>
      </trkpt>
      <trkpt lat="48.52829" lon="2.00543">
        <ele>98.01</ele>
        <time>2019-11-24T08:08:04Z</time>
      </trkpt>
      <trkpt lat="48.52809" lon="2.00539">
        <ele>99.17</ele>
        <time>2019-11-24T08:08:09Z</time>
      </trkpt>
      <trkpt lat="48.52792" lon="2.00525">
        <ele>99.28</ele>
        <time>2019-11-24T08:08:14Z</time>
      </trkpt>
      <trkpt lat="48.5277" lon="2.00506">
        <ele>100.52</ele>
        <time>2019-11-24T08:08:21Z</time>
      </trkpt>
      <trkpt lat="48.52754" lon="2.00493">
        <ele>100.17</ele>
        <time>2019-11-24T08:08:27Z</time>
      </trkpt>
      <trkpt lat="48.52737" lon="2.00479">
        <ele>101.43</ele>
        <time>2019-11-24T08:08:34Z</time>
      </trkpt>
      <trkpt lat="48.52719" lon="2.00466">
        <ele>101.82</ele>
        <time>2019-11-24T08:08:40Z</time>
      </trkpt>
      <trkpt lat="48.52701" lon="2.00453">
        <ele>101.99</ele>
        <time>2019-11-24T08:08:46Z</time>
      </trkpt>
      <trkpt lat="48.52685" lon="2.00439">
        <ele>103.34</ele>
        <time>2019-11-24T08:08:52Z</time>
      </trkpt>
      <trkpt lat="48.52667" lon="2.00429">
        <ele>105.32</ele>
        <time>2019-11-24T08:08:58Z</time>
      </trkpt>
      <trkpt lat="48.5265" lon="2.00414">
        <ele>104.35</ele>
        <time>2019-11-24T08:09:05Z</time>
      </trkpt>
      <trkpt lat="48.52632" lon="2.00404">
        <ele>104.36</ele>
        <time>2019-11-24T08:09:14Z</time>
      </trkpt>
      <trkpt lat="48.52616" lon="2.00391">
        <ele>106.29</ele>
        <time>2019-11-24T08:09:20Z</time>
      </trkpt>
      <trkpt lat="48.52599" lon="2.00378">
        <ele>106.33</ele>
        <time>2019-11-24T08:09:26Z</time>
      </trkpt>
      <trkpt lat="48.52581" lon="2.00363">
        <ele>105.73</ele>
        <time>2019-11-24T08:09:33Z</time>
      </trkpt>
      <trkpt lat="48.52564" lon="2.00349">
        <ele>107.11</ele>
        <time>2019-11-24T08:09:40Z</time>
      </trkpt>
      <trkpt lat="48.52546" lon="2.00334">
        <ele>108.61</ele>
        <time>2019-11-24T08:09:47Z</time>
      </trkpt>
      <trkpt lat="48.5253" lon="2.00347">
        <ele>109.47</ele>
        <time>2019-11-24T08:09:54Z</time>
      </trkpt>
      <trkpt lat="48.5252" lon="2.00372">
        <ele>109.48</ele>
        <time>2019-11-24T08:10:00Z</time>
      </trkpt>
      <trkpt lat="48.52508" lon="2.00396">
        <ele>109.55</ele>
        <time>2019-11-24T08:10:06Z</time>
      </trkpt>
      <trkpt lat="48.52495" lon="2.00418">
        <ele>110.28</ele>
        <time>2019-11-24T08:10:13Z</time>
      </trkpt>
      <trkpt lat="48.52477" lon="2.00403">
        <ele>113</ele>
        <time>2019-11-24T08:10:20Z</time>
      </trkpt>
      <trkpt lat="48.52465" lon="2.0038">
        <ele>111.67</ele>
        <time>2019-11-24T08:10:26Z</time>
      </trkpt>
      <trkpt lat="48.52458" lon="2.00354">
        <ele>111.65</ele>
        <time>2019-11-24T08:10:32Z</time>
      </trkpt>
      <trkpt lat="48.52458" lon="2.00324">
        <ele>110.7</ele>
        <time>2019-11-24T08:10:37Z</time>
      </trkpt>
      <trkpt lat="48.52458" lon="2.00294">
        <ele>109.75</ele>
        <time>2019-11-24T08:10:42Z</time>
      </trkpt>
      <trkpt lat="48.52457" lon="2.00266">
        <ele>109.9</ele>
        <time>2019-11-24T08:10:47Z</time>
      </trkpt>
      <trkpt lat="48.52442" lon="2.00248">
        <ele>110.83</ele>
        <time>2019-11-24T08:10:54Z</time>
      </trkpt>
      <trkpt lat="48.52432" lon="2.00225">
        <ele>110.09</ele>
        <time>2019-11-24T08:11:00Z</time>
      </trkpt>
      <trkpt lat="48.52415" lon="2.00214">
        <ele>112.2</ele>
        <time>2019-11-24T08:11:06Z</time>
      </trkpt>
      <trkpt lat="48.52398" lon="2.00199">
        <ele>114.52</ele>
        <time>2019-11-24T08:11:13Z</time>
      </trkpt>
      <trkpt lat="48.5239" lon="2.0017">
        <ele>115.91</ele>
        <time>2019-11-24T08:11:19Z</time>
      </trkpt>
      <trkpt lat="48.52384" lon="2.0014">
        <ele>118.74</ele>
        <time>2019-11-24T08:11:25Z</time>
      </trkpt>
      <trkpt lat="48.52378" lon="2.0011">
        <ele>120.3</ele>
        <time>2019-11-24T08:11:31Z</time>
      </trkpt>
      <trkpt lat="48.52374" lon="2.00082">
        <ele>119.56</ele>
        <time>2019-11-24T08:11:36Z</time>
      </trkpt>
      <trkpt lat="48.5237" lon="2.00054">
        <ele>119.9</ele>
        <time>2019-11-24T08:11:41Z</time>
      </trkpt>
      <trkpt lat="48.52367" lon="2.00023">
        <ele>119.02</ele>
        <time>2019-11-24T08:11:46Z</time>
      </trkpt>
      <trkpt lat="48.52362" lon="1.99994">
        <ele>118.53</ele>
        <time>2019-11-24T08:11:50Z</time>
      </trkpt>
      <trkpt lat="48.52358" lon="1.99964">
        <ele>117.65</ele>
        <time>2019-11-24T08:11:54Z</time>
      </trkpt>
      <trkpt lat="48.52352" lon="1.99935">
        <ele>117.98</ele>
        <time>2019-11-24T08:11:58Z</time>
      </trkpt>
      <trkpt lat="48.52347" lon="1.99907">
        <ele>118.42</ele>
        <time>2019-11-24T08:12:02Z</time>
      </trkpt>
      <trkpt lat="48.52344" lon="1.9988">
        <ele>118.37</ele>
        <time>2019-11-24T08:12:06Z</time>
      </trkpt>
      <trkpt lat="48.52341" lon="1.99853">
        <ele>118.2</ele>
        <time>2019-11-24T08:12:10Z</time>
      </trkpt>
      <trkpt lat="48.52337" lon="1.99823">
        <ele>119.21</ele>
        <time>2019-11-24T08:12:15Z</time>
      </trkpt>
      <trkpt lat="48.52332" lon="1.99796">
        <ele>120.25</ele>
        <time>2019-11-24T08:12:22Z</time>
      </trkpt>
      <trkpt lat="48.52324" lon="1.99764">
        <ele>124.09</ele>
        <time>2019-11-24T08:12:29Z</time>
      </trkpt>
      <trkpt lat="48.52318" lon="1.99733">
        <ele>124.74</ele>
        <time>2019-11-24T08:12:34Z</time>
      </trkpt>
      <trkpt lat="48.52316" lon="1.99705">
        <ele>124.55</ele>
        <time>2019-11-24T08:12:39Z</time>
      </trkpt>
      <trkpt lat="48.52314" lon="1.99677">
        <ele>124.79</ele>
        <time>2019-11-24T08:12:45Z</time>
      </trkpt>
      <trkpt lat="48.52309" lon="1.99649">
        <ele>123.71</ele>
        <time>2019-11-24T08:12:52Z</time>
      </trkpt>
      <trkpt lat="48.52305" lon="1.99621">
        <ele>122.88</ele>
        <time>2019-11-24T08:12:58Z</time>
      </trkpt>
      <trkpt lat="48.52302" lon="1.99593">
        <ele>124.26</ele>
        <time>2019-11-24T08:13:06Z</time>
      </trkpt>
      <trkpt lat="48.52297" lon="1.99565">
        <ele>126.13</ele>
        <time>2019-11-24T08:13:16Z</time>
      </trkpt>
      <trkpt lat="48.52293" lon="1.99538">
        <ele>128.72</ele>
        <time>2019-11-24T08:13:26Z</time>
      </trkpt>
      <trkpt lat="48.52288" lon="1.99512">
        <ele>131.19</ele>
        <time>2019-11-24T08:13:36Z</time>
      </trkpt>
      <trkpt lat="48.52283" lon="1.99485">
        <ele>133.04</ele>
        <time>2019-11-24T08:13:45Z</time>
      </trkpt>
      <trkpt lat="48.52278" lon="1.99458">
        <ele>138.31</ele>
        <time>2019-11-24T08:13:56Z</time>
      </trkpt>
      <trkpt lat="48.52273" lon="1.9943">
        <ele>139.89</ele>
        <time>2019-11-24T08:14:04Z</time>
      </trkpt>
      <trkpt lat="48.52268" lon="1.99401">
        <ele>142.05</ele>
        <time>2019-11-24T08:14:11Z</time>
      </trkpt>
      <trkpt lat="48.52266" lon="1.99372">
        <ele>139.54</ele>
        <time>2019-11-24T08:14:18Z</time>
      </trkpt>
      <trkpt lat="48.5226" lon="1.99346">
        <ele>141.49</ele>
        <time>2019-11-24T08:14:24Z</time>
      </trkpt>
      <trkpt lat="48.52257" lon="1.99317">
        <ele>139.48</ele>
        <time>2019-11-24T08:14:29Z</time>
      </trkpt>
      <trkpt lat="48.5225" lon="1.99288">
        <ele>140.66</ele>
        <time>2019-11-24T08:14:35Z</time>
      </trkpt>
      <trkpt lat="48.52246" lon="1.99258">
        <ele>141.04</ele>
        <time>2019-11-24T08:14:41Z</time>
      </trkpt>
      <trkpt lat="48.52244" lon="1.99231">
        <ele>142.65</ele>
        <time>2019-11-24T08:14:47Z</time>
      </trkpt>
      <trkpt lat="48.52242" lon="1.99201">
        <ele>143.31</ele>
        <time>2019-11-24T08:14:54Z</time>
      </trkpt>
      <trkpt lat="48.52237" lon="1.99173">
        <ele>143.19</ele>
        <time>2019-11-24T08:15:01Z</time>
      </trkpt>
      <trkpt lat="48.52231" lon="1.99147">
        <ele>142.94</ele>
        <time>2019-11-24T08:15:07Z</time>
      </trkpt>
      <trkpt lat="48.52223" lon="1.99118">
        <ele>143.23</ele>
        <time>2019-11-24T08:15:13Z</time>
      </trkpt>
      <trkpt lat="48.52203" lon="1.99107">
        <ele>144.64</ele>
        <time>2019-11-24T08:15:18Z</time>
      </trkpt>
      <trkpt lat="48.52186" lon="1.9912">
        <ele>144.92</ele>
        <time>2019-11-24T08:15:24Z</time>
      </trkpt>
      <trkpt lat="48.52181" lon="1.99146">
        <ele>148.54</ele>
        <time>2019-11-24T08:15:31Z</time>
      </trkpt>
      <trkpt lat="48.52176" lon="1.99174">
        <ele>149.52</ele>
        <time>2019-11-24T08:15:37Z</time>
      </trkpt>
      <trkpt lat="48.52169" lon="1.99202">
        <ele>152.06</ele>
        <time>2019-11-24T08:15:44Z</time>
      </trkpt>
      <trkpt lat="48.52161" lon="1.99227">
        <ele>151.49</ele>
        <time>2019-11-24T08:15:51Z</time>
      </trkpt>
      <trkpt lat="48.52152" lon="1.99256">
        <ele>150.54</ele>
        <time>2019-11-24T08:15:58Z</time>
      </trkpt>
      <trkpt lat="48.52144" lon="1.99282">
        <ele>152.93</ele>
        <time>2019-11-24T08:16:04Z</time>
      </trkpt>
      <trkpt lat="48.52129" lon="1.99299">
        <ele>153.43</ele>
        <time>2019-11-24T08:16:10Z</time>
      </trkpt>
      <trkpt lat="48.52109" lon="1.99296">
        <ele>156.66</ele>
        <time>2019-11-24T08:16:16Z</time>
      </trkpt>
      <trkpt lat="48.5209" lon="1.99299">
        <ele>158.15</ele>
        <time>2019-11-24T08:16:24Z</time>
      </trkpt>
      <trkpt lat="48.52074" lon="1.99316">
        <ele>156.08</ele>
        <time>2019-11-24T08:16:29Z</time>
      </trkpt>
      <trkpt lat="48.52058" lon="1.99337">
        <ele>154.04</ele>
        <time>2019-11-24T08:16:34Z</time>
      </trkpt>
      <trkpt lat="48.52039" lon="1.9935">
        <ele>150.39</ele>
        <time>2019-11-24T08:16:38Z</time>
      </trkpt>
      <trkpt lat="48.52019" lon="1.9936">
        <ele>149.28</ele>
        <time>2019-11-24T08:16:40Z</time>
      </trkpt>
      <trkpt lat="48.51998" lon="1.9937">
        <ele>143.41</ele>
        <time>2019-11-24T08:16:42Z</time>
      </trkpt>
      <trkpt lat="48.51978" lon="1.9938">
        <ele>141.44</ele>
        <time>2019-11-24T08:16:45Z</time>
      </trkpt>
      <trkpt lat="48.51961" lon="1.99395">
        <ele>138.11</ele>
        <time>2019-11-24T08:16:48Z</time>
      </trkpt>
      <trkpt lat="48.51943" lon="1.99402">
        <ele>137.06</ele>
        <time>2019-11-24T08:16:50Z</time>
      </trkpt>
      <trkpt lat="48.51919" lon="1.99411">
        <ele>135.75</ele>
        <time>2019-11-24T08:16:53Z</time>
      </trkpt>
      <trkpt lat="48.51896" lon="1.99423">
        <ele>134.08</ele>
        <time>2019-11-24T08:16:56Z</time>
      </trkpt>
      <trkpt lat="48.51872" lon="1.9943">
        <ele>133.06</ele>
        <time>2019-11-24T08:16:59Z</time>
      </trkpt>
      <trkpt lat="48.51856" lon="1.99447">
        <ele>132.08</ele>
        <time>2019-11-24T08:17:03Z</time>
      </trkpt>
      <trkpt lat="48.5184" lon="1.99435">
        <ele>134.43</ele>
        <time>2019-11-24T08:17:10Z</time>
      </trkpt>
      <trkpt lat="48.51825" lon="1.99414">
        <ele>130.94</ele>
        <time>2019-11-24T08:17:13Z</time>
      </trkpt>
      <trkpt lat="48.5181" lon="1.99395">
        <ele>129.03</ele>
        <time>2019-11-24T08:17:17Z</time>
      </trkpt>
      <trkpt lat="48.51794" lon="1.99372">
        <ele>126.85</ele>
        <time>2019-11-24T08:17:21Z</time>
      </trkpt>
      <trkpt lat="48.51781" lon="1.9935">
        <ele>125.19</ele>
        <time>2019-11-24T08:17:24Z</time>
      </trkpt>
      <trkpt lat="48.51769" lon="1.99327">
        <ele>125.87</ele>
        <time>2019-11-24T08:17:27Z</time>
      </trkpt>
      <trkpt lat="48.51755" lon="1.99306">
        <ele>124.25</ele>
        <time>2019-11-24T08:17:30Z</time>
      </trkpt>
      <trkpt lat="48.51739" lon="1.99282">
        <ele>120.53</ele>
        <time>2019-11-24T08:17:33Z</time>
      </trkpt>
      <trkpt lat="48.51724" lon="1.99262">
        <ele>119.21</ele>
        <time>2019-11-24T08:17:36Z</time>
      </trkpt>
      <trkpt lat="48.5171" lon="1.99242">
        <ele>116.99</ele>
        <time>2019-11-24T08:17:39Z</time>
      </trkpt>
      <trkpt lat="48.51696" lon="1.99223">
        <ele>115.05</ele>
        <time>2019-11-24T08:17:42Z</time>
      </trkpt>
      <trkpt lat="48.5168" lon="1.99198">
        <ele>116.14</ele>
        <time>2019-11-24T08:17:46Z</time>
      </trkpt>
      <trkpt lat="48.51665" lon="1.99175">
        <ele>116.02</ele>
        <time>2019-11-24T08:17:50Z</time>
      </trkpt>
      <trkpt lat="48.51651" lon="1.99152">
        <ele>115.54</ele>
        <time>2019-11-24T08:17:54Z</time>
      </trkpt>
      <trkpt lat="48.51636" lon="1.99133">
        <ele>115.44</ele>
        <time>2019-11-24T08:17:59Z</time>
      </trkpt>
      <trkpt lat="48.51617" lon="1.9915">
        <ele>118.71</ele>
        <time>2019-11-24T08:18:05Z</time>
      </trkpt>
      <trkpt lat="48.51606" lon="1.99173">
        <ele>120.04</ele>
        <time>2019-11-24T08:18:12Z</time>
      </trkpt>
      <trkpt lat="48.51592" lon="1.99192">
        <ele>121.43</ele>
        <time>2019-11-24T08:18:19Z</time>
      </trkpt>
      <trkpt lat="48.51573" lon="1.992">
        <ele>127.19</ele>
        <time>2019-11-24T08:18:27Z</time>
      </trkpt>
      <trkpt lat="48.51555" lon="1.99205">
        <ele>131.88</ele>
        <time>2019-11-24T08:18:33Z</time>
      </trkpt>
      <trkpt lat="48.51535" lon="1.992">
        <ele>137.66</ele>
        <time>2019-11-24T08:18:39Z</time>
      </trkpt>
      <trkpt lat="48.51515" lon="1.99195">
        <ele>144.13</ele>
        <time>2019-11-24T08:18:46Z</time>
      </trkpt>
      <trkpt lat="48.51505" lon="1.99219">
        <ele>144.69</ele>
        <time>2019-11-24T08:18:58Z</time>
      </trkpt>
      <trkpt lat="48.51507" lon="1.99249">
        <ele>146.42</ele>
        <time>2019-11-24T08:19:05Z</time>
      </trkpt>
      <trkpt lat="48.51504" lon="1.99276">
        <ele>143.46</ele>
        <time>2019-11-24T08:19:11Z</time>
      </trkpt>
      <trkpt lat="48.51502" lon="1.99305">
        <ele>142.81</ele>
        <time>2019-11-24T08:19:18Z</time>
      </trkpt>
      <trkpt lat="48.51498" lon="1.99334">
        <ele>142.73</ele>
        <time>2019-11-24T08:19:25Z</time>
      </trkpt>
      <trkpt lat="48.51498" lon="1.99365">
        <ele>146.34</ele>
        <time>2019-11-24T08:19:32Z</time>
      </trkpt>
      <trkpt lat="48.51497" lon="1.99396">
        <ele>144.31</ele>
        <time>2019-11-24T08:19:37Z</time>
      </trkpt>
      <trkpt lat="48.51496" lon="1.99425">
        <ele>145.61</ele>
        <time>2019-11-24T08:19:43Z</time>
      </trkpt>
      <trkpt lat="48.51493" lon="1.99454">
        <ele>142.16</ele>
        <time>2019-11-24T08:19:48Z</time>
      </trkpt>
      <trkpt lat="48.51492" lon="1.99482">
        <ele>147.81</ele>
        <time>2019-11-24T08:19:52Z</time>
      </trkpt>
      <trkpt lat="48.5149" lon="1.99509">
        <ele>147.98</ele>
        <time>2019-11-24T08:19:56Z</time>
      </trkpt>
      <trkpt lat="48.51488" lon="1.99541">
        <ele>149.01</ele>
        <time>2019-11-24T08:20:01Z</time>
      </trkpt>
      <trkpt lat="48.51483" lon="1.99569">
        <ele>150.44</ele>
        <time>2019-11-24T08:20:06Z</time>
      </trkpt>
      <trkpt lat="48.51475" lon="1.99601">
        <ele>149.64</ele>
        <time>2019-11-24T08:20:12Z</time>
      </trkpt>
      <trkpt lat="48.51462" lon="1.99624">
        <ele>144.65</ele>
        <time>2019-11-24T08:20:18Z</time>
      </trkpt>
      <trkpt lat="48.51462" lon="1.99651">
        <ele>147.29</ele>
        <time>2019-11-24T08:20:23Z</time>
      </trkpt>
      <trkpt lat="48.51462" lon="1.9968">
        <ele>148.93</ele>
        <time>2019-11-24T08:20:29Z</time>
      </trkpt>
      <trkpt lat="48.51455" lon="1.99705">
        <ele>136.29</ele>
        <time>2019-11-24T08:20:35Z</time>
      </trkpt>
      <trkpt lat="48.51451" lon="1.99732">
        <ele>132.53</ele>
        <time>2019-11-24T08:20:42Z</time>
      </trkpt>
      <trkpt lat="48.5146" lon="1.99759">
        <ele>132.94</ele>
        <time>2019-11-24T08:20:50Z</time>
      </trkpt>
      <trkpt lat="48.51473" lon="1.9978">
        <ele>128.82</ele>
        <time>2019-11-24T08:20:55Z</time>
      </trkpt>
      <trkpt lat="48.51484" lon="1.99803">
        <ele>127.8</ele>
        <time>2019-11-24T08:20:57Z</time>
      </trkpt>
      <trkpt lat="48.51498" lon="1.99823">
        <ele>125.87</ele>
        <time>2019-11-24T08:21:00Z</time>
      </trkpt>
      <trkpt lat="48.51513" lon="1.99848">
        <ele>125.89</ele>
        <time>2019-11-24T08:21:04Z</time>
      </trkpt>
      <trkpt lat="48.51528" lon="1.9987">
        <ele>124.73</ele>
        <time>2019-11-24T08:21:08Z</time>
      </trkpt>
      <trkpt lat="48.51532" lon="1.99898">
        <ele>117.82</ele>
        <time>2019-11-24T08:21:13Z</time>
      </trkpt>
      <trkpt lat="48.51521" lon="1.9993">
        <ele>117.44</ele>
        <time>2019-11-24T08:21:17Z</time>
      </trkpt>
      <trkpt lat="48.51509" lon="1.99956">
        <ele>117.18</ele>
        <time>2019-11-24T08:21:20Z</time>
      </trkpt>
      <trkpt lat="48.515" lon="1.99981">
        <ele>116.9</ele>
        <time>2019-11-24T08:21:23Z</time>
      </trkpt>
      <trkpt lat="48.51491" lon="2.00013">
        <ele>117.32</ele>
        <time>2019-11-24T08:21:27Z</time>
      </trkpt>
      <trkpt lat="48.51481" lon="2.00035">
        <ele>116.12</ele>
        <time>2019-11-24T08:21:30Z</time>
      </trkpt>
      <trkpt lat="48.51469" lon="2.00065">
        <ele>113.09</ele>
        <time>2019-11-24T08:21:34Z</time>
      </trkpt>
      <trkpt lat="48.51457" lon="2.00091">
        <ele>109.84</ele>
        <time>2019-11-24T08:21:38Z</time>
      </trkpt>
      <trkpt lat="48.5145" lon="2.00118">
        <ele>112.1</ele>
        <time>2019-11-24T08:21:42Z</time>
      </trkpt>
      <trkpt lat="48.51437" lon="2.00147">
        <ele>109.75</ele>
        <time>2019-11-24T08:21:46Z</time>
      </trkpt>
      <trkpt lat="48.51425" lon="2.00169">
        <ele>106.62</ele>
        <time>2019-11-24T08:21:49Z</time>
      </trkpt>
      <trkpt lat="48.51413" lon="2.00193">
        <ele>106.56</ele>
        <time>2019-11-24T08:21:53Z</time>
      </trkpt>
      <trkpt lat="48.51394" lon="2.00212">
        <ele>102.89</ele>
        <time>2019-11-24T08:21:57Z</time>
      </trkpt>
      <trkpt lat="48.51377" lon="2.00226">
        <ele>102.09</ele>
        <time>2019-11-24T08:22:01Z</time>
      </trkpt>
      <trkpt lat="48.51363" lon="2.00246">
        <ele>104.7</ele>
        <time>2019-11-24T08:22:09Z</time>
      </trkpt>
      <trkpt lat="48.51369" lon="2.00273">
        <ele>105.19</ele>
        <time>2019-11-24T08:22:14Z</time>
      </trkpt>
      <trkpt lat="48.51381" lon="2.00295">
        <ele>103.57</ele>
        <time>2019-11-24T08:22:19Z</time>
      </trkpt>
      <trkpt lat="48.51388" lon="2.00321">
        <ele>108.4</ele>
        <time>2019-11-24T08:22:27Z</time>
      </trkpt>
      <trkpt lat="48.51391" lon="2.00349">
        <ele>111.39</ele>
        <time>2019-11-24T08:22:33Z</time>
      </trkpt>
      <trkpt lat="48.51389" lon="2.00377">
        <ele>116.77</ele>
        <time>2019-11-24T08:22:41Z</time>
      </trkpt>
      <trkpt lat="48.51391" lon="2.00409">
        <ele>118.34</ele>
        <time>2019-11-24T08:22:48Z</time>
      </trkpt>
      <trkpt lat="48.51391" lon="2.00436">
        <ele>116.86</ele>
        <time>2019-11-24T08:22:52Z</time>
      </trkpt>
      <trkpt lat="48.51392" lon="2.00466">
        <ele>118.81</ele>
        <time>2019-11-24T08:22:56Z</time>
      </trkpt>
      <trkpt lat="48.51393" lon="2.00497">
        <ele>119.96</ele>
        <time>2019-11-24T08:23:01Z</time>
      </trkpt>
      <trkpt lat="48.51396" lon="2.00525">
        <ele>120.41</ele>
        <time>2019-11-24T08:23:05Z</time>
      </trkpt>
      <trkpt lat="48.51402" lon="2.00555">
        <ele>119.78</ele>
        <time>2019-11-24T08:23:10Z</time>
      </trkpt>
      <trkpt lat="48.51407" lon="2.00586">
        <ele>119.82</ele>
        <time>2019-11-24T08:23:16Z</time>
      </trkpt>
      <trkpt lat="48.51418" lon="2.00611">
        <ele>127.63</ele>
        <time>2019-11-24T08:23:20Z</time>
      </trkpt>
      <trkpt lat="48.5142" lon="2.0064">
        <ele>129.68</ele>
        <time>2019-11-24T08:23:25Z</time>
      </trkpt>
      <trkpt lat="48.51423" lon="2.0067">
        <ele>128.42</ele>
        <time>2019-11-24T08:23:30Z</time>
      </trkpt>
      <trkpt lat="48.51431" lon="2.00694">
        <ele>125.76</ele>
        <time>2019-11-24T08:23:36Z</time>
      </trkpt>
      <trkpt lat="48.51442" lon="2.00722">
        <ele>126.29</ele>
        <time>2019-11-24T08:23:42Z</time>
      </trkpt>
      <trkpt lat="48.5145" lon="2.00747">
        <ele>123.36</ele>
        <time>2019-11-24T08:23:46Z</time>
      </trkpt>
      <trkpt lat="48.51463" lon="2.00775">
        <ele>122.55</ele>
        <time>2019-11-24T08:23:50Z</time>
      </trkpt>
      <trkpt lat="48.51469" lon="2.00802">
        <ele>123.35</ele>
        <time>2019-11-24T08:23:54Z</time>
      </trkpt>
      <trkpt lat="48.51474" lon="2.00831">
        <ele>123.52</ele>
        <time>2019-11-24T08:23:58Z</time>
      </trkpt>
      <trkpt lat="48.5148" lon="2.00857">
        <ele>121.43</ele>
        <time>2019-11-24T08:24:01Z</time>
      </trkpt>
      <trkpt lat="48.5148" lon="2.00886">
        <ele>121.53</ele>
        <time>2019-11-24T08:24:07Z</time>
      </trkpt>
      <trkpt lat="48.51472" lon="2.00917">
        <ele>123.28</ele>
        <time>2019-11-24T08:24:13Z</time>
      </trkpt>
      <trkpt lat="48.51467" lon="2.00945">
        <ele>122.9</ele>
        <time>2019-11-24T08:24:17Z</time>
      </trkpt>
      <trkpt lat="48.51451" lon="2.00963">
        <ele>125.78</ele>
        <time>2019-11-24T08:24:22Z</time>
      </trkpt>
      <trkpt lat="48.51432" lon="2.00971">
        <ele>127.76</ele>
        <time>2019-11-24T08:24:27Z</time>
      </trkpt>
      <trkpt lat="48.51412" lon="2.0098">
        <ele>127.91</ele>
        <time>2019-11-24T08:24:33Z</time>
      </trkpt>
      <trkpt lat="48.51397" lon="2.00999">
        <ele>127.4</ele>
        <time>2019-11-24T08:24:39Z</time>
      </trkpt>
      <trkpt lat="48.51388" lon="2.01023">
        <ele>128.04</ele>
        <time>2019-11-24T08:24:46Z</time>
      </trkpt>
      <trkpt lat="48.51379" lon="2.01047">
        <ele>127.53</ele>
        <time>2019-11-24T08:24:52Z</time>
      </trkpt>
      <trkpt lat="48.51372" lon="2.01073">
        <ele>132.11</ele>
        <time>2019-11-24T08:24:58Z</time>
      </trkpt>
      <trkpt lat="48.51361" lon="2.01095">
        <ele>131.75</ele>
        <time>2019-11-24T08:25:04Z</time>
      </trkpt>
      <trkpt lat="48.51347" lon="2.01117">
        <ele>136.55</ele>
        <time>2019-11-24T08:25:11Z</time>
      </trkpt>
      <trkpt lat="48.51337" lon="2.0114">
        <ele>135.09</ele>
        <time>2019-11-24T08:25:18Z</time>
      </trkpt>
      <trkpt lat="48.5132" lon="2.01155">
        <ele>130.65</ele>
        <time>2019-11-24T08:25:25Z</time>
      </trkpt>
      <trkpt lat="48.51308" lon="2.01179">
        <ele>129.05</ele>
        <time>2019-11-24T08:25:33Z</time>
      </trkpt>
      <trkpt lat="48.51315" lon="2.01208">
        <ele>140.25</ele>
        <time>2019-11-24T08:25:41Z</time>
      </trkpt>
      <trkpt lat="48.51303" lon="2.0123">
        <ele>142.25</ele>
        <time>2019-11-24T08:25:50Z</time>
      </trkpt>
      <trkpt lat="48.51292" lon="2.01253">
        <ele>139.36</ele>
        <time>2019-11-24T08:26:01Z</time>
      </trkpt>
      <trkpt lat="48.51275" lon="2.01267">
        <ele>137.07</ele>
        <time>2019-11-24T08:26:10Z</time>
      </trkpt>
      <trkpt lat="48.51275" lon="2.01295">
        <ele>142.95</ele>
        <time>2019-11-24T08:26:22Z</time>
      </trkpt>
      <trkpt lat="48.51259" lon="2.01309">
        <ele>139.69</ele>
        <time>2019-11-24T08:26:30Z</time>
      </trkpt>
      <trkpt lat="48.51241" lon="2.01303">
        <ele>125.95</ele>
        <time>2019-11-24T08:27:38Z</time>
      </trkpt>
      <trkpt lat="48.51242" lon="2.01332">
        <ele>141.24</ele>
        <time>2019-11-24T08:30:11Z</time>
      </trkpt>
      <trkpt lat="48.51234" lon="2.01359">
        <ele>140.92</ele>
        <time>2019-11-24T08:30:18Z</time>
      </trkpt>
      <trkpt lat="48.51223" lon="2.01385">
        <ele>140.05</ele>
        <time>2019-11-24T08:30:24Z</time>
      </trkpt>
      <trkpt lat="48.51211" lon="2.01411">
        <ele>140.81</ele>
        <time>2019-11-24T08:30:30Z</time>
      </trkpt>
      <trkpt lat="48.51202" lon="2.0144">
        <ele>146.81</ele>
        <time>2019-11-24T08:30:36Z</time>
      </trkpt>
      <trkpt lat="48.51194" lon="2.01464">
        <ele>149.97</ele>
        <time>2019-11-24T08:30:41Z</time>
      </trkpt>
      <trkpt lat="48.51182" lon="2.01491">
        <ele>151.35</ele>
        <time>2019-11-24T08:30:47Z</time>
      </trkpt>
      <trkpt lat="48.51174" lon="2.01517">
        <ele>157.09</ele>
        <time>2019-11-24T08:30:53Z</time>
      </trkpt>
      <trkpt lat="48.51165" lon="2.01542">
        <ele>158.8</ele>
        <time>2019-11-24T08:31:00Z</time>
      </trkpt>
      <trkpt lat="48.51156" lon="2.01565">
        <ele>158.75</ele>
        <time>2019-11-24T08:31:07Z</time>
      </trkpt>
      <trkpt lat="48.51136" lon="2.01596">
        <ele>158.31</ele>
        <time>2019-11-24T08:31:13Z</time>
      </trkpt>
      <trkpt lat="48.51122" lon="2.01619">
        <ele>153.76</ele>
        <time>2019-11-24T08:31:16Z</time>
      </trkpt>
      <trkpt lat="48.51104" lon="2.01637">
        <ele>147.7</ele>
        <time>2019-11-24T08:31:19Z</time>
      </trkpt>
      <trkpt lat="48.51085" lon="2.01654">
        <ele>152.68</ele>
        <time>2019-11-24T08:31:24Z</time>
      </trkpt>
      <trkpt lat="48.51066" lon="2.01664">
        <ele>151.51</ele>
        <time>2019-11-24T08:31:26Z</time>
      </trkpt>
      <trkpt lat="48.51046" lon="2.0166">
        <ele>138.73</ele>
        <time>2019-11-24T08:31:31Z</time>
      </trkpt>
      <trkpt lat="48.51032" lon="2.01638">
        <ele>141.15</ele>
        <time>2019-11-24T08:31:39Z</time>
      </trkpt>
      <trkpt lat="48.51018" lon="2.01618">
        <ele>146.5</ele>
        <time>2019-11-24T08:31:46Z</time>
      </trkpt>
      <trkpt lat="48.51005" lon="2.01598">
        <ele>151.61</ele>
        <time>2019-11-24T08:31:53Z</time>
      </trkpt>
      <trkpt lat="48.50995" lon="2.01574">
        <ele>151.99</ele>
        <time>2019-11-24T08:32:01Z</time>
      </trkpt>
      <trkpt lat="48.50988" lon="2.01546">
        <ele>149.07</ele>
        <time>2019-11-24T08:32:07Z</time>
      </trkpt>
      <trkpt lat="48.50979" lon="2.0152">
        <ele>153.41</ele>
        <time>2019-11-24T08:32:17Z</time>
      </trkpt>
      <trkpt lat="48.5097" lon="2.01494">
        <ele>152.03</ele>
        <time>2019-11-24T08:32:28Z</time>
      </trkpt>
      <trkpt lat="48.50965" lon="2.01467">
        <ele>152.17</ele>
        <time>2019-11-24T08:32:39Z</time>
      </trkpt>
      <trkpt lat="48.50953" lon="2.01443">
        <ele>156.79</ele>
        <time>2019-11-24T08:32:52Z</time>
      </trkpt>
      <trkpt lat="48.5095" lon="2.01416">
        <ele>157.28</ele>
        <time>2019-11-24T08:33:03Z</time>
      </trkpt>
      <trkpt lat="48.50937" lon="2.01395">
        <ele>157.89</ele>
        <time>2019-11-24T08:33:17Z</time>
      </trkpt>
      <trkpt lat="48.50924" lon="2.01374">
        <ele>157.06</ele>
        <time>2019-11-24T08:33:28Z</time>
      </trkpt>
      <trkpt lat="48.50917" lon="2.01349">
        <ele>157.28</ele>
        <time>2019-11-24T08:33:40Z</time>
      </trkpt>
      <trkpt lat="48.50903" lon="2.01332">
        <ele>160.15</ele>
        <time>2019-11-24T08:33:52Z</time>
      </trkpt>
      <trkpt lat="48.50893" lon="2.01306">
        <ele>162.96</ele>
        <time>2019-11-24T08:34:04Z</time>
      </trkpt>
      <trkpt lat="48.50878" lon="2.01289">
        <ele>165.05</ele>
        <time>2019-11-24T08:34:15Z</time>
      </trkpt>
      <trkpt lat="48.50864" lon="2.01273">
        <ele>165.62</ele>
        <time>2019-11-24T08:34:24Z</time>
      </trkpt>
      <trkpt lat="48.50854" lon="2.01249">
        <ele>166.46</ele>
        <time>2019-11-24T08:34:32Z</time>
      </trkpt>
      <trkpt lat="48.5084" lon="2.01231">
        <ele>163.98</ele>
        <time>2019-11-24T08:34:41Z</time>
      </trkpt>
      <trkpt lat="48.50826" lon="2.01208">
        <ele>165.35</ele>
        <time>2019-11-24T08:34:50Z</time>
      </trkpt>
      <trkpt lat="48.50814" lon="2.01183">
        <ele>165.75</ele>
        <time>2019-11-24T08:34:57Z</time>
      </trkpt>
      <trkpt lat="48.50807" lon="2.01154">
        <ele>164.41</ele>
        <time>2019-11-24T08:35:04Z</time>
      </trkpt>
      <trkpt lat="48.50803" lon="2.01125">
        <ele>161.44</ele>
        <time>2019-11-24T08:35:10Z</time>
      </trkpt>
      <trkpt lat="48.508" lon="2.01097">
        <ele>163.31</ele>
        <time>2019-11-24T08:35:16Z</time>
      </trkpt>
      <trkpt lat="48.50797" lon="2.0107">
        <ele>165.14</ele>
        <time>2019-11-24T08:35:22Z</time>
      </trkpt>
      <trkpt lat="48.50791" lon="2.01041">
        <ele>164.09</ele>
        <time>2019-11-24T08:35:29Z</time>
      </trkpt>
      <trkpt lat="48.50789" lon="2.01012">
        <ele>162.04</ele>
        <time>2019-11-24T08:35:35Z</time>
      </trkpt>
      <trkpt lat="48.50781" lon="2.00985">
        <ele>163.19</ele>
        <time>2019-11-24T08:35:42Z</time>
      </trkpt>
      <trkpt lat="48.50769" lon="2.01006">
        <ele>163.8</ele>
        <time>2019-11-24T08:35:52Z</time>
      </trkpt>
      <trkpt lat="48.50757" lon="2.01028">
        <ele>159.34</ele>
        <time>2019-11-24T08:35:59Z</time>
      </trkpt>
      <trkpt lat="48.50742" lon="2.01053">
        <ele>159.04</ele>
        <time>2019-11-24T08:36:05Z</time>
      </trkpt>
      <trkpt lat="48.50729" lon="2.01079">
        <ele>159.46</ele>
        <time>2019-11-24T08:36:10Z</time>
      </trkpt>
      <trkpt lat="48.50717" lon="2.01101">
        <ele>158.57</ele>
        <time>2019-11-24T08:36:14Z</time>
      </trkpt>
      <trkpt lat="48.50705" lon="2.01123">
        <ele>158.51</ele>
        <time>2019-11-24T08:36:18Z</time>
      </trkpt>
      <trkpt lat="48.50691" lon="2.01147">
        <ele>158.88</ele>
        <time>2019-11-24T08:36:24Z</time>
      </trkpt>
      <trkpt lat="48.50679" lon="2.01167">
        <ele>157.59</ele>
        <time>2019-11-24T08:36:29Z</time>
      </trkpt>
      <trkpt lat="48.50666" lon="2.01193">
        <ele>158.06</ele>
        <time>2019-11-24T08:36:35Z</time>
      </trkpt>
      <trkpt lat="48.50642" lon="2.01232">
        <ele>154.49</ele>
        <time>2019-11-24T08:36:39Z</time>
      </trkpt>
      <trkpt lat="48.50628" lon="2.01257">
        <ele>151.77</ele>
        <time>2019-11-24T08:36:44Z</time>
      </trkpt>
      <trkpt lat="48.50615" lon="2.01276">
        <ele>149.02</ele>
        <time>2019-11-24T08:36:48Z</time>
      </trkpt>
      <trkpt lat="48.50602" lon="2.01301">
        <ele>150.38</ele>
        <time>2019-11-24T08:36:53Z</time>
      </trkpt>
      <trkpt lat="48.50588" lon="2.0132">
        <ele>149.09</ele>
        <time>2019-11-24T08:36:57Z</time>
      </trkpt>
      <trkpt lat="48.50606" lon="2.01332">
        <ele>154.29</ele>
        <time>2019-11-24T08:37:09Z</time>
      </trkpt>
      <trkpt lat="48.50625" lon="2.01327">
        <ele>161.93</ele>
        <time>2019-11-24T08:37:16Z</time>
      </trkpt>
      <trkpt lat="48.50645" lon="2.01329">
        <ele>163.14</ele>
        <time>2019-11-24T08:37:23Z</time>
      </trkpt>
      <trkpt lat="48.50667" lon="2.01331">
        <ele>164.45</ele>
        <time>2019-11-24T08:37:28Z</time>
      </trkpt>
      <trkpt lat="48.50688" lon="2.01335">
        <ele>161.34</ele>
        <time>2019-11-24T08:37:33Z</time>
      </trkpt>
      <trkpt lat="48.50707" lon="2.01336">
        <ele>161.24</ele>
        <time>2019-11-24T08:37:39Z</time>
      </trkpt>
      <trkpt lat="48.50726" lon="2.01334">
        <ele>158.7</ele>
        <time>2019-11-24T08:37:42Z</time>
      </trkpt>
      <trkpt lat="48.50747" lon="2.01333">
        <ele>158.82</ele>
        <time>2019-11-24T08:37:48Z</time>
      </trkpt>
      <trkpt lat="48.50767" lon="2.01333">
        <ele>158.07</ele>
        <time>2019-11-24T08:37:53Z</time>
      </trkpt>
      <trkpt lat="48.50786" lon="2.01339">
        <ele>158.26</ele>
        <time>2019-11-24T08:38:00Z</time>
      </trkpt>
      <trkpt lat="48.50802" lon="2.01359">
        <ele>165.98</ele>
        <time>2019-11-24T08:38:07Z</time>
      </trkpt>
      <trkpt lat="48.50824" lon="2.01383">
        <ele>160</ele>
        <time>2019-11-24T08:38:12Z</time>
      </trkpt>
      <trkpt lat="48.50832" lon="2.01415">
        <ele>157.72</ele>
        <time>2019-11-24T08:38:17Z</time>
      </trkpt>
      <trkpt lat="48.50838" lon="2.01451">
        <ele>152.84</ele>
        <time>2019-11-24T08:38:21Z</time>
      </trkpt>
      <trkpt lat="48.50838" lon="2.01488">
        <ele>150.28</ele>
        <time>2019-11-24T08:38:23Z</time>
      </trkpt>
      <trkpt lat="48.50837" lon="2.01518">
        <ele>147.33</ele>
        <time>2019-11-24T08:38:26Z</time>
      </trkpt>
      <trkpt lat="48.50835" lon="2.01555">
        <ele>145.87</ele>
        <time>2019-11-24T08:38:30Z</time>
      </trkpt>
      <trkpt lat="48.50834" lon="2.01592">
        <ele>148.23</ele>
        <time>2019-11-24T08:38:34Z</time>
      </trkpt>
      <trkpt lat="48.50831" lon="2.01625">
        <ele>146.75</ele>
        <time>2019-11-24T08:38:37Z</time>
      </trkpt>
      <trkpt lat="48.50831" lon="2.01652">
        <ele>141.36</ele>
        <time>2019-11-24T08:38:40Z</time>
      </trkpt>
      <trkpt lat="48.50827" lon="2.01678">
        <ele>132.98</ele>
        <time>2019-11-24T08:38:43Z</time>
      </trkpt>
      <trkpt lat="48.50835" lon="2.01704">
        <ele>124.79</ele>
        <time>2019-11-24T08:38:50Z</time>
      </trkpt>
      <trkpt lat="48.5083" lon="2.01731">
        <ele>135.88</ele>
        <time>2019-11-24T08:39:01Z</time>
      </trkpt>
      <trkpt lat="48.50813" lon="2.01758">
        <ele>138.57</ele>
        <time>2019-11-24T08:39:11Z</time>
      </trkpt>
      <trkpt lat="48.50769" lon="2.01754">
        <ele>140.28</ele>
        <time>2019-11-24T08:39:18Z</time>
      </trkpt>
      <trkpt lat="48.50751" lon="2.0176">
        <ele>149.19</ele>
        <time>2019-11-24T08:39:31Z</time>
      </trkpt>
      <trkpt lat="48.5073" lon="2.01754">
        <ele>149.47</ele>
        <time>2019-11-24T08:39:37Z</time>
      </trkpt>
      <trkpt lat="48.50713" lon="2.0174">
        <ele>149.22</ele>
        <time>2019-11-24T08:39:43Z</time>
      </trkpt>
      <trkpt lat="48.50695" lon="2.0173">
        <ele>146.71</ele>
        <time>2019-11-24T08:39:49Z</time>
      </trkpt>
      <trkpt lat="48.50677" lon="2.01717">
        <ele>149.99</ele>
        <time>2019-11-24T08:39:56Z</time>
      </trkpt>
      <trkpt lat="48.50659" lon="2.01716">
        <ele>143.65</ele>
        <time>2019-11-24T08:40:03Z</time>
      </trkpt>
      <trkpt lat="48.50644" lon="2.01736">
        <ele>146.55</ele>
        <time>2019-11-24T08:40:11Z</time>
      </trkpt>
      <trkpt lat="48.50624" lon="2.01737">
        <ele>148.43</ele>
        <time>2019-11-24T08:40:17Z</time>
      </trkpt>
      <trkpt lat="48.50606" lon="2.01733">
        <ele>149.18</ele>
        <time>2019-11-24T08:40:22Z</time>
      </trkpt>
      <trkpt lat="48.50591" lon="2.01715">
        <ele>151.71</ele>
        <time>2019-11-24T08:40:28Z</time>
      </trkpt>
      <trkpt lat="48.50555" lon="2.01701">
        <ele>146.25</ele>
        <time>2019-11-24T08:40:33Z</time>
      </trkpt>
      <trkpt lat="48.50538" lon="2.01686">
        <ele>140.31</ele>
        <time>2019-11-24T08:40:40Z</time>
      </trkpt>
      <trkpt lat="48.50519" lon="2.01679">
        <ele>145.9</ele>
        <time>2019-11-24T08:40:48Z</time>
      </trkpt>
      <trkpt lat="48.50502" lon="2.01663">
        <ele>149.45</ele>
        <time>2019-11-24T08:40:56Z</time>
      </trkpt>
      <trkpt lat="48.50489" lon="2.01642">
        <ele>147.65</ele>
        <time>2019-11-24T08:41:07Z</time>
      </trkpt>
      <trkpt lat="48.50471" lon="2.01627">
        <ele>144.59</ele>
        <time>2019-11-24T08:41:15Z</time>
      </trkpt>
      <trkpt lat="48.50452" lon="2.01614">
        <ele>148.59</ele>
        <time>2019-11-24T08:41:21Z</time>
      </trkpt>
      <trkpt lat="48.50432" lon="2.016">
        <ele>152.68</ele>
        <time>2019-11-24T08:41:26Z</time>
      </trkpt>
      <trkpt lat="48.50416" lon="2.01585">
        <ele>150.38</ele>
        <time>2019-11-24T08:41:30Z</time>
      </trkpt>
      <trkpt lat="48.50402" lon="2.01566">
        <ele>149.89</ele>
        <time>2019-11-24T08:41:35Z</time>
      </trkpt>
      <trkpt lat="48.50385" lon="2.01549">
        <ele>151.61</ele>
        <time>2019-11-24T08:41:41Z</time>
      </trkpt>
      <trkpt lat="48.50365" lon="2.01542">
        <ele>157.36</ele>
        <time>2019-11-24T08:41:50Z</time>
      </trkpt>
      <trkpt lat="48.50344" lon="2.01544">
        <ele>159.85</ele>
        <time>2019-11-24T08:41:56Z</time>
      </trkpt>
      <trkpt lat="48.50332" lon="2.01523">
        <ele>156.35</ele>
        <time>2019-11-24T08:42:01Z</time>
      </trkpt>
      <trkpt lat="48.5034" lon="2.01499">
        <ele>156.13</ele>
        <time>2019-11-24T08:42:07Z</time>
      </trkpt>
      <trkpt lat="48.50353" lon="2.01475">
        <ele>156.36</ele>
        <time>2019-11-24T08:42:13Z</time>
      </trkpt>
      <trkpt lat="48.50369" lon="2.01455">
        <ele>148.78</ele>
        <time>2019-11-24T08:42:19Z</time>
      </trkpt>
      <trkpt lat="48.5038" lon="2.01432">
        <ele>147.57</ele>
        <time>2019-11-24T08:42:25Z</time>
      </trkpt>
      <trkpt lat="48.50389" lon="2.01407">
        <ele>147.5</ele>
        <time>2019-11-24T08:42:32Z</time>
      </trkpt>
      <trkpt lat="48.504" lon="2.01383">
        <ele>156.13</ele>
        <time>2019-11-24T08:42:43Z</time>
      </trkpt>
      <trkpt lat="48.50411" lon="2.0136">
        <ele>159.58</ele>
        <time>2019-11-24T08:42:55Z</time>
      </trkpt>
      <trkpt lat="48.50421" lon="2.01336">
        <ele>155.48</ele>
        <time>2019-11-24T08:43:05Z</time>
      </trkpt>
      <trkpt lat="48.50427" lon="2.0131">
        <ele>162.58</ele>
        <time>2019-11-24T08:43:19Z</time>
      </trkpt>
      <trkpt lat="48.50431" lon="2.01283">
        <ele>158.22</ele>
        <time>2019-11-24T08:43:35Z</time>
      </trkpt>
      <trkpt lat="48.50413" lon="2.01274">
        <ele>161.42</ele>
        <time>2019-11-24T08:43:47Z</time>
      </trkpt>
      <trkpt lat="48.50414" lon="2.01246">
        <ele>162.39</ele>
        <time>2019-11-24T08:43:54Z</time>
      </trkpt>
      <trkpt lat="48.50421" lon="2.01221">
        <ele>160.86</ele>
        <time>2019-11-24T08:44:01Z</time>
      </trkpt>
      <trkpt lat="48.50432" lon="2.01198">
        <ele>158.86</ele>
        <time>2019-11-24T08:44:11Z</time>
      </trkpt>
      <trkpt lat="48.5044" lon="2.01174">
        <ele>163.1</ele>
        <time>2019-11-24T08:44:22Z</time>
      </trkpt>
      <trkpt lat="48.50444" lon="2.01147">
        <ele>163.94</ele>
        <time>2019-11-24T08:44:33Z</time>
      </trkpt>
      <trkpt lat="48.50451" lon="2.01119">
        <ele>160.49</ele>
        <time>2019-11-24T08:44:44Z</time>
      </trkpt>
      <trkpt lat="48.50456" lon="2.01093">
        <ele>155.46</ele>
        <time>2019-11-24T08:44:53Z</time>
      </trkpt>
      <trkpt lat="48.50462" lon="2.01066">
        <ele>151.78</ele>
        <time>2019-11-24T08:45:04Z</time>
      </trkpt>
      <trkpt lat="48.50467" lon="2.01038">
        <ele>150.76</ele>
        <time>2019-11-24T08:45:15Z</time>
      </trkpt>
      <trkpt lat="48.50474" lon="2.01011">
        <ele>150.7</ele>
        <time>2019-11-24T08:45:23Z</time>
      </trkpt>
      <trkpt lat="48.50477" lon="2.00982">
        <ele>150.94</ele>
        <time>2019-11-24T08:45:33Z</time>
      </trkpt>
      <trkpt lat="48.50481" lon="2.00953">
        <ele>152.35</ele>
        <time>2019-11-24T08:45:41Z</time>
      </trkpt>
      <trkpt lat="48.50485" lon="2.00923">
        <ele>153.1</ele>
        <time>2019-11-24T08:45:49Z</time>
      </trkpt>
      <trkpt lat="48.5049" lon="2.00894">
        <ele>153.33</ele>
        <time>2019-11-24T08:45:57Z</time>
      </trkpt>
      <trkpt lat="48.50494" lon="2.00866">
        <ele>154.1</ele>
        <time>2019-11-24T08:46:04Z</time>
      </trkpt>
      <trkpt lat="48.50499" lon="2.00838">
        <ele>154.67</ele>
        <time>2019-11-24T08:46:11Z</time>
      </trkpt>
      <trkpt lat="48.50503" lon="2.00809">
        <ele>154.64</ele>
        <time>2019-11-24T08:46:19Z</time>
      </trkpt>
      <trkpt lat="48.50507" lon="2.00781">
        <ele>153.87</ele>
        <time>2019-11-24T08:46:26Z</time>
      </trkpt>
      <trkpt lat="48.50512" lon="2.00751">
        <ele>154.27</ele>
        <time>2019-11-24T08:46:33Z</time>
      </trkpt>
      <trkpt lat="48.50516" lon="2.00724">
        <ele>153.45</ele>
        <time>2019-11-24T08:46:40Z</time>
      </trkpt>
      <trkpt lat="48.5052" lon="2.00697">
        <ele>153.89</ele>
        <time>2019-11-24T08:46:47Z</time>
      </trkpt>
      <trkpt lat="48.50525" lon="2.00669">
        <ele>154.74</ele>
        <time>2019-11-24T08:46:54Z</time>
      </trkpt>
      <trkpt lat="48.5053" lon="2.00639">
        <ele>154.42</ele>
        <time>2019-11-24T08:47:01Z</time>
      </trkpt>
      <trkpt lat="48.50533" lon="2.00611">
        <ele>154.05</ele>
        <time>2019-11-24T08:47:08Z</time>
      </trkpt>
      <trkpt lat="48.50537" lon="2.00582">
        <ele>154.36</ele>
        <time>2019-11-24T08:47:16Z</time>
      </trkpt>
      <trkpt lat="48.50541" lon="2.00555">
        <ele>154.87</ele>
        <time>2019-11-24T08:47:23Z</time>
      </trkpt>
      <trkpt lat="48.50546" lon="2.00527">
        <ele>155.37</ele>
        <time>2019-11-24T08:47:30Z</time>
      </trkpt>
      <trkpt lat="48.50551" lon="2.005">
        <ele>154.88</ele>
        <time>2019-11-24T08:47:36Z</time>
      </trkpt>
      <trkpt lat="48.50555" lon="2.00471">
        <ele>155.8</ele>
        <time>2019-11-24T08:47:42Z</time>
      </trkpt>
      <trkpt lat="48.5056" lon="2.00444">
        <ele>155.78</ele>
        <time>2019-11-24T08:47:49Z</time>
      </trkpt>
      <trkpt lat="48.50566" lon="2.00414">
        <ele>154.83</ele>
        <time>2019-11-24T08:47:56Z</time>
      </trkpt>
      <trkpt lat="48.50572" lon="2.00385">
        <ele>157.19</ele>
        <time>2019-11-24T08:48:04Z</time>
      </trkpt>
      <trkpt lat="48.50578" lon="2.0036">
        <ele>159.8</ele>
        <time>2019-11-24T08:48:14Z</time>
      </trkpt>
      <trkpt lat="48.50584" lon="2.00328">
        <ele>160.35</ele>
        <time>2019-11-24T08:48:20Z</time>
      </trkpt>
      <trkpt lat="48.50592" lon="2.003">
        <ele>161.18</ele>
        <time>2019-11-24T08:48:26Z</time>
      </trkpt>
      <trkpt lat="48.506" lon="2.00275">
        <ele>162.21</ele>
        <time>2019-11-24T08:48:33Z</time>
      </trkpt>
      <trkpt lat="48.50604" lon="2.00249">
        <ele>163.8</ele>
        <time>2019-11-24T08:48:39Z</time>
      </trkpt>
      <trkpt lat="48.50588" lon="2.00235">
        <ele>160.21</ele>
        <time>2019-11-24T08:48:50Z</time>
      </trkpt>
      <trkpt lat="48.50568" lon="2.00229">
        <ele>167.39</ele>
        <time>2019-11-24T08:48:58Z</time>
      </trkpt>
      <trkpt lat="48.50548" lon="2.00233">
        <ele>170.54</ele>
        <time>2019-11-24T08:49:06Z</time>
      </trkpt>
      <trkpt lat="48.5053" lon="2.00244">
        <ele>172.91</ele>
        <time>2019-11-24T08:49:12Z</time>
      </trkpt>
      <trkpt lat="48.50511" lon="2.00253">
        <ele>172.59</ele>
        <time>2019-11-24T08:49:17Z</time>
      </trkpt>
      <trkpt lat="48.50493" lon="2.00263">
        <ele>175.54</ele>
        <time>2019-11-24T08:49:23Z</time>
      </trkpt>
      <trkpt lat="48.50477" lon="2.00278">
        <ele>170.04</ele>
        <time>2019-11-24T08:49:28Z</time>
      </trkpt>
      <trkpt lat="48.50456" lon="2.00287">
        <ele>166.21</ele>
        <time>2019-11-24T08:49:33Z</time>
      </trkpt>
      <trkpt lat="48.50436" lon="2.00287">
        <ele>166.33</ele>
        <time>2019-11-24T08:49:37Z</time>
      </trkpt>
      <trkpt lat="48.50414" lon="2.00288">
        <ele>164.98</ele>
        <time>2019-11-24T08:49:41Z</time>
      </trkpt>
      <trkpt lat="48.50392" lon="2.00287">
        <ele>163.51</ele>
        <time>2019-11-24T08:49:45Z</time>
      </trkpt>
      <trkpt lat="48.50372" lon="2.00278">
        <ele>161</ele>
        <time>2019-11-24T08:49:50Z</time>
      </trkpt>
      <trkpt lat="48.50353" lon="2.00271">
        <ele>158.55</ele>
        <time>2019-11-24T08:49:55Z</time>
      </trkpt>
      <trkpt lat="48.50334" lon="2.00267">
        <ele>157.89</ele>
        <time>2019-11-24T08:50:01Z</time>
      </trkpt>
      <trkpt lat="48.50314" lon="2.00263">
        <ele>157.66</ele>
        <time>2019-11-24T08:50:10Z</time>
      </trkpt>
      <trkpt lat="48.50298" lon="2.00251">
        <ele>159.53</ele>
        <time>2019-11-24T08:50:22Z</time>
      </trkpt>
      <trkpt lat="48.50278" lon="2.00246">
        <ele>161.01</ele>
        <time>2019-11-24T08:50:32Z</time>
      </trkpt>
      <trkpt lat="48.50258" lon="2.00248">
        <ele>163.23</ele>
        <time>2019-11-24T08:50:39Z</time>
      </trkpt>
      <trkpt lat="48.5024" lon="2.00238">
        <ele>161.51</ele>
        <time>2019-11-24T08:50:46Z</time>
      </trkpt>
      <trkpt lat="48.50222" lon="2.00226">
        <ele>163.19</ele>
        <time>2019-11-24T08:50:52Z</time>
      </trkpt>
      <trkpt lat="48.50202" lon="2.00221">
        <ele>163.27</ele>
        <time>2019-11-24T08:51:00Z</time>
      </trkpt>
      <trkpt lat="48.50184" lon="2.00205">
        <ele>165.63</ele>
        <time>2019-11-24T08:51:06Z</time>
      </trkpt>
      <trkpt lat="48.50166" lon="2.00191">
        <ele>167.85</ele>
        <time>2019-11-24T08:51:12Z</time>
      </trkpt>
      <trkpt lat="48.50151" lon="2.00177">
        <ele>170.18</ele>
        <time>2019-11-24T08:51:18Z</time>
      </trkpt>
      <trkpt lat="48.50137" lon="2.00153">
        <ele>168.89</ele>
        <time>2019-11-24T08:51:25Z</time>
      </trkpt>
      <trkpt lat="48.5012" lon="2.00137">
        <ele>171.08</ele>
        <time>2019-11-24T08:51:31Z</time>
      </trkpt>
      <trkpt lat="48.50103" lon="2.00119">
        <ele>173.16</ele>
        <time>2019-11-24T08:51:37Z</time>
      </trkpt>
      <trkpt lat="48.50082" lon="2.00112">
        <ele>171.53</ele>
        <time>2019-11-24T08:51:42Z</time>
      </trkpt>
      <trkpt lat="48.50065" lon="2.00097">
        <ele>168.31</ele>
        <time>2019-11-24T08:51:47Z</time>
      </trkpt>
      <trkpt lat="48.50046" lon="2.00097">
        <ele>164.51</ele>
        <time>2019-11-24T08:51:54Z</time>
      </trkpt>
      <trkpt lat="48.5003" lon="2.00078">
        <ele>160.86</ele>
        <time>2019-11-24T08:52:01Z</time>
      </trkpt>
      <trkpt lat="48.50018" lon="2.00056">
        <ele>157.66</ele>
        <time>2019-11-24T08:52:07Z</time>
      </trkpt>
      <trkpt lat="48.50008" lon="2.00032">
        <ele>155.71</ele>
        <time>2019-11-24T08:52:14Z</time>
      </trkpt>
      <trkpt lat="48.49996" lon="2.00007">
        <ele>154.69</ele>
        <time>2019-11-24T08:52:22Z</time>
      </trkpt>
      <trkpt lat="48.49984" lon="1.99982">
        <ele>150.73</ele>
        <time>2019-11-24T08:52:31Z</time>
      </trkpt>
      <trkpt lat="48.49973" lon="1.99952">
        <ele>152.35</ele>
        <time>2019-11-24T08:52:35Z</time>
      </trkpt>
      <trkpt lat="48.49964" lon="1.99926">
        <ele>152.06</ele>
        <time>2019-11-24T08:52:39Z</time>
      </trkpt>
      <trkpt lat="48.49953" lon="1.99904">
        <ele>152.35</ele>
        <time>2019-11-24T08:52:43Z</time>
      </trkpt>
      <trkpt lat="48.49939" lon="1.99883">
        <ele>151.02</ele>
        <time>2019-11-24T08:52:50Z</time>
      </trkpt>
      <trkpt lat="48.49938" lon="1.99855">
        <ele>153.76</ele>
        <time>2019-11-24T08:53:06Z</time>
      </trkpt>
      <trkpt lat="48.49931" lon="1.99828">
        <ele>151.4</ele>
        <time>2019-11-24T08:53:32Z</time>
      </trkpt>
      <trkpt lat="48.49931" lon="1.998">
        <ele>150.96</ele>
        <time>2019-11-24T08:53:53Z</time>
      </trkpt>
      <trkpt lat="48.49925" lon="1.99773">
        <ele>162.58</ele>
        <time>2019-11-24T08:54:26Z</time>
      </trkpt>
      <trkpt lat="48.49931" lon="1.99742">
        <ele>161.52</ele>
        <time>2019-11-24T08:54:38Z</time>
      </trkpt>
      <trkpt lat="48.49945" lon="1.99725">
        <ele>163.02</ele>
        <time>2019-11-24T08:54:43Z</time>
      </trkpt>
      <trkpt lat="48.49968" lon="1.99699">
        <ele>157.43</ele>
        <time>2019-11-24T08:54:47Z</time>
      </trkpt>
      <trkpt lat="48.49986" lon="1.99682">
        <ele>146.6</ele>
        <time>2019-11-24T08:54:51Z</time>
      </trkpt>
      <trkpt lat="48.50004" lon="1.99663">
        <ele>143.62</ele>
        <time>2019-11-24T08:54:55Z</time>
      </trkpt>
      <trkpt lat="48.50023" lon="1.99648">
        <ele>141.35</ele>
        <time>2019-11-24T08:54:58Z</time>
      </trkpt>
      <trkpt lat="48.50042" lon="1.9963">
        <ele>141.71</ele>
        <time>2019-11-24T08:55:02Z</time>
      </trkpt>
      <trkpt lat="48.5006" lon="1.99617">
        <ele>143.32</ele>
        <time>2019-11-24T08:55:10Z</time>
      </trkpt>
      <trkpt lat="48.50076" lon="1.99602">
        <ele>142.55</ele>
        <time>2019-11-24T08:55:15Z</time>
      </trkpt>
      <trkpt lat="48.50094" lon="1.99584">
        <ele>135.64</ele>
        <time>2019-11-24T08:55:21Z</time>
      </trkpt>
      <trkpt lat="48.50117" lon="1.99569">
        <ele>136.77</ele>
        <time>2019-11-24T08:55:25Z</time>
      </trkpt>
      <trkpt lat="48.50133" lon="1.99554">
        <ele>137.66</ele>
        <time>2019-11-24T08:55:32Z</time>
      </trkpt>
      <trkpt lat="48.5015" lon="1.99545">
        <ele>137.94</ele>
        <time>2019-11-24T08:55:40Z</time>
      </trkpt>
      <trkpt lat="48.50168" lon="1.9953">
        <ele>141.67</ele>
        <time>2019-11-24T08:55:50Z</time>
      </trkpt>
      <trkpt lat="48.50185" lon="1.99517">
        <ele>146.09</ele>
        <time>2019-11-24T08:55:58Z</time>
      </trkpt>
      <trkpt lat="48.50201" lon="1.99503">
        <ele>144.64</ele>
        <time>2019-11-24T08:56:05Z</time>
      </trkpt>
      <trkpt lat="48.50219" lon="1.99494">
        <ele>143.97</ele>
        <time>2019-11-24T08:56:12Z</time>
      </trkpt>
      <trkpt lat="48.50232" lon="1.99472">
        <ele>146.39</ele>
        <time>2019-11-24T08:56:22Z</time>
      </trkpt>
      <trkpt lat="48.50246" lon="1.99454">
        <ele>132.32</ele>
        <time>2019-11-24T08:56:36Z</time>
      </trkpt>
      <trkpt lat="48.50253" lon="1.99426">
        <ele>129.54</ele>
        <time>2019-11-24T08:56:47Z</time>
      </trkpt>
      <trkpt lat="48.50249" lon="1.99399">
        <ele>132.37</ele>
        <time>2019-11-24T08:56:58Z</time>
      </trkpt>
      <trkpt lat="48.50239" lon="1.99373">
        <ele>135.93</ele>
        <time>2019-11-24T08:57:11Z</time>
      </trkpt>
      <trkpt lat="48.50225" lon="1.99354">
        <ele>141.66</ele>
        <time>2019-11-24T08:57:24Z</time>
      </trkpt>
      <trkpt lat="48.50217" lon="1.9933">
        <ele>146.03</ele>
        <time>2019-11-24T08:57:36Z</time>
      </trkpt>
      <trkpt lat="48.50205" lon="1.99308">
        <ele>145.94</ele>
        <time>2019-11-24T08:57:47Z</time>
      </trkpt>
      <trkpt lat="48.50198" lon="1.99283">
        <ele>142.79</ele>
        <time>2019-11-24T08:57:56Z</time>
      </trkpt>
      <trkpt lat="48.5018" lon="1.99275">
        <ele>139.61</ele>
        <time>2019-11-24T08:58:36Z</time>
      </trkpt>
      <trkpt lat="48.50162" lon="1.99293">
        <ele>143.18</ele>
        <time>2019-11-24T08:58:42Z</time>
      </trkpt>
      <trkpt lat="48.50136" lon="1.99324">
        <ele>142.42</ele>
        <time>2019-11-24T08:58:46Z</time>
      </trkpt>
      <trkpt lat="48.50124" lon="1.99345">
        <ele>138.27</ele>
        <time>2019-11-24T08:58:49Z</time>
      </trkpt>
      <trkpt lat="48.50106" lon="1.99355">
        <ele>138.75</ele>
        <time>2019-11-24T08:58:56Z</time>
      </trkpt>
      <trkpt lat="48.50086" lon="1.99362">
        <ele>139.19</ele>
        <time>2019-11-24T08:59:01Z</time>
      </trkpt>
      <trkpt lat="48.50063" lon="1.9936">
        <ele>139.81</ele>
        <time>2019-11-24T08:59:04Z</time>
      </trkpt>
      <trkpt lat="48.50039" lon="1.99367">
        <ele>137.89</ele>
        <time>2019-11-24T08:59:06Z</time>
      </trkpt>
      <trkpt lat="48.50016" lon="1.99362">
        <ele>136.06</ele>
        <time>2019-11-24T08:59:09Z</time>
      </trkpt>
      <trkpt lat="48.50001" lon="1.99343">
        <ele>134.17</ele>
        <time>2019-11-24T08:59:12Z</time>
      </trkpt>
      <trkpt lat="48.49981" lon="1.99337">
        <ele>131.46</ele>
        <time>2019-11-24T08:59:16Z</time>
      </trkpt>
      <trkpt lat="48.4996" lon="1.9933">
        <ele>130.97</ele>
        <time>2019-11-24T08:59:19Z</time>
      </trkpt>
      <trkpt lat="48.49947" lon="1.99309">
        <ele>133.18</ele>
        <time>2019-11-24T08:59:25Z</time>
      </trkpt>
      <trkpt lat="48.49928" lon="1.99308">
        <ele>136.43</ele>
        <time>2019-11-24T08:59:30Z</time>
      </trkpt>
      <trkpt lat="48.49911" lon="1.99296">
        <ele>139.72</ele>
        <time>2019-11-24T08:59:36Z</time>
      </trkpt>
      <trkpt lat="48.49894" lon="1.99284">
        <ele>142.72</ele>
        <time>2019-11-24T08:59:43Z</time>
      </trkpt>
      <trkpt lat="48.4988" lon="1.99262">
        <ele>143.44</ele>
        <time>2019-11-24T08:59:50Z</time>
      </trkpt>
      <trkpt lat="48.49867" lon="1.99243">
        <ele>141.41</ele>
        <time>2019-11-24T08:59:56Z</time>
      </trkpt>
      <trkpt lat="48.49849" lon="1.99232">
        <ele>141.57</ele>
        <time>2019-11-24T09:00:07Z</time>
      </trkpt>
      <trkpt lat="48.49837" lon="1.99212">
        <ele>142.96</ele>
        <time>2019-11-24T09:00:20Z</time>
      </trkpt>
      <trkpt lat="48.49817" lon="1.9921">
        <ele>146.95</ele>
        <time>2019-11-24T09:00:39Z</time>
      </trkpt>
      <trkpt lat="48.49799" lon="1.99204">
        <ele>144.03</ele>
        <time>2019-11-24T09:00:53Z</time>
      </trkpt>
      <trkpt lat="48.49781" lon="1.99199">
        <ele>155.74</ele>
        <time>2019-11-24T09:01:20Z</time>
      </trkpt>
      <trkpt lat="48.49762" lon="1.99202">
        <ele>157.57</ele>
        <time>2019-11-24T09:01:28Z</time>
      </trkpt>
      <trkpt lat="48.49745" lon="1.99211">
        <ele>156.85</ele>
        <time>2019-11-24T09:01:39Z</time>
      </trkpt>
      <trkpt lat="48.49726" lon="1.99214">
        <ele>153.07</ele>
        <time>2019-11-24T09:01:58Z</time>
      </trkpt>
      <trkpt lat="48.49707" lon="1.99206">
        <ele>160.45</ele>
        <time>2019-11-24T09:02:20Z</time>
      </trkpt>
      <trkpt lat="48.49688" lon="1.99203">
        <ele>159.45</ele>
        <time>2019-11-24T09:02:29Z</time>
      </trkpt>
      <trkpt lat="48.49671" lon="1.99193">
        <ele>158.36</ele>
        <time>2019-11-24T09:02:38Z</time>
      </trkpt>
      <trkpt lat="48.49653" lon="1.99199">
        <ele>158.32</ele>
        <time>2019-11-24T09:02:50Z</time>
      </trkpt>
      <trkpt lat="48.49637" lon="1.99214">
        <ele>162.5</ele>
        <time>2019-11-24T09:03:06Z</time>
      </trkpt>
      <trkpt lat="48.49618" lon="1.99216">
        <ele>160.63</ele>
        <time>2019-11-24T09:03:20Z</time>
      </trkpt>
      <trkpt lat="48.49611" lon="1.9919">
        <ele>162.35</ele>
        <time>2019-11-24T09:03:29Z</time>
      </trkpt>
      <trkpt lat="48.49611" lon="1.99162">
        <ele>162.85</ele>
        <time>2019-11-24T09:03:35Z</time>
      </trkpt>
      <trkpt lat="48.49603" lon="1.99133">
        <ele>163.68</ele>
        <time>2019-11-24T09:03:42Z</time>
      </trkpt>
      <trkpt lat="48.49607" lon="1.99104">
        <ele>165.49</ele>
        <time>2019-11-24T09:03:47Z</time>
      </trkpt>
      <trkpt lat="48.49609" lon="1.99072">
        <ele>163.23</ele>
        <time>2019-11-24T09:03:52Z</time>
      </trkpt>
      <trkpt lat="48.49612" lon="1.99043">
        <ele>162.48</ele>
        <time>2019-11-24T09:03:56Z</time>
      </trkpt>
      <trkpt lat="48.49616" lon="1.99017">
        <ele>164.1</ele>
        <time>2019-11-24T09:04:00Z</time>
      </trkpt>
      <trkpt lat="48.49623" lon="1.9899">
        <ele>162.39</ele>
        <time>2019-11-24T09:04:04Z</time>
      </trkpt>
      <trkpt lat="48.49634" lon="1.98965">
        <ele>160.4</ele>
        <time>2019-11-24T09:04:08Z</time>
      </trkpt>
      <trkpt lat="48.49648" lon="1.98942">
        <ele>158.25</ele>
        <time>2019-11-24T09:04:13Z</time>
      </trkpt>
      <trkpt lat="48.49667" lon="1.98923">
        <ele>156.93</ele>
        <time>2019-11-24T09:04:18Z</time>
      </trkpt>
      <trkpt lat="48.49678" lon="1.98901">
        <ele>158.02</ele>
        <time>2019-11-24T09:04:23Z</time>
      </trkpt>
      <trkpt lat="48.49677" lon="1.98867">
        <ele>153.43</ele>
        <time>2019-11-24T09:04:27Z</time>
      </trkpt>
      <trkpt lat="48.49668" lon="1.98838">
        <ele>151.71</ele>
        <time>2019-11-24T09:04:30Z</time>
      </trkpt>
      <trkpt lat="48.49669" lon="1.98808">
        <ele>146.98</ele>
        <time>2019-11-24T09:04:33Z</time>
      </trkpt>
      <trkpt lat="48.4967" lon="1.98777">
        <ele>143.51</ele>
        <time>2019-11-24T09:04:37Z</time>
      </trkpt>
      <trkpt lat="48.49672" lon="1.98748">
        <ele>139.93</ele>
        <time>2019-11-24T09:04:41Z</time>
      </trkpt>
      <trkpt lat="48.49659" lon="1.98729">
        <ele>141.3</ele>
        <time>2019-11-24T09:04:49Z</time>
      </trkpt>
      <trkpt lat="48.49639" lon="1.9872">
        <ele>141.71</ele>
        <time>2019-11-24T09:04:55Z</time>
      </trkpt>
      <trkpt lat="48.49621" lon="1.98708">
        <ele>146.05</ele>
        <time>2019-11-24T09:05:02Z</time>
      </trkpt>
      <trkpt lat="48.49604" lon="1.98698">
        <ele>147.58</ele>
        <time>2019-11-24T09:05:10Z</time>
      </trkpt>
      <trkpt lat="48.49584" lon="1.98687">
        <ele>154.7</ele>
        <time>2019-11-24T09:05:24Z</time>
      </trkpt>
      <trkpt lat="48.49568" lon="1.98676">
        <ele>154.3</ele>
        <time>2019-11-24T09:05:30Z</time>
      </trkpt>
      <trkpt lat="48.49555" lon="1.98654">
        <ele>147.98</ele>
        <time>2019-11-24T09:05:38Z</time>
      </trkpt>
      <trkpt lat="48.49559" lon="1.98626">
        <ele>150.65</ele>
        <time>2019-11-24T09:05:47Z</time>
      </trkpt>
      <trkpt lat="48.49576" lon="1.98604">
        <ele>148.7</ele>
        <time>2019-11-24T09:05:52Z</time>
      </trkpt>
      <trkpt lat="48.49615" lon="1.98564">
        <ele>144.62</ele>
        <time>2019-11-24T09:05:56Z</time>
      </trkpt>
      <trkpt lat="48.49631" lon="1.98545">
        <ele>143.01</ele>
        <time>2019-11-24T09:06:03Z</time>
      </trkpt>
      <trkpt lat="48.49647" lon="1.98532">
        <ele>143.39</ele>
        <time>2019-11-24T09:06:09Z</time>
      </trkpt>
      <trkpt lat="48.49663" lon="1.98517">
        <ele>140.51</ele>
        <time>2019-11-24T09:06:15Z</time>
      </trkpt>
      <trkpt lat="48.49678" lon="1.98498">
        <ele>144.61</ele>
        <time>2019-11-24T09:06:24Z</time>
      </trkpt>
      <trkpt lat="48.49696" lon="1.98486">
        <ele>145.33</ele>
        <time>2019-11-24T09:06:35Z</time>
      </trkpt>
      <trkpt lat="48.49709" lon="1.98466">
        <ele>148.25</ele>
        <time>2019-11-24T09:06:49Z</time>
      </trkpt>
      <trkpt lat="48.49724" lon="1.98453">
        <ele>151.55</ele>
        <time>2019-11-24T09:07:02Z</time>
      </trkpt>
      <trkpt lat="48.49736" lon="1.9843">
        <ele>155.11</ele>
        <time>2019-11-24T09:07:15Z</time>
      </trkpt>
      <trkpt lat="48.49753" lon="1.98421">
        <ele>152.33</ele>
        <time>2019-11-24T09:07:30Z</time>
      </trkpt>
      <trkpt lat="48.4977" lon="1.98409">
        <ele>158.95</ele>
        <time>2019-11-24T09:07:46Z</time>
      </trkpt>
      <trkpt lat="48.49786" lon="1.98394">
        <ele>160.61</ele>
        <time>2019-11-24T09:08:03Z</time>
      </trkpt>
      <trkpt lat="48.49803" lon="1.98385">
        <ele>162.96</ele>
        <time>2019-11-24T09:08:16Z</time>
      </trkpt>
      <trkpt lat="48.49818" lon="1.98369">
        <ele>165.54</ele>
        <time>2019-11-24T09:08:30Z</time>
      </trkpt>
      <trkpt lat="48.49836" lon="1.98358">
        <ele>172.1</ele>
        <time>2019-11-24T09:08:42Z</time>
      </trkpt>
      <trkpt lat="48.49855" lon="1.98351">
        <ele>172.04</ele>
        <time>2019-11-24T09:08:53Z</time>
      </trkpt>
      <trkpt lat="48.49875" lon="1.98339">
        <ele>171.67</ele>
        <time>2019-11-24T09:09:01Z</time>
      </trkpt>
      <trkpt lat="48.4989" lon="1.98324">
        <ele>174.2</ele>
        <time>2019-11-24T09:09:07Z</time>
      </trkpt>
      <trkpt lat="48.49907" lon="1.98313">
        <ele>176.2</ele>
        <time>2019-11-24T09:09:13Z</time>
      </trkpt>
      <trkpt lat="48.49925" lon="1.98306">
        <ele>177.37</ele>
        <time>2019-11-24T09:09:19Z</time>
      </trkpt>
      <trkpt lat="48.49945" lon="1.98297">
        <ele>176.19</ele>
        <time>2019-11-24T09:09:25Z</time>
      </trkpt>
      <trkpt lat="48.49963" lon="1.98291">
        <ele>171.24</ele>
        <time>2019-11-24T09:09:30Z</time>
      </trkpt>
      <trkpt lat="48.49981" lon="1.9828">
        <ele>167.86</ele>
        <time>2019-11-24T09:09:36Z</time>
      </trkpt>
      <trkpt lat="48.5" lon="1.98271">
        <ele>168.46</ele>
        <time>2019-11-24T09:09:43Z</time>
      </trkpt>
      <trkpt lat="48.50021" lon="1.98267">
        <ele>170.3</ele>
        <time>2019-11-24T09:09:49Z</time>
      </trkpt>
      <trkpt lat="48.5004" lon="1.98263">
        <ele>170.96</ele>
        <time>2019-11-24T09:09:53Z</time>
      </trkpt>
      <trkpt lat="48.50058" lon="1.98259">
        <ele>173.95</ele>
        <time>2019-11-24T09:09:57Z</time>
      </trkpt>
      <trkpt lat="48.50078" lon="1.98262">
        <ele>178.04</ele>
        <time>2019-11-24T09:10:02Z</time>
      </trkpt>
      <trkpt lat="48.50098" lon="1.98265">
        <ele>178.46</ele>
        <time>2019-11-24T09:10:07Z</time>
      </trkpt>
      <trkpt lat="48.50118" lon="1.98269">
        <ele>175.99</ele>
        <time>2019-11-24T09:10:12Z</time>
      </trkpt>
      <trkpt lat="48.50137" lon="1.98264">
        <ele>174.97</ele>
        <time>2019-11-24T09:10:18Z</time>
      </trkpt>
      <trkpt lat="48.50156" lon="1.98256">
        <ele>175.15</ele>
        <time>2019-11-24T09:10:25Z</time>
      </trkpt>
      <trkpt lat="48.50175" lon="1.98244">
        <ele>177.35</ele>
        <time>2019-11-24T09:10:34Z</time>
      </trkpt>
      <trkpt lat="48.50189" lon="1.98227">
        <ele>177</ele>
        <time>2019-11-24T09:10:39Z</time>
      </trkpt>
      <trkpt lat="48.50206" lon="1.98217">
        <ele>179.38</ele>
        <time>2019-11-24T09:10:44Z</time>
      </trkpt>
      <trkpt lat="48.50225" lon="1.98214">
        <ele>178.76</ele>
        <time>2019-11-24T09:10:50Z</time>
      </trkpt>
      <trkpt lat="48.50238" lon="1.98234">
        <ele>179.71</ele>
        <time>2019-11-24T09:10:57Z</time>
      </trkpt>
      <trkpt lat="48.50247" lon="1.9826">
        <ele>184.48</ele>
        <time>2019-11-24T09:11:03Z</time>
      </trkpt>
      <trkpt lat="48.5026" lon="1.98287">
        <ele>186.36</ele>
        <time>2019-11-24T09:11:08Z</time>
      </trkpt>
      <trkpt lat="48.50271" lon="1.9831">
        <ele>190.08</ele>
        <time>2019-11-24T09:11:14Z</time>
      </trkpt>
      <trkpt lat="48.50275" lon="1.98338">
        <ele>192.31</ele>
        <time>2019-11-24T09:11:20Z</time>
      </trkpt>
      <trkpt lat="48.50278" lon="1.98368">
        <ele>188.27</ele>
        <time>2019-11-24T09:11:25Z</time>
      </trkpt>
      <trkpt lat="48.50287" lon="1.98392">
        <ele>181.03</ele>
        <time>2019-11-24T09:11:31Z</time>
      </trkpt>
      <trkpt lat="48.50303" lon="1.98408">
        <ele>181.61</ele>
        <time>2019-11-24T09:11:38Z</time>
      </trkpt>
      <trkpt lat="48.50314" lon="1.98433">
        <ele>185.39</ele>
        <time>2019-11-24T09:11:44Z</time>
      </trkpt>
      <trkpt lat="48.50321" lon="1.9846">
        <ele>182.84</ele>
        <time>2019-11-24T09:11:51Z</time>
      </trkpt>
      <trkpt lat="48.50331" lon="1.98484">
        <ele>182.63</ele>
        <time>2019-11-24T09:11:57Z</time>
      </trkpt>
      <trkpt lat="48.50341" lon="1.98509">
        <ele>179.34</ele>
        <time>2019-11-24T09:12:03Z</time>
      </trkpt>
      <trkpt lat="48.50353" lon="1.98538">
        <ele>181.31</ele>
        <time>2019-11-24T09:12:09Z</time>
      </trkpt>
      <trkpt lat="48.50365" lon="1.98561">
        <ele>180.15</ele>
        <time>2019-11-24T09:12:14Z</time>
      </trkpt>
      <trkpt lat="48.50375" lon="1.98586">
        <ele>181.75</ele>
        <time>2019-11-24T09:12:21Z</time>
      </trkpt>
      <trkpt lat="48.50383" lon="1.98613">
        <ele>181.72</ele>
        <time>2019-11-24T09:12:27Z</time>
      </trkpt>
      <trkpt lat="48.50389" lon="1.9864">
        <ele>182.99</ele>
        <time>2019-11-24T09:12:32Z</time>
      </trkpt>
      <trkpt lat="48.50398" lon="1.98665">
        <ele>184.37</ele>
        <time>2019-11-24T09:12:37Z</time>
      </trkpt>
      <trkpt lat="48.5041" lon="1.98693">
        <ele>182.92</ele>
        <time>2019-11-24T09:12:43Z</time>
      </trkpt>
      <trkpt lat="48.5042" lon="1.98719">
        <ele>182.53</ele>
        <time>2019-11-24T09:12:47Z</time>
      </trkpt>
      <trkpt lat="48.50429" lon="1.98751">
        <ele>179.69</ele>
        <time>2019-11-24T09:12:53Z</time>
      </trkpt>
      <trkpt lat="48.5044" lon="1.98776">
        <ele>178.34</ele>
        <time>2019-11-24T09:12:57Z</time>
      </trkpt>
      <trkpt lat="48.50451" lon="1.988">
        <ele>180.96</ele>
        <time>2019-11-24T09:13:01Z</time>
      </trkpt>
      <trkpt lat="48.50465" lon="1.98824">
        <ele>180.95</ele>
        <time>2019-11-24T09:13:08Z</time>
      </trkpt>
      <trkpt lat="48.50483" lon="1.98832">
        <ele>178.24</ele>
        <time>2019-11-24T09:13:14Z</time>
      </trkpt>
      <trkpt lat="48.50502" lon="1.9884">
        <ele>176.19</ele>
        <time>2019-11-24T09:13:19Z</time>
      </trkpt>
      <trkpt lat="48.50521" lon="1.98852">
        <ele>173.07</ele>
        <time>2019-11-24T09:13:23Z</time>
      </trkpt>
      <trkpt lat="48.50539" lon="1.98857">
        <ele>167.5</ele>
        <time>2019-11-24T09:13:27Z</time>
      </trkpt>
      <trkpt lat="48.50559" lon="1.9886">
        <ele>169.44</ele>
        <time>2019-11-24T09:13:34Z</time>
      </trkpt>
      <trkpt lat="48.50579" lon="1.98875">
        <ele>169.47</ele>
        <time>2019-11-24T09:13:39Z</time>
      </trkpt>
      <trkpt lat="48.50595" lon="1.98894">
        <ele>165.96</ele>
        <time>2019-11-24T09:13:42Z</time>
      </trkpt>
      <trkpt lat="48.50615" lon="1.98903">
        <ele>161.49</ele>
        <time>2019-11-24T09:13:46Z</time>
      </trkpt>
      <trkpt lat="48.50634" lon="1.98904">
        <ele>157.44</ele>
        <time>2019-11-24T09:13:49Z</time>
      </trkpt>
      <trkpt lat="48.50656" lon="1.98913">
        <ele>155.86</ele>
        <time>2019-11-24T09:13:53Z</time>
      </trkpt>
      <trkpt lat="48.50675" lon="1.98919">
        <ele>153.01</ele>
        <time>2019-11-24T09:13:56Z</time>
      </trkpt>
      <trkpt lat="48.50687" lon="1.98939">
        <ele>155.42</ele>
        <time>2019-11-24T09:14:00Z</time>
      </trkpt>
      <trkpt lat="48.50702" lon="1.98957">
        <ele>150.86</ele>
        <time>2019-11-24T09:14:05Z</time>
      </trkpt>
      <trkpt lat="48.50708" lon="1.98984">
        <ele>148.5</ele>
        <time>2019-11-24T09:14:08Z</time>
      </trkpt>
      <trkpt lat="48.50718" lon="1.99012">
        <ele>147.41</ele>
        <time>2019-11-24T09:14:12Z</time>
      </trkpt>
      <trkpt lat="48.50726" lon="1.99037">
        <ele>150.04</ele>
        <time>2019-11-24T09:14:17Z</time>
      </trkpt>
      <trkpt lat="48.50739" lon="1.99071">
        <ele>150.71</ele>
        <time>2019-11-24T09:14:20Z</time>
      </trkpt>
      <trkpt lat="48.50749" lon="1.99094">
        <ele>150.85</ele>
        <time>2019-11-24T09:14:23Z</time>
      </trkpt>
      <trkpt lat="48.5076" lon="1.99119">
        <ele>153.32</ele>
        <time>2019-11-24T09:14:28Z</time>
      </trkpt>
      <trkpt lat="48.50778" lon="1.99127">
        <ele>141.75</ele>
        <time>2019-11-24T09:14:36Z</time>
      </trkpt>
      <trkpt lat="48.50796" lon="1.99134">
        <ele>142.93</ele>
        <time>2019-11-24T09:14:49Z</time>
      </trkpt>
      <trkpt lat="48.50817" lon="1.99136">
        <ele>147.51</ele>
        <time>2019-11-24T09:15:04Z</time>
      </trkpt>
      <trkpt lat="48.50835" lon="1.99146">
        <ele>155.17</ele>
        <time>2019-11-24T09:15:13Z</time>
      </trkpt>
      <trkpt lat="48.50854" lon="1.99155">
        <ele>163.03</ele>
        <time>2019-11-24T09:15:20Z</time>
      </trkpt>
      <trkpt lat="48.50876" lon="1.99164">
        <ele>164.38</ele>
        <time>2019-11-24T09:15:25Z</time>
      </trkpt>
      <trkpt lat="48.50894" lon="1.99168">
        <ele>168.35</ele>
        <time>2019-11-24T09:15:30Z</time>
      </trkpt>
      <trkpt lat="48.50912" lon="1.99175">
        <ele>168.29</ele>
        <time>2019-11-24T09:15:35Z</time>
      </trkpt>
      <trkpt lat="48.50933" lon="1.9919">
        <ele>167.65</ele>
        <time>2019-11-24T09:15:40Z</time>
      </trkpt>
      <trkpt lat="48.50952" lon="1.99196">
        <ele>165.7</ele>
        <time>2019-11-24T09:15:45Z</time>
      </trkpt>
      <trkpt lat="48.50973" lon="1.99203">
        <ele>162.18</ele>
        <time>2019-11-24T09:15:51Z</time>
      </trkpt>
      <trkpt lat="48.50993" lon="1.99212">
        <ele>159.27</ele>
        <time>2019-11-24T09:15:58Z</time>
      </trkpt>
      <trkpt lat="48.51009" lon="1.99228">
        <ele>155.29</ele>
        <time>2019-11-24T09:16:02Z</time>
      </trkpt>
      <trkpt lat="48.51028" lon="1.99244">
        <ele>149.48</ele>
        <time>2019-11-24T09:16:07Z</time>
      </trkpt>
      <trkpt lat="48.51046" lon="1.99263">
        <ele>147.52</ele>
        <time>2019-11-24T09:16:12Z</time>
      </trkpt>
      <trkpt lat="48.51061" lon="1.99278">
        <ele>150.12</ele>
        <time>2019-11-24T09:16:15Z</time>
      </trkpt>
      <trkpt lat="48.51075" lon="1.99298">
        <ele>145.18</ele>
        <time>2019-11-24T09:16:24Z</time>
      </trkpt>
      <trkpt lat="48.51091" lon="1.99281">
        <ele>139.65</ele>
        <time>2019-11-24T09:16:31Z</time>
      </trkpt>
      <trkpt lat="48.51107" lon="1.99266">
        <ele>153.12</ele>
        <time>2019-11-24T09:16:38Z</time>
      </trkpt>
      <trkpt lat="48.51123" lon="1.99225">
        <ele>153.12</ele>
        <time>2019-11-24T09:16:45Z</time>
      </trkpt>
      <trkpt lat="48.51135" lon="1.992">
        <ele>148.38</ele>
        <time>2019-11-24T09:16:49Z</time>
      </trkpt>
      <trkpt lat="48.51145" lon="1.99175">
        <ele>151.75</ele>
        <time>2019-11-24T09:16:56Z</time>
      </trkpt>
      <trkpt lat="48.51154" lon="1.9915">
        <ele>151.77</ele>
        <time>2019-11-24T09:17:02Z</time>
      </trkpt>
      <trkpt lat="48.51166" lon="1.99125">
        <ele>152.65</ele>
        <time>2019-11-24T09:17:09Z</time>
      </trkpt>
      <trkpt lat="48.51177" lon="1.99101">
        <ele>148.3</ele>
        <time>2019-11-24T09:17:17Z</time>
      </trkpt>
      <trkpt lat="48.5119" lon="1.99081">
        <ele>147.58</ele>
        <time>2019-11-24T09:17:25Z</time>
      </trkpt>
      <trkpt lat="48.51202" lon="1.99058">
        <ele>151.06</ele>
        <time>2019-11-24T09:17:36Z</time>
      </trkpt>
      <trkpt lat="48.51208" lon="1.9903">
        <ele>158.16</ele>
        <time>2019-11-24T09:17:49Z</time>
      </trkpt>
      <trkpt lat="48.51217" lon="1.99006">
        <ele>161.6</ele>
        <time>2019-11-24T09:18:00Z</time>
      </trkpt>
      <trkpt lat="48.51231" lon="1.98988">
        <ele>159.34</ele>
        <time>2019-11-24T09:18:10Z</time>
      </trkpt>
      <trkpt lat="48.51243" lon="1.98966">
        <ele>162.27</ele>
        <time>2019-11-24T09:18:20Z</time>
      </trkpt>
      <trkpt lat="48.51253" lon="1.98941">
        <ele>175.94</ele>
        <time>2019-11-24T09:18:31Z</time>
      </trkpt>
      <trkpt lat="48.51266" lon="1.98917">
        <ele>175.95</ele>
        <time>2019-11-24T09:18:41Z</time>
      </trkpt>
      <trkpt lat="48.51277" lon="1.98892">
        <ele>171.51</ele>
        <time>2019-11-24T09:18:48Z</time>
      </trkpt>
      <trkpt lat="48.51291" lon="1.98859">
        <ele>167.59</ele>
        <time>2019-11-24T09:18:52Z</time>
      </trkpt>
      <trkpt lat="48.51313" lon="1.98821">
        <ele>165.32</ele>
        <time>2019-11-24T09:18:53Z</time>
      </trkpt>
      <trkpt lat="48.51325" lon="1.98793">
        <ele>160.4</ele>
        <time>2019-11-24T09:18:58Z</time>
      </trkpt>
      <trkpt lat="48.51335" lon="1.98767">
        <ele>163.67</ele>
        <time>2019-11-24T09:19:07Z</time>
      </trkpt>
      <trkpt lat="48.51346" lon="1.98742">
        <ele>158.24</ele>
        <time>2019-11-24T09:19:13Z</time>
      </trkpt>
      <trkpt lat="48.51361" lon="1.98721">
        <ele>141.91</ele>
        <time>2019-11-24T09:19:19Z</time>
      </trkpt>
      <trkpt lat="48.51375" lon="1.987">
        <ele>140.9</ele>
        <time>2019-11-24T09:19:24Z</time>
      </trkpt>
      <trkpt lat="48.51385" lon="1.98678">
        <ele>139.91</ele>
        <time>2019-11-24T09:19:28Z</time>
      </trkpt>
      <trkpt lat="48.51396" lon="1.98653">
        <ele>136.69</ele>
        <time>2019-11-24T09:19:32Z</time>
      </trkpt>
      <trkpt lat="48.51407" lon="1.98628">
        <ele>133.99</ele>
        <time>2019-11-24T09:19:35Z</time>
      </trkpt>
      <trkpt lat="48.5142" lon="1.986">
        <ele>132.06</ele>
        <time>2019-11-24T09:19:38Z</time>
      </trkpt>
      <trkpt lat="48.51432" lon="1.98572">
        <ele>130.27</ele>
        <time>2019-11-24T09:19:42Z</time>
      </trkpt>
      <trkpt lat="48.51444" lon="1.98553">
        <ele>129.41</ele>
        <time>2019-11-24T09:19:51Z</time>
      </trkpt>
      <trkpt lat="48.51463" lon="1.98567">
        <ele>123.59</ele>
        <time>2019-11-24T09:19:58Z</time>
      </trkpt>
      <trkpt lat="48.51482" lon="1.98602">
        <ele>122.64</ele>
        <time>2019-11-24T09:20:03Z</time>
      </trkpt>
      <trkpt lat="48.51492" lon="1.98626">
        <ele>120.11</ele>
        <time>2019-11-24T09:20:06Z</time>
      </trkpt>
      <trkpt lat="48.51502" lon="1.98648">
        <ele>118.38</ele>
        <time>2019-11-24T09:20:11Z</time>
      </trkpt>
      <trkpt lat="48.51513" lon="1.98673">
        <ele>117.29</ele>
        <time>2019-11-24T09:20:15Z</time>
      </trkpt>
      <trkpt lat="48.51524" lon="1.98695">
        <ele>116.88</ele>
        <time>2019-11-24T09:20:18Z</time>
      </trkpt>
      <trkpt lat="48.51535" lon="1.98719">
        <ele>117.55</ele>
        <time>2019-11-24T09:20:22Z</time>
      </trkpt>
      <trkpt lat="48.51546" lon="1.98744">
        <ele>114.58</ele>
        <time>2019-11-24T09:20:28Z</time>
      </trkpt>
      <trkpt lat="48.51557" lon="1.9877">
        <ele>113.73</ele>
        <time>2019-11-24T09:20:32Z</time>
      </trkpt>
      <trkpt lat="48.51571" lon="1.98797">
        <ele>112.86</ele>
        <time>2019-11-24T09:20:35Z</time>
      </trkpt>
      <trkpt lat="48.51583" lon="1.9882">
        <ele>112.38</ele>
        <time>2019-11-24T09:20:38Z</time>
      </trkpt>
      <trkpt lat="48.51596" lon="1.98847">
        <ele>111.98</ele>
        <time>2019-11-24T09:20:42Z</time>
      </trkpt>
      <trkpt lat="48.51608" lon="1.98873">
        <ele>112.46</ele>
        <time>2019-11-24T09:20:46Z</time>
      </trkpt>
      <trkpt lat="48.51619" lon="1.98898">
        <ele>112.12</ele>
        <time>2019-11-24T09:20:50Z</time>
      </trkpt>
      <trkpt lat="48.5163" lon="1.98924">
        <ele>114.03</ele>
        <time>2019-11-24T09:20:55Z</time>
      </trkpt>
      <trkpt lat="48.51644" lon="1.98949">
        <ele>114.24</ele>
        <time>2019-11-24T09:21:02Z</time>
      </trkpt>
      <trkpt lat="48.51657" lon="1.98975">
        <ele>117.31</ele>
        <time>2019-11-24T09:21:07Z</time>
      </trkpt>
      <trkpt lat="48.51668" lon="1.98999">
        <ele>120.62</ele>
        <time>2019-11-24T09:21:12Z</time>
      </trkpt>
      <trkpt lat="48.51681" lon="1.99025">
        <ele>125.16</ele>
        <time>2019-11-24T09:21:18Z</time>
      </trkpt>
      <trkpt lat="48.51692" lon="1.99047">
        <ele>129.31</ele>
        <time>2019-11-24T09:21:22Z</time>
      </trkpt>
      <trkpt lat="48.51702" lon="1.99073">
        <ele>132.62</ele>
        <time>2019-11-24T09:21:29Z</time>
      </trkpt>
      <trkpt lat="48.51713" lon="1.99098">
        <ele>135.02</ele>
        <time>2019-11-24T09:21:36Z</time>
      </trkpt>
      <trkpt lat="48.51725" lon="1.99119">
        <ele>132.67</ele>
        <time>2019-11-24T09:21:43Z</time>
      </trkpt>
      <trkpt lat="48.51737" lon="1.99143">
        <ele>130.92</ele>
        <time>2019-11-24T09:21:49Z</time>
      </trkpt>
      <trkpt lat="48.51749" lon="1.99166">
        <ele>133.33</ele>
        <time>2019-11-24T09:21:54Z</time>
      </trkpt>
      <trkpt lat="48.51758" lon="1.9914">
        <ele>122</ele>
        <time>2019-11-24T09:22:08Z</time>
      </trkpt>
      <trkpt lat="48.51751" lon="1.99115">
        <ele>120.09</ele>
        <time>2019-11-24T09:22:17Z</time>
      </trkpt>
      <trkpt lat="48.51748" lon="1.99087">
        <ele>126.29</ele>
        <time>2019-11-24T09:22:24Z</time>
      </trkpt>
      <trkpt lat="48.51744" lon="1.99059">
        <ele>127.82</ele>
        <time>2019-11-24T09:22:31Z</time>
      </trkpt>
      <trkpt lat="48.51739" lon="1.99031">
        <ele>131.06</ele>
        <time>2019-11-24T09:22:38Z</time>
      </trkpt>
      <trkpt lat="48.51732" lon="1.99004">
        <ele>133.11</ele>
        <time>2019-11-24T09:22:44Z</time>
      </trkpt>
      <trkpt lat="48.51729" lon="1.98976">
        <ele>134.59</ele>
        <time>2019-11-24T09:22:51Z</time>
      </trkpt>
      <trkpt lat="48.51723" lon="1.98948">
        <ele>132.63</ele>
        <time>2019-11-24T09:22:59Z</time>
      </trkpt>
      <trkpt lat="48.51718" lon="1.98921">
        <ele>130.86</ele>
        <time>2019-11-24T09:23:04Z</time>
      </trkpt>
      <trkpt lat="48.5171" lon="1.9889">
        <ele>126.92</ele>
        <time>2019-11-24T09:23:09Z</time>
      </trkpt>
      <trkpt lat="48.51708" lon="1.98859">
        <ele>125.4</ele>
        <time>2019-11-24T09:23:13Z</time>
      </trkpt>
      <trkpt lat="48.51697" lon="1.9883">
        <ele>127.62</ele>
        <time>2019-11-24T09:23:18Z</time>
      </trkpt>
      <trkpt lat="48.51687" lon="1.98803">
        <ele>128.9</ele>
        <time>2019-11-24T09:23:22Z</time>
      </trkpt>
      <trkpt lat="48.51676" lon="1.98775">
        <ele>128.27</ele>
        <time>2019-11-24T09:23:26Z</time>
      </trkpt>
      <trkpt lat="48.51666" lon="1.9875">
        <ele>127.99</ele>
        <time>2019-11-24T09:23:30Z</time>
      </trkpt>
      <trkpt lat="48.51655" lon="1.98725">
        <ele>128.58</ele>
        <time>2019-11-24T09:23:35Z</time>
      </trkpt>
      <trkpt lat="48.51648" lon="1.98696">
        <ele>127.14</ele>
        <time>2019-11-24T09:23:39Z</time>
      </trkpt>
      <trkpt lat="48.51637" lon="1.9867">
        <ele>128.56</ele>
        <time>2019-11-24T09:23:43Z</time>
      </trkpt>
      <trkpt lat="48.51628" lon="1.98638">
        <ele>127.27</ele>
        <time>2019-11-24T09:23:48Z</time>
      </trkpt>
      <trkpt lat="48.51626" lon="1.98606">
        <ele>124.54</ele>
        <time>2019-11-24T09:23:52Z</time>
      </trkpt>
      <trkpt lat="48.51631" lon="1.98578">
        <ele>122.06</ele>
        <time>2019-11-24T09:23:55Z</time>
      </trkpt>
      <trkpt lat="48.51635" lon="1.98548">
        <ele>121.48</ele>
        <time>2019-11-24T09:23:56Z</time>
      </trkpt>
      <trkpt lat="48.51644" lon="1.98513">
        <ele>117.72</ele>
        <time>2019-11-24T09:23:58Z</time>
      </trkpt>
      <trkpt lat="48.5165" lon="1.98487">
        <ele>116.68</ele>
        <time>2019-11-24T09:24:01Z</time>
      </trkpt>
      <trkpt lat="48.51652" lon="1.98453">
        <ele>118.92</ele>
        <time>2019-11-24T09:24:05Z</time>
      </trkpt>
      <trkpt lat="48.51646" lon="1.98427">
        <ele>118.94</ele>
        <time>2019-11-24T09:24:09Z</time>
      </trkpt>
      <trkpt lat="48.51639" lon="1.98402">
        <ele>121.5</ele>
        <time>2019-11-24T09:24:14Z</time>
      </trkpt>
      <trkpt lat="48.51641" lon="1.98374">
        <ele>124.37</ele>
        <time>2019-11-24T09:24:21Z</time>
      </trkpt>
      <trkpt lat="48.51645" lon="1.98346">
        <ele>130.63</ele>
        <time>2019-11-24T09:24:28Z</time>
      </trkpt>
      <trkpt lat="48.51649" lon="1.98319">
        <ele>131.69</ele>
        <time>2019-11-24T09:24:33Z</time>
      </trkpt>
      <trkpt lat="48.51646" lon="1.9829">
        <ele>128.69</ele>
        <time>2019-11-24T09:24:39Z</time>
      </trkpt>
      <trkpt lat="48.5163" lon="1.98272">
        <ele>128.27</ele>
        <time>2019-11-24T09:24:44Z</time>
      </trkpt>
      <trkpt lat="48.51615" lon="1.98253">
        <ele>128.63</ele>
        <time>2019-11-24T09:24:48Z</time>
      </trkpt>
      <trkpt lat="48.51604" lon="1.98226">
        <ele>127.03</ele>
        <time>2019-11-24T09:24:52Z</time>
      </trkpt>
      <trkpt lat="48.5159" lon="1.98205">
        <ele>124.35</ele>
        <time>2019-11-24T09:24:56Z</time>
      </trkpt>
      <trkpt lat="48.51582" lon="1.98179">
        <ele>123.25</ele>
        <time>2019-11-24T09:25:01Z</time>
      </trkpt>
      <trkpt lat="48.51575" lon="1.9815">
        <ele>122.49</ele>
        <time>2019-11-24T09:25:06Z</time>
      </trkpt>
      <trkpt lat="48.51573" lon="1.9812">
        <ele>122.01</ele>
        <time>2019-11-24T09:25:11Z</time>
      </trkpt>
      <trkpt lat="48.51573" lon="1.98091">
        <ele>123.17</ele>
        <time>2019-11-24T09:25:16Z</time>
      </trkpt>
      <trkpt lat="48.51579" lon="1.98065">
        <ele>128.72</ele>
        <time>2019-11-24T09:25:23Z</time>
      </trkpt>
      <trkpt lat="48.51597" lon="1.98049">
        <ele>132.2</ele>
        <time>2019-11-24T09:25:29Z</time>
      </trkpt>
      <trkpt lat="48.51613" lon="1.98034">
        <ele>133.34</ele>
        <time>2019-11-24T09:25:35Z</time>
      </trkpt>
      <trkpt lat="48.51624" lon="1.98012">
        <ele>135.6</ele>
        <time>2019-11-24T09:25:40Z</time>
      </trkpt>
      <trkpt lat="48.51628" lon="1.97982">
        <ele>137.26</ele>
        <time>2019-11-24T09:25:45Z</time>
      </trkpt>
      <trkpt lat="48.51628" lon="1.97955">
        <ele>140.16</ele>
        <time>2019-11-24T09:25:50Z</time>
      </trkpt>
      <trkpt lat="48.51627" lon="1.97924">
        <ele>141.08</ele>
        <time>2019-11-24T09:25:56Z</time>
      </trkpt>
      <trkpt lat="48.51628" lon="1.97893">
        <ele>142.92</ele>
        <time>2019-11-24T09:26:03Z</time>
      </trkpt>
      <trkpt lat="48.51632" lon="1.97862">
        <ele>147.13</ele>
        <time>2019-11-24T09:26:09Z</time>
      </trkpt>
      <trkpt lat="48.51626" lon="1.97833">
        <ele>146.07</ele>
        <time>2019-11-24T09:26:15Z</time>
      </trkpt>
      <trkpt lat="48.51613" lon="1.9781">
        <ele>145.8</ele>
        <time>2019-11-24T09:26:21Z</time>
      </trkpt>
      <trkpt lat="48.51608" lon="1.97781">
        <ele>143.83</ele>
        <time>2019-11-24T09:26:26Z</time>
      </trkpt>
      <trkpt lat="48.51604" lon="1.97754">
        <ele>145.29</ele>
        <time>2019-11-24T09:26:31Z</time>
      </trkpt>
      <trkpt lat="48.516" lon="1.97725">
        <ele>143.1</ele>
        <time>2019-11-24T09:26:36Z</time>
      </trkpt>
      <trkpt lat="48.51595" lon="1.97696">
        <ele>136.95</ele>
        <time>2019-11-24T09:26:42Z</time>
      </trkpt>
      <trkpt lat="48.51593" lon="1.97666">
        <ele>134.76</ele>
        <time>2019-11-24T09:26:49Z</time>
      </trkpt>
      <trkpt lat="48.5159" lon="1.97637">
        <ele>140.22</ele>
        <time>2019-11-24T09:26:56Z</time>
      </trkpt>
      <trkpt lat="48.51589" lon="1.9761">
        <ele>142.86</ele>
        <time>2019-11-24T09:27:06Z</time>
      </trkpt>
      <trkpt lat="48.51579" lon="1.97586">
        <ele>142.53</ele>
        <time>2019-11-24T09:27:15Z</time>
      </trkpt>
      <trkpt lat="48.5157" lon="1.9756">
        <ele>140.45</ele>
        <time>2019-11-24T09:27:22Z</time>
      </trkpt>
      <trkpt lat="48.51569" lon="1.97532">
        <ele>138.64</ele>
        <time>2019-11-24T09:27:30Z</time>
      </trkpt>
      <trkpt lat="48.51566" lon="1.97502">
        <ele>133.46</ele>
        <time>2019-11-24T09:27:40Z</time>
      </trkpt>
      <trkpt lat="48.51563" lon="1.97473">
        <ele>133.84</ele>
        <time>2019-11-24T09:27:49Z</time>
      </trkpt>
      <trkpt lat="48.51559" lon="1.97443">
        <ele>131.97</ele>
        <time>2019-11-24T09:27:56Z</time>
      </trkpt>
      <trkpt lat="48.51561" lon="1.97411">
        <ele>132.86</ele>
        <time>2019-11-24T09:28:02Z</time>
      </trkpt>
      <trkpt lat="48.51566" lon="1.97384">
        <ele>135.25</ele>
        <time>2019-11-24T09:28:06Z</time>
      </trkpt>
      <trkpt lat="48.51572" lon="1.97358">
        <ele>135.48</ele>
        <time>2019-11-24T09:28:11Z</time>
      </trkpt>
      <trkpt lat="48.5157" lon="1.97328">
        <ele>135.64</ele>
        <time>2019-11-24T09:28:18Z</time>
      </trkpt>
      <trkpt lat="48.51561" lon="1.973">
        <ele>135.18</ele>
        <time>2019-11-24T09:28:25Z</time>
      </trkpt>
      <trkpt lat="48.51549" lon="1.97276">
        <ele>136.71</ele>
        <time>2019-11-24T09:28:33Z</time>
      </trkpt>
      <trkpt lat="48.51539" lon="1.97252">
        <ele>137.71</ele>
        <time>2019-11-24T09:28:39Z</time>
      </trkpt>
      <trkpt lat="48.51531" lon="1.97224">
        <ele>137.48</ele>
        <time>2019-11-24T09:28:46Z</time>
      </trkpt>
      <trkpt lat="48.51519" lon="1.97201">
        <ele>140.86</ele>
        <time>2019-11-24T09:28:53Z</time>
      </trkpt>
      <trkpt lat="48.51507" lon="1.97176">
        <ele>135.37</ele>
        <time>2019-11-24T09:29:01Z</time>
      </trkpt>
      <trkpt lat="48.51495" lon="1.97151">
        <ele>134.27</ele>
        <time>2019-11-24T09:29:10Z</time>
      </trkpt>
      <trkpt lat="48.51482" lon="1.97129">
        <ele>134.08</ele>
        <time>2019-11-24T09:29:16Z</time>
      </trkpt>
      <trkpt lat="48.5147" lon="1.97105">
        <ele>137.93</ele>
        <time>2019-11-24T09:29:24Z</time>
      </trkpt>
      <trkpt lat="48.51468" lon="1.97074">
        <ele>139.34</ele>
        <time>2019-11-24T09:29:30Z</time>
      </trkpt>
      <trkpt lat="48.51459" lon="1.97047">
        <ele>138.98</ele>
        <time>2019-11-24T09:29:37Z</time>
      </trkpt>
      <trkpt lat="48.51452" lon="1.97019">
        <ele>138.25</ele>
        <time>2019-11-24T09:29:44Z</time>
      </trkpt>
      <trkpt lat="48.51456" lon="1.96988">
        <ele>141.1</ele>
        <time>2019-11-24T09:29:53Z</time>
      </trkpt>
      <trkpt lat="48.51463" lon="1.96959">
        <ele>143.09</ele>
        <time>2019-11-24T09:30:00Z</time>
      </trkpt>
      <trkpt lat="48.5147" lon="1.96932">
        <ele>145.53</ele>
        <time>2019-11-24T09:30:06Z</time>
      </trkpt>
      <trkpt lat="48.51476" lon="1.96906">
        <ele>144.74</ele>
        <time>2019-11-24T09:30:12Z</time>
      </trkpt>
      <trkpt lat="48.5149" lon="1.96887">
        <ele>150.14</ele>
        <time>2019-11-24T09:30:21Z</time>
      </trkpt>
      <trkpt lat="48.51501" lon="1.96866">
        <ele>152.63</ele>
        <time>2019-11-24T09:30:30Z</time>
      </trkpt>
      <trkpt lat="48.51514" lon="1.96845">
        <ele>151.97</ele>
        <time>2019-11-24T09:30:40Z</time>
      </trkpt>
      <trkpt lat="48.51529" lon="1.96826">
        <ele>158.14</ele>
        <time>2019-11-24T09:30:51Z</time>
      </trkpt>
      <trkpt lat="48.51545" lon="1.96809">
        <ele>157.54</ele>
        <time>2019-11-24T09:31:00Z</time>
      </trkpt>
      <trkpt lat="48.51562" lon="1.96797">
        <ele>158.69</ele>
        <time>2019-11-24T09:31:15Z</time>
      </trkpt>
      <trkpt lat="48.5158" lon="1.96795">
        <ele>158.07</ele>
        <time>2019-11-24T09:31:26Z</time>
      </trkpt>
      <trkpt lat="48.51599" lon="1.96791">
        <ele>162.09</ele>
        <time>2019-11-24T09:31:38Z</time>
      </trkpt>
      <trkpt lat="48.51617" lon="1.96783">
        <ele>165.74</ele>
        <time>2019-11-24T09:31:56Z</time>
      </trkpt>
      <trkpt lat="48.51635" lon="1.96786">
        <ele>166.13</ele>
        <time>2019-11-24T09:32:09Z</time>
      </trkpt>
      <trkpt lat="48.51654" lon="1.96784">
        <ele>164.16</ele>
        <time>2019-11-24T09:32:18Z</time>
      </trkpt>
      <trkpt lat="48.51673" lon="1.9679">
        <ele>166.26</ele>
        <time>2019-11-24T09:32:27Z</time>
      </trkpt>
      <trkpt lat="48.51686" lon="1.9681">
        <ele>168.85</ele>
        <time>2019-11-24T09:32:37Z</time>
      </trkpt>
      <trkpt lat="48.51699" lon="1.96829">
        <ele>169.26</ele>
        <time>2019-11-24T09:32:43Z</time>
      </trkpt>
      <trkpt lat="48.51715" lon="1.96848">
        <ele>171.59</ele>
        <time>2019-11-24T09:32:50Z</time>
      </trkpt>
      <trkpt lat="48.51728" lon="1.96869">
        <ele>173.32</ele>
        <time>2019-11-24T09:32:57Z</time>
      </trkpt>
      <trkpt lat="48.51743" lon="1.9689">
        <ele>169.46</ele>
        <time>2019-11-24T09:33:04Z</time>
      </trkpt>
      <trkpt lat="48.51754" lon="1.96912">
        <ele>169.32</ele>
        <time>2019-11-24T09:33:10Z</time>
      </trkpt>
      <trkpt lat="48.51766" lon="1.96933">
        <ele>168.16</ele>
        <time>2019-11-24T09:33:16Z</time>
      </trkpt>
      <trkpt lat="48.51778" lon="1.96957">
        <ele>167.77</ele>
        <time>2019-11-24T09:33:22Z</time>
      </trkpt>
      <trkpt lat="48.5179" lon="1.96981">
        <ele>169.76</ele>
        <time>2019-11-24T09:33:29Z</time>
      </trkpt>
      <trkpt lat="48.51801" lon="1.97004">
        <ele>168.89</ele>
        <time>2019-11-24T09:33:36Z</time>
      </trkpt>
      <trkpt lat="48.5181" lon="1.97029">
        <ele>172.17</ele>
        <time>2019-11-24T09:33:43Z</time>
      </trkpt>
      <trkpt lat="48.51821" lon="1.97053">
        <ele>172.15</ele>
        <time>2019-11-24T09:33:51Z</time>
      </trkpt>
      <trkpt lat="48.51833" lon="1.97077">
        <ele>175.5</ele>
        <time>2019-11-24T09:33:58Z</time>
      </trkpt>
      <trkpt lat="48.51844" lon="1.97101">
        <ele>173.13</ele>
        <time>2019-11-24T09:34:05Z</time>
      </trkpt>
      <trkpt lat="48.5186" lon="1.97114">
        <ele>168.13</ele>
        <time>2019-11-24T09:34:14Z</time>
      </trkpt>
      <trkpt lat="48.51879" lon="1.97103">
        <ele>168.02</ele>
        <time>2019-11-24T09:34:25Z</time>
      </trkpt>
      <trkpt lat="48.51895" lon="1.97093">
        <ele>168.63</ele>
        <time>2019-11-24T09:34:34Z</time>
      </trkpt>
      <trkpt lat="48.51914" lon="1.97098">
        <ele>162.87</ele>
        <time>2019-11-24T09:34:39Z</time>
      </trkpt>
      <trkpt lat="48.51924" lon="1.97121">
        <ele>165.77</ele>
        <time>2019-11-24T09:34:46Z</time>
      </trkpt>
      <trkpt lat="48.5193" lon="1.97149">
        <ele>170.13</ele>
        <time>2019-11-24T09:34:52Z</time>
      </trkpt>
      <trkpt lat="48.51935" lon="1.97177">
        <ele>175.08</ele>
        <time>2019-11-24T09:34:58Z</time>
      </trkpt>
      <trkpt lat="48.5194" lon="1.97208">
        <ele>176.35</ele>
        <time>2019-11-24T09:35:03Z</time>
      </trkpt>
      <trkpt lat="48.51944" lon="1.97238">
        <ele>178.03</ele>
        <time>2019-11-24T09:35:08Z</time>
      </trkpt>
      <trkpt lat="48.51951" lon="1.97269">
        <ele>179.77</ele>
        <time>2019-11-24T09:35:13Z</time>
      </trkpt>
      <trkpt lat="48.51954" lon="1.97296">
        <ele>178.52</ele>
        <time>2019-11-24T09:35:17Z</time>
      </trkpt>
      <trkpt lat="48.51959" lon="1.97324">
        <ele>179.55</ele>
        <time>2019-11-24T09:35:21Z</time>
      </trkpt>
      <trkpt lat="48.51965" lon="1.97351">
        <ele>178.93</ele>
        <time>2019-11-24T09:35:25Z</time>
      </trkpt>
      <trkpt lat="48.5197" lon="1.97378">
        <ele>179.61</ele>
        <time>2019-11-24T09:35:29Z</time>
      </trkpt>
      <trkpt lat="48.51974" lon="1.97405">
        <ele>177.97</ele>
        <time>2019-11-24T09:35:33Z</time>
      </trkpt>
      <trkpt lat="48.51977" lon="1.97433">
        <ele>175.92</ele>
        <time>2019-11-24T09:35:37Z</time>
      </trkpt>
      <trkpt lat="48.5198" lon="1.9746">
        <ele>175.86</ele>
        <time>2019-11-24T09:35:41Z</time>
      </trkpt>
      <trkpt lat="48.51986" lon="1.97492">
        <ele>176.3</ele>
        <time>2019-11-24T09:35:46Z</time>
      </trkpt>
      <trkpt lat="48.5199" lon="1.97525">
        <ele>177.32</ele>
        <time>2019-11-24T09:35:51Z</time>
      </trkpt>
      <trkpt lat="48.51993" lon="1.97552">
        <ele>179.68</ele>
        <time>2019-11-24T09:35:55Z</time>
      </trkpt>
      <trkpt lat="48.51998" lon="1.9758">
        <ele>181.7</ele>
        <time>2019-11-24T09:35:59Z</time>
      </trkpt>
      <trkpt lat="48.52001" lon="1.97607">
        <ele>181.26</ele>
        <time>2019-11-24T09:36:03Z</time>
      </trkpt>
      <trkpt lat="48.52007" lon="1.97637">
        <ele>179.86</ele>
        <time>2019-11-24T09:36:07Z</time>
      </trkpt>
      <trkpt lat="48.5201" lon="1.97666">
        <ele>178.89</ele>
        <time>2019-11-24T09:36:11Z</time>
      </trkpt>
      <trkpt lat="48.52014" lon="1.97694">
        <ele>177.89</ele>
        <time>2019-11-24T09:36:15Z</time>
      </trkpt>
      <trkpt lat="48.52019" lon="1.97722">
        <ele>178.57</ele>
        <time>2019-11-24T09:36:19Z</time>
      </trkpt>
      <trkpt lat="48.52024" lon="1.9775">
        <ele>179.29</ele>
        <time>2019-11-24T09:36:23Z</time>
      </trkpt>
      <trkpt lat="48.52027" lon="1.97782">
        <ele>179.6</ele>
        <time>2019-11-24T09:36:28Z</time>
      </trkpt>
      <trkpt lat="48.52032" lon="1.97815">
        <ele>178.84</ele>
        <time>2019-11-24T09:36:33Z</time>
      </trkpt>
      <trkpt lat="48.52038" lon="1.97847">
        <ele>179.41</ele>
        <time>2019-11-24T09:36:38Z</time>
      </trkpt>
      <trkpt lat="48.52043" lon="1.9788">
        <ele>176.61</ele>
        <time>2019-11-24T09:36:43Z</time>
      </trkpt>
      <trkpt lat="48.52047" lon="1.97912">
        <ele>174.49</ele>
        <time>2019-11-24T09:36:48Z</time>
      </trkpt>
      <trkpt lat="48.52052" lon="1.97941">
        <ele>175.65</ele>
        <time>2019-11-24T09:36:52Z</time>
      </trkpt>
      <trkpt lat="48.52056" lon="1.97973">
        <ele>175.12</ele>
        <time>2019-11-24T09:36:57Z</time>
      </trkpt>
      <trkpt lat="48.5206" lon="1.98003">
        <ele>174.66</ele>
        <time>2019-11-24T09:37:02Z</time>
      </trkpt>
      <trkpt lat="48.52064" lon="1.98032">
        <ele>174.59</ele>
        <time>2019-11-24T09:37:06Z</time>
      </trkpt>
      <trkpt lat="48.52069" lon="1.98061">
        <ele>173.27</ele>
        <time>2019-11-24T09:37:10Z</time>
      </trkpt>
      <trkpt lat="48.52075" lon="1.9809">
        <ele>171.06</ele>
        <time>2019-11-24T09:37:14Z</time>
      </trkpt>
      <trkpt lat="48.52082" lon="1.98123">
        <ele>171.48</ele>
        <time>2019-11-24T09:37:19Z</time>
      </trkpt>
      <trkpt lat="48.52087" lon="1.98149">
        <ele>171.33</ele>
        <time>2019-11-24T09:37:23Z</time>
      </trkpt>
      <trkpt lat="48.52092" lon="1.98175">
        <ele>172.51</ele>
        <time>2019-11-24T09:37:27Z</time>
      </trkpt>
      <trkpt lat="48.52096" lon="1.98202">
        <ele>173.99</ele>
        <time>2019-11-24T09:37:31Z</time>
      </trkpt>
      <trkpt lat="48.521" lon="1.98229">
        <ele>174.32</ele>
        <time>2019-11-24T09:37:35Z</time>
      </trkpt>
      <trkpt lat="48.52104" lon="1.98261">
        <ele>173.05</ele>
        <time>2019-11-24T09:37:40Z</time>
      </trkpt>
      <trkpt lat="48.52108" lon="1.98288">
        <ele>172.38</ele>
        <time>2019-11-24T09:37:44Z</time>
      </trkpt>
      <trkpt lat="48.52111" lon="1.98317">
        <ele>171.53</ele>
        <time>2019-11-24T09:37:48Z</time>
      </trkpt>
      <trkpt lat="48.52116" lon="1.98348">
        <ele>170.36</ele>
        <time>2019-11-24T09:37:52Z</time>
      </trkpt>
      <trkpt lat="48.52121" lon="1.98379">
        <ele>168.94</ele>
        <time>2019-11-24T09:37:56Z</time>
      </trkpt>
      <trkpt lat="48.52125" lon="1.98409">
        <ele>168.8</ele>
        <time>2019-11-24T09:38:00Z</time>
      </trkpt>
      <trkpt lat="48.52129" lon="1.98439">
        <ele>169.21</ele>
        <time>2019-11-24T09:38:04Z</time>
      </trkpt>
      <trkpt lat="48.52134" lon="1.98469">
        <ele>169.57</ele>
        <time>2019-11-24T09:38:08Z</time>
      </trkpt>
      <trkpt lat="48.52143" lon="1.98497">
        <ele>168.05</ele>
        <time>2019-11-24T09:38:13Z</time>
      </trkpt>
      <trkpt lat="48.52156" lon="1.98517">
        <ele>164.41</ele>
        <time>2019-11-24T09:38:18Z</time>
      </trkpt>
      <trkpt lat="48.52166" lon="1.98559">
        <ele>160.04</ele>
        <time>2019-11-24T09:38:22Z</time>
      </trkpt>
      <trkpt lat="48.52179" lon="1.98585">
        <ele>160.94</ele>
        <time>2019-11-24T09:38:26Z</time>
      </trkpt>
      <trkpt lat="48.52196" lon="1.98607">
        <ele>158.31</ele>
        <time>2019-11-24T09:38:30Z</time>
      </trkpt>
      <trkpt lat="48.5221" lon="1.98628">
        <ele>155.98</ele>
        <time>2019-11-24T09:38:34Z</time>
      </trkpt>
      <trkpt lat="48.52224" lon="1.98649">
        <ele>154.85</ele>
        <time>2019-11-24T09:38:39Z</time>
      </trkpt>
      <trkpt lat="48.52238" lon="1.98681">
        <ele>154.41</ele>
        <time>2019-11-24T09:38:43Z</time>
      </trkpt>
      <trkpt lat="48.52251" lon="1.98701">
        <ele>151.96</ele>
        <time>2019-11-24T09:38:47Z</time>
      </trkpt>
      <trkpt lat="48.52264" lon="1.98721">
        <ele>151.48</ele>
        <time>2019-11-24T09:38:53Z</time>
      </trkpt>
      <trkpt lat="48.52277" lon="1.98743">
        <ele>150.6</ele>
        <time>2019-11-24T09:38:56Z</time>
      </trkpt>
      <trkpt lat="48.52293" lon="1.98772">
        <ele>149.56</ele>
        <time>2019-11-24T09:38:59Z</time>
      </trkpt>
      <trkpt lat="48.52307" lon="1.98793">
        <ele>146.87</ele>
        <time>2019-11-24T09:39:03Z</time>
      </trkpt>
      <trkpt lat="48.52322" lon="1.98769">
        <ele>146.24</ele>
        <time>2019-11-24T09:39:15Z</time>
      </trkpt>
      <trkpt lat="48.52325" lon="1.9874">
        <ele>145.19</ele>
        <time>2019-11-24T09:39:18Z</time>
      </trkpt>
      <trkpt lat="48.52328" lon="1.9871">
        <ele>142.69</ele>
        <time>2019-11-24T09:39:21Z</time>
      </trkpt>
      <trkpt lat="48.52332" lon="1.9868">
        <ele>140.94</ele>
        <time>2019-11-24T09:39:24Z</time>
      </trkpt>
      <trkpt lat="48.52336" lon="1.9865">
        <ele>138.44</ele>
        <time>2019-11-24T09:39:27Z</time>
      </trkpt>
      <trkpt lat="48.52343" lon="1.98616">
        <ele>134.71</ele>
        <time>2019-11-24T09:39:30Z</time>
      </trkpt>
      <trkpt lat="48.52352" lon="1.98583">
        <ele>133.45</ele>
        <time>2019-11-24T09:39:33Z</time>
      </trkpt>
      <trkpt lat="48.52365" lon="1.98555">
        <ele>133.43</ele>
        <time>2019-11-24T09:39:37Z</time>
      </trkpt>
      <trkpt lat="48.52373" lon="1.98526">
        <ele>141.26</ele>
        <time>2019-11-24T09:39:42Z</time>
      </trkpt>
      <trkpt lat="48.52386" lon="1.98498">
        <ele>134.13</ele>
        <time>2019-11-24T09:39:44Z</time>
      </trkpt>
      <trkpt lat="48.52397" lon="1.98473">
        <ele>134.75</ele>
        <time>2019-11-24T09:39:48Z</time>
      </trkpt>
      <trkpt lat="48.52402" lon="1.98446">
        <ele>145.18</ele>
        <time>2019-11-24T09:39:54Z</time>
      </trkpt>
      <trkpt lat="48.52416" lon="1.98417">
        <ele>145.77</ele>
        <time>2019-11-24T09:39:57Z</time>
      </trkpt>
      <trkpt lat="48.52426" lon="1.98391">
        <ele>147.64</ele>
        <time>2019-11-24T09:40:01Z</time>
      </trkpt>
      <trkpt lat="48.52436" lon="1.98368">
        <ele>149.71</ele>
        <time>2019-11-24T09:40:06Z</time>
      </trkpt>
      <trkpt lat="48.52444" lon="1.9834">
        <ele>149.55</ele>
        <time>2019-11-24T09:40:11Z</time>
      </trkpt>
      <trkpt lat="48.52451" lon="1.98309">
        <ele>147.94</ele>
        <time>2019-11-24T09:40:16Z</time>
      </trkpt>
      <trkpt lat="48.52461" lon="1.98286">
        <ele>148.14</ele>
        <time>2019-11-24T09:40:18Z</time>
      </trkpt>
      <trkpt lat="48.52464" lon="1.98258">
        <ele>145.2</ele>
        <time>2019-11-24T09:40:20Z</time>
      </trkpt>
      <trkpt lat="48.52468" lon="1.98226">
        <ele>144.84</ele>
        <time>2019-11-24T09:40:23Z</time>
      </trkpt>
      <trkpt lat="48.5246" lon="1.98198">
        <ele>143.55</ele>
        <time>2019-11-24T09:40:26Z</time>
      </trkpt>
      <trkpt lat="48.52458" lon="1.98166">
        <ele>140.33</ele>
        <time>2019-11-24T09:40:29Z</time>
      </trkpt>
      <trkpt lat="48.52455" lon="1.98131">
        <ele>137.29</ele>
        <time>2019-11-24T09:40:32Z</time>
      </trkpt>
      <trkpt lat="48.52457" lon="1.981">
        <ele>137.69</ele>
        <time>2019-11-24T09:40:38Z</time>
      </trkpt>
      <trkpt lat="48.52458" lon="1.98068">
        <ele>140.45</ele>
        <time>2019-11-24T09:40:42Z</time>
      </trkpt>
      <trkpt lat="48.52462" lon="1.98041">
        <ele>140.25</ele>
        <time>2019-11-24T09:40:44Z</time>
      </trkpt>
      <trkpt lat="48.52461" lon="1.98011">
        <ele>136.21</ele>
        <time>2019-11-24T09:40:50Z</time>
      </trkpt>
      <trkpt lat="48.5247" lon="1.97987">
        <ele>131.76</ele>
        <time>2019-11-24T09:40:55Z</time>
      </trkpt>
      <trkpt lat="48.52471" lon="1.97959">
        <ele>138.74</ele>
        <time>2019-11-24T09:41:00Z</time>
      </trkpt>
      <trkpt lat="48.52476" lon="1.97932">
        <ele>136.56</ele>
        <time>2019-11-24T09:41:06Z</time>
      </trkpt>
      <trkpt lat="48.52483" lon="1.97907">
        <ele>141.75</ele>
        <time>2019-11-24T09:41:13Z</time>
      </trkpt>
      <trkpt lat="48.52486" lon="1.97879">
        <ele>144.69</ele>
        <time>2019-11-24T09:41:20Z</time>
      </trkpt>
      <trkpt lat="48.52489" lon="1.97852">
        <ele>136.16</ele>
        <time>2019-11-24T09:41:27Z</time>
      </trkpt>
      <trkpt lat="48.52473" lon="1.97836">
        <ele>135.73</ele>
        <time>2019-11-24T09:41:37Z</time>
      </trkpt>
      <trkpt lat="48.52454" lon="1.97832">
        <ele>138.64</ele>
        <time>2019-11-24T09:41:46Z</time>
      </trkpt>
      <trkpt lat="48.52434" lon="1.97827">
        <ele>136.94</ele>
        <time>2019-11-24T09:41:56Z</time>
      </trkpt>
      <trkpt lat="48.52416" lon="1.97816">
        <ele>138.78</ele>
        <time>2019-11-24T09:42:05Z</time>
      </trkpt>
      <trkpt lat="48.52397" lon="1.97808">
        <ele>141.78</ele>
        <time>2019-11-24T09:42:13Z</time>
      </trkpt>
      <trkpt lat="48.52379" lon="1.97798">
        <ele>142.78</ele>
        <time>2019-11-24T09:42:22Z</time>
      </trkpt>
      <trkpt lat="48.52361" lon="1.97791">
        <ele>141.56</ele>
        <time>2019-11-24T09:42:30Z</time>
      </trkpt>
      <trkpt lat="48.52342" lon="1.97781">
        <ele>142.03</ele>
        <time>2019-11-24T09:42:38Z</time>
      </trkpt>
      <trkpt lat="48.52324" lon="1.9777">
        <ele>146.34</ele>
        <time>2019-11-24T09:42:48Z</time>
      </trkpt>
      <trkpt lat="48.52306" lon="1.97764">
        <ele>145.25</ele>
        <time>2019-11-24T09:42:57Z</time>
      </trkpt>
      <trkpt lat="48.5229" lon="1.97754">
        <ele>149.59</ele>
        <time>2019-11-24T09:43:09Z</time>
      </trkpt>
      <trkpt lat="48.52284" lon="1.97728">
        <ele>150.52</ele>
        <time>2019-11-24T09:43:17Z</time>
      </trkpt>
      <trkpt lat="48.52282" lon="1.97699">
        <ele>156.71</ele>
        <time>2019-11-24T09:43:23Z</time>
      </trkpt>
      <trkpt lat="48.5228" lon="1.97666">
        <ele>146.11</ele>
        <time>2019-11-24T09:43:28Z</time>
      </trkpt>
      <trkpt lat="48.52277" lon="1.97632">
        <ele>150.31</ele>
        <time>2019-11-24T09:43:33Z</time>
      </trkpt>
      <trkpt lat="48.52277" lon="1.976">
        <ele>145.67</ele>
        <time>2019-11-24T09:43:37Z</time>
      </trkpt>
      <trkpt lat="48.52282" lon="1.97566">
        <ele>146.82</ele>
        <time>2019-11-24T09:43:41Z</time>
      </trkpt>
      <trkpt lat="48.52283" lon="1.97528">
        <ele>144.22</ele>
        <time>2019-11-24T09:43:43Z</time>
      </trkpt>
      <trkpt lat="48.52287" lon="1.97501">
        <ele>142.64</ele>
        <time>2019-11-24T09:43:44Z</time>
      </trkpt>
      <trkpt lat="48.52288" lon="1.97471">
        <ele>142.14</ele>
        <time>2019-11-24T09:43:46Z</time>
      </trkpt>
      <trkpt lat="48.5229" lon="1.97439">
        <ele>142.86</ele>
        <time>2019-11-24T09:43:49Z</time>
      </trkpt>
      <trkpt lat="48.52294" lon="1.97407">
        <ele>142.73</ele>
        <time>2019-11-24T09:43:53Z</time>
      </trkpt>
      <trkpt lat="48.52296" lon="1.9738">
        <ele>143.71</ele>
        <time>2019-11-24T09:43:57Z</time>
      </trkpt>
      <trkpt lat="48.52296" lon="1.97346">
        <ele>144.11</ele>
        <time>2019-11-24T09:44:03Z</time>
      </trkpt>
      <trkpt lat="48.52297" lon="1.97313">
        <ele>145.37</ele>
        <time>2019-11-24T09:44:07Z</time>
      </trkpt>
      <trkpt lat="48.523" lon="1.97285">
        <ele>143.1</ele>
        <time>2019-11-24T09:44:10Z</time>
      </trkpt>
      <trkpt lat="48.52306" lon="1.97251">
        <ele>141.6</ele>
        <time>2019-11-24T09:44:14Z</time>
      </trkpt>
      <trkpt lat="48.52308" lon="1.97221">
        <ele>139.67</ele>
        <time>2019-11-24T09:44:17Z</time>
      </trkpt>
      <trkpt lat="48.5231" lon="1.97189">
        <ele>136.66</ele>
        <time>2019-11-24T09:44:20Z</time>
      </trkpt>
      <trkpt lat="48.52311" lon="1.97161">
        <ele>135.89</ele>
        <time>2019-11-24T09:44:26Z</time>
      </trkpt>
      <trkpt lat="48.52326" lon="1.97146">
        <ele>138.75</ele>
        <time>2019-11-24T09:44:33Z</time>
      </trkpt>
      <trkpt lat="48.52348" lon="1.97143">
        <ele>139.54</ele>
        <time>2019-11-24T09:44:39Z</time>
      </trkpt>
      <trkpt lat="48.52371" lon="1.97144">
        <ele>137.84</ele>
        <time>2019-11-24T09:44:43Z</time>
      </trkpt>
      <trkpt lat="48.5239" lon="1.97144">
        <ele>139.32</ele>
        <time>2019-11-24T09:44:47Z</time>
      </trkpt>
      <trkpt lat="48.52408" lon="1.97145">
        <ele>143.76</ele>
        <time>2019-11-24T09:44:53Z</time>
      </trkpt>
      <trkpt lat="48.52428" lon="1.97147">
        <ele>145.8</ele>
        <time>2019-11-24T09:44:59Z</time>
      </trkpt>
      <trkpt lat="48.52461" lon="1.97154">
        <ele>144.52</ele>
        <time>2019-11-24T09:45:02Z</time>
      </trkpt>
      <trkpt lat="48.52482" lon="1.97152">
        <ele>140.23</ele>
        <time>2019-11-24T09:45:06Z</time>
      </trkpt>
      <trkpt lat="48.52502" lon="1.97154">
        <ele>141.15</ele>
        <time>2019-11-24T09:45:11Z</time>
      </trkpt>
      <trkpt lat="48.52521" lon="1.97156">
        <ele>143.01</ele>
        <time>2019-11-24T09:45:13Z</time>
      </trkpt>
      <trkpt lat="48.52542" lon="1.9716">
        <ele>141.74</ele>
        <time>2019-11-24T09:45:17Z</time>
      </trkpt>
      <trkpt lat="48.5257" lon="1.97166">
        <ele>141.9</ele>
        <time>2019-11-24T09:45:23Z</time>
      </trkpt>
      <trkpt lat="48.52589" lon="1.97166">
        <ele>137.19</ele>
        <time>2019-11-24T09:45:26Z</time>
      </trkpt>
      <trkpt lat="48.52608" lon="1.97163">
        <ele>132.25</ele>
        <time>2019-11-24T09:45:34Z</time>
      </trkpt>
      <trkpt lat="48.52625" lon="1.97167">
        <ele>120.34</ele>
        <time>2019-11-24T09:46:13Z</time>
      </trkpt>
      <trkpt lat="48.52611" lon="1.9715">
        <ele>128.86</ele>
        <time>2019-11-24T09:56:42Z</time>
      </trkpt>
      <trkpt lat="48.52595" lon="1.97134">
        <ele>136.37</ele>
        <time>2019-11-24T09:56:52Z</time>
      </trkpt>
      <trkpt lat="48.52579" lon="1.9712">
        <ele>144.54</ele>
        <time>2019-11-24T09:57:04Z</time>
      </trkpt>
      <trkpt lat="48.5256" lon="1.97111">
        <ele>139.52</ele>
        <time>2019-11-24T09:57:13Z</time>
      </trkpt>
      <trkpt lat="48.52542" lon="1.97104">
        <ele>141.55</ele>
        <time>2019-11-24T09:57:22Z</time>
      </trkpt>
      <trkpt lat="48.52523" lon="1.97094">
        <ele>138.42</ele>
        <time>2019-11-24T09:57:31Z</time>
      </trkpt>
      <trkpt lat="48.52508" lon="1.97077">
        <ele>139.16</ele>
        <time>2019-11-24T09:57:40Z</time>
      </trkpt>
      <trkpt lat="48.5249" lon="1.97064">
        <ele>139.64</ele>
        <time>2019-11-24T09:57:47Z</time>
      </trkpt>
      <trkpt lat="48.52472" lon="1.9705">
        <ele>143.24</ele>
        <time>2019-11-24T09:57:53Z</time>
      </trkpt>
      <trkpt lat="48.52454" lon="1.97044">
        <ele>147.27</ele>
        <time>2019-11-24T09:58:00Z</time>
      </trkpt>
      <trkpt lat="48.52434" lon="1.97039">
        <ele>154.64</ele>
        <time>2019-11-24T09:58:08Z</time>
      </trkpt>
      <trkpt lat="48.52416" lon="1.97033">
        <ele>153.13</ele>
        <time>2019-11-24T09:58:14Z</time>
      </trkpt>
      <trkpt lat="48.52398" lon="1.97025">
        <ele>155.65</ele>
        <time>2019-11-24T09:58:22Z</time>
      </trkpt>
      <trkpt lat="48.52379" lon="1.97017">
        <ele>158.32</ele>
        <time>2019-11-24T09:58:31Z</time>
      </trkpt>
      <trkpt lat="48.5236" lon="1.97013">
        <ele>157.23</ele>
        <time>2019-11-24T09:58:37Z</time>
      </trkpt>
      <trkpt lat="48.52341" lon="1.97015">
        <ele>160.4</ele>
        <time>2019-11-24T09:58:45Z</time>
      </trkpt>
      <trkpt lat="48.52322" lon="1.97017">
        <ele>163.23</ele>
        <time>2019-11-24T09:58:53Z</time>
      </trkpt>
      <trkpt lat="48.52304" lon="1.97013">
        <ele>154.53</ele>
        <time>2019-11-24T09:59:00Z</time>
      </trkpt>
      <trkpt lat="48.5229" lon="1.96995">
        <ele>151.82</ele>
        <time>2019-11-24T09:59:11Z</time>
      </trkpt>
      <trkpt lat="48.5228" lon="1.96973">
        <ele>153</ele>
        <time>2019-11-24T09:59:22Z</time>
      </trkpt>
      <trkpt lat="48.52272" lon="1.96946">
        <ele>159.82</ele>
        <time>2019-11-24T09:59:33Z</time>
      </trkpt>
      <trkpt lat="48.5227" lon="1.96918">
        <ele>167.81</ele>
        <time>2019-11-24T09:59:50Z</time>
      </trkpt>
      <trkpt lat="48.52275" lon="1.96891">
        <ele>163.57</ele>
        <time>2019-11-24T09:59:59Z</time>
      </trkpt>
      <trkpt lat="48.52269" lon="1.96863">
        <ele>158.16</ele>
        <time>2019-11-24T10:00:12Z</time>
      </trkpt>
      <trkpt lat="48.52262" lon="1.96837">
        <ele>160.16</ele>
        <time>2019-11-24T10:00:26Z</time>
      </trkpt>
      <trkpt lat="48.52251" lon="1.96815">
        <ele>162.38</ele>
        <time>2019-11-24T10:00:43Z</time>
      </trkpt>
      <trkpt lat="48.52239" lon="1.96794">
        <ele>158.67</ele>
        <time>2019-11-24T10:00:57Z</time>
      </trkpt>
      <trkpt lat="48.52222" lon="1.9678">
        <ele>163.67</ele>
        <time>2019-11-24T10:01:08Z</time>
      </trkpt>
      <trkpt lat="48.52205" lon="1.96763">
        <ele>165.36</ele>
        <time>2019-11-24T10:01:18Z</time>
      </trkpt>
      <trkpt lat="48.52192" lon="1.96744">
        <ele>169.82</ele>
        <time>2019-11-24T10:01:25Z</time>
      </trkpt>
      <trkpt lat="48.52175" lon="1.96726">
        <ele>172.77</ele>
        <time>2019-11-24T10:01:33Z</time>
      </trkpt>
      <trkpt lat="48.52158" lon="1.96709">
        <ele>172.46</ele>
        <time>2019-11-24T10:01:40Z</time>
      </trkpt>
      <trkpt lat="48.52139" lon="1.96696">
        <ele>172.73</ele>
        <time>2019-11-24T10:01:46Z</time>
      </trkpt>
      <trkpt lat="48.52121" lon="1.96685">
        <ele>176.45</ele>
        <time>2019-11-24T10:01:52Z</time>
      </trkpt>
      <trkpt lat="48.52103" lon="1.96676">
        <ele>172.33</ele>
        <time>2019-11-24T10:01:58Z</time>
      </trkpt>
      <trkpt lat="48.52084" lon="1.96663">
        <ele>169.89</ele>
        <time>2019-11-24T10:02:04Z</time>
      </trkpt>
      <trkpt lat="48.52083" lon="1.96632">
        <ele>171.54</ele>
        <time>2019-11-24T10:02:10Z</time>
      </trkpt>
      <trkpt lat="48.52093" lon="1.96605">
        <ele>173.23</ele>
        <time>2019-11-24T10:02:16Z</time>
      </trkpt>
      <trkpt lat="48.521" lon="1.96574">
        <ele>174.7</ele>
        <time>2019-11-24T10:02:24Z</time>
      </trkpt>
      <trkpt lat="48.52109" lon="1.9655">
        <ele>177.93</ele>
        <time>2019-11-24T10:02:29Z</time>
      </trkpt>
      <trkpt lat="48.52119" lon="1.96525">
        <ele>176.65</ele>
        <time>2019-11-24T10:02:35Z</time>
      </trkpt>
      <trkpt lat="48.52128" lon="1.96498">
        <ele>176.66</ele>
        <time>2019-11-24T10:02:42Z</time>
      </trkpt>
      <trkpt lat="48.52136" lon="1.9647">
        <ele>173.91</ele>
        <time>2019-11-24T10:02:48Z</time>
      </trkpt>
      <trkpt lat="48.52148" lon="1.96449">
        <ele>174.76</ele>
        <time>2019-11-24T10:02:54Z</time>
      </trkpt>
      <trkpt lat="48.52164" lon="1.96432">
        <ele>175.33</ele>
        <time>2019-11-24T10:03:00Z</time>
      </trkpt>
      <trkpt lat="48.52181" lon="1.96416">
        <ele>176.45</ele>
        <time>2019-11-24T10:03:05Z</time>
      </trkpt>
      <trkpt lat="48.52194" lon="1.96396">
        <ele>174.94</ele>
        <time>2019-11-24T10:03:11Z</time>
      </trkpt>
      <trkpt lat="48.52212" lon="1.9638">
        <ele>176.1</ele>
        <time>2019-11-24T10:03:20Z</time>
      </trkpt>
      <trkpt lat="48.52228" lon="1.96361">
        <ele>174.22</ele>
        <time>2019-11-24T10:03:26Z</time>
      </trkpt>
      <trkpt lat="48.52245" lon="1.96345">
        <ele>169.22</ele>
        <time>2019-11-24T10:03:33Z</time>
      </trkpt>
      <trkpt lat="48.52262" lon="1.96335">
        <ele>167.33</ele>
        <time>2019-11-24T10:03:39Z</time>
      </trkpt>
      <trkpt lat="48.52276" lon="1.96318">
        <ele>166.78</ele>
        <time>2019-11-24T10:03:44Z</time>
      </trkpt>
      <trkpt lat="48.52291" lon="1.96302">
        <ele>166.25</ele>
        <time>2019-11-24T10:03:48Z</time>
      </trkpt>
      <trkpt lat="48.52307" lon="1.96289">
        <ele>163.85</ele>
        <time>2019-11-24T10:03:53Z</time>
      </trkpt>
      <trkpt lat="48.52323" lon="1.96275">
        <ele>164.18</ele>
        <time>2019-11-24T10:03:58Z</time>
      </trkpt>
      <trkpt lat="48.5234" lon="1.96264">
        <ele>168.08</ele>
        <time>2019-11-24T10:04:05Z</time>
      </trkpt>
      <trkpt lat="48.52356" lon="1.96248">
        <ele>167.67</ele>
        <time>2019-11-24T10:04:11Z</time>
      </trkpt>
      <trkpt lat="48.52371" lon="1.96229">
        <ele>163.77</ele>
        <time>2019-11-24T10:04:16Z</time>
      </trkpt>
      <trkpt lat="48.52362" lon="1.96204">
        <ele>163.35</ele>
        <time>2019-11-24T10:04:27Z</time>
      </trkpt>
      <trkpt lat="48.5237" lon="1.96174">
        <ele>165.82</ele>
        <time>2019-11-24T10:04:44Z</time>
      </trkpt>
      <trkpt lat="48.52388" lon="1.96162">
        <ele>166.63</ele>
        <time>2019-11-24T10:04:50Z</time>
      </trkpt>
      <trkpt lat="48.52408" lon="1.96161">
        <ele>169.17</ele>
        <time>2019-11-24T10:04:56Z</time>
      </trkpt>
      <trkpt lat="48.52428" lon="1.96163">
        <ele>165.19</ele>
        <time>2019-11-24T10:05:01Z</time>
      </trkpt>
      <trkpt lat="48.52446" lon="1.96154">
        <ele>163.73</ele>
        <time>2019-11-24T10:05:05Z</time>
      </trkpt>
      <trkpt lat="48.52462" lon="1.96135">
        <ele>159.24</ele>
        <time>2019-11-24T10:05:09Z</time>
      </trkpt>
      <trkpt lat="48.52476" lon="1.96111">
        <ele>158.5</ele>
        <time>2019-11-24T10:05:13Z</time>
      </trkpt>
      <trkpt lat="48.52483" lon="1.96081">
        <ele>152.21</ele>
        <time>2019-11-24T10:05:18Z</time>
      </trkpt>
      <trkpt lat="48.52493" lon="1.96056">
        <ele>145.84</ele>
        <time>2019-11-24T10:05:22Z</time>
      </trkpt>
      <trkpt lat="48.52508" lon="1.96019">
        <ele>143.44</ele>
        <time>2019-11-24T10:05:25Z</time>
      </trkpt>
      <trkpt lat="48.52516" lon="1.9599">
        <ele>136.13</ele>
        <time>2019-11-24T10:05:28Z</time>
      </trkpt>
      <trkpt lat="48.5253" lon="1.9596">
        <ele>131.04</ele>
        <time>2019-11-24T10:05:31Z</time>
      </trkpt>
      <trkpt lat="48.5254" lon="1.95937">
        <ele>128.3</ele>
        <time>2019-11-24T10:05:34Z</time>
      </trkpt>
      <trkpt lat="48.52559" lon="1.95923">
        <ele>122.39</ele>
        <time>2019-11-24T10:05:38Z</time>
      </trkpt>
      <trkpt lat="48.52574" lon="1.95908">
        <ele>122.55</ele>
        <time>2019-11-24T10:05:42Z</time>
      </trkpt>
      <trkpt lat="48.52591" lon="1.95925">
        <ele>123.62</ele>
        <time>2019-11-24T10:05:51Z</time>
      </trkpt>
      <trkpt lat="48.52599" lon="1.95952">
        <ele>125.49</ele>
        <time>2019-11-24T10:06:01Z</time>
      </trkpt>
      <trkpt lat="48.52611" lon="1.95973">
        <ele>133.96</ele>
        <time>2019-11-24T10:06:10Z</time>
      </trkpt>
      <trkpt lat="48.52621" lon="1.96001">
        <ele>138.05</ele>
        <time>2019-11-24T10:06:17Z</time>
      </trkpt>
      <trkpt lat="48.52632" lon="1.96029">
        <ele>136.35</ele>
        <time>2019-11-24T10:06:22Z</time>
      </trkpt>
      <trkpt lat="48.52651" lon="1.96028">
        <ele>133.62</ele>
        <time>2019-11-24T10:06:31Z</time>
      </trkpt>
      <trkpt lat="48.52666" lon="1.9601">
        <ele>128.01</ele>
        <time>2019-11-24T10:06:39Z</time>
      </trkpt>
      <trkpt lat="48.5268" lon="1.95992">
        <ele>126.98</ele>
        <time>2019-11-24T10:06:43Z</time>
      </trkpt>
      <trkpt lat="48.52696" lon="1.95979">
        <ele>125.13</ele>
        <time>2019-11-24T10:06:48Z</time>
      </trkpt>
      <trkpt lat="48.52711" lon="1.95958">
        <ele>122.47</ele>
        <time>2019-11-24T10:07:13Z</time>
      </trkpt>
      <trkpt lat="48.52726" lon="1.95938">
        <ele>124.49</ele>
        <time>2019-11-24T10:07:19Z</time>
      </trkpt>
      <trkpt lat="48.52743" lon="1.95921">
        <ele>119.54</ele>
        <time>2019-11-24T10:07:25Z</time>
      </trkpt>
      <trkpt lat="48.52759" lon="1.95907">
        <ele>121.02</ele>
        <time>2019-11-24T10:07:32Z</time>
      </trkpt>
      <trkpt lat="48.52775" lon="1.9589">
        <ele>120.39</ele>
        <time>2019-11-24T10:07:39Z</time>
      </trkpt>
      <trkpt lat="48.52792" lon="1.95876">
        <ele>122.82</ele>
        <time>2019-11-24T10:07:45Z</time>
      </trkpt>
      <trkpt lat="48.52802" lon="1.95854">
        <ele>123.15</ele>
        <time>2019-11-24T10:07:51Z</time>
      </trkpt>
      <trkpt lat="48.52801" lon="1.95824">
        <ele>114.19</ele>
        <time>2019-11-24T10:07:58Z</time>
      </trkpt>
      <trkpt lat="48.52799" lon="1.95792">
        <ele>114.57</ele>
        <time>2019-11-24T10:08:04Z</time>
      </trkpt>
      <trkpt lat="48.52792" lon="1.95766">
        <ele>111.51</ele>
        <time>2019-11-24T10:08:12Z</time>
      </trkpt>
      <trkpt lat="48.52784" lon="1.95737">
        <ele>111.29</ele>
        <time>2019-11-24T10:08:17Z</time>
      </trkpt>
      <trkpt lat="48.52777" lon="1.95712">
        <ele>111.25</ele>
        <time>2019-11-24T10:08:22Z</time>
      </trkpt>
      <trkpt lat="48.52772" lon="1.95683">
        <ele>112.29</ele>
        <time>2019-11-24T10:08:27Z</time>
      </trkpt>
      <trkpt lat="48.52761" lon="1.95658">
        <ele>113.47</ele>
        <time>2019-11-24T10:08:34Z</time>
      </trkpt>
      <trkpt lat="48.52753" lon="1.95632">
        <ele>114.93</ele>
        <time>2019-11-24T10:08:40Z</time>
      </trkpt>
      <trkpt lat="48.52747" lon="1.95606">
        <ele>113.76</ele>
        <time>2019-11-24T10:08:47Z</time>
      </trkpt>
      <trkpt lat="48.52761" lon="1.95587">
        <ele>108.55</ele>
        <time>2019-11-24T10:08:55Z</time>
      </trkpt>
      <trkpt lat="48.52779" lon="1.95575">
        <ele>109.4</ele>
        <time>2019-11-24T10:09:00Z</time>
      </trkpt>
      <trkpt lat="48.52795" lon="1.95561">
        <ele>108.67</ele>
        <time>2019-11-24T10:09:05Z</time>
      </trkpt>
      <trkpt lat="48.52814" lon="1.95551">
        <ele>109.71</ele>
        <time>2019-11-24T10:09:11Z</time>
      </trkpt>
      <trkpt lat="48.52835" lon="1.95544">
        <ele>111.51</ele>
        <time>2019-11-24T10:09:17Z</time>
      </trkpt>
      <trkpt lat="48.52855" lon="1.95537">
        <ele>110.97</ele>
        <time>2019-11-24T10:09:22Z</time>
      </trkpt>
      <trkpt lat="48.52874" lon="1.9553">
        <ele>110.4</ele>
        <time>2019-11-24T10:09:27Z</time>
      </trkpt>
      <trkpt lat="48.52892" lon="1.95523">
        <ele>109.3</ele>
        <time>2019-11-24T10:09:32Z</time>
      </trkpt>
      <trkpt lat="48.52913" lon="1.95513">
        <ele>109.74</ele>
        <time>2019-11-24T10:09:37Z</time>
      </trkpt>
      <trkpt lat="48.52929" lon="1.95495">
        <ele>112.71</ele>
        <time>2019-11-24T10:09:42Z</time>
      </trkpt>
      <trkpt lat="48.52925" lon="1.95465">
        <ele>111.37</ele>
        <time>2019-11-24T10:09:50Z</time>
      </trkpt>
      <trkpt lat="48.52912" lon="1.95443">
        <ele>110.41</ele>
        <time>2019-11-24T10:09:55Z</time>
      </trkpt>
      <trkpt lat="48.52902" lon="1.95417">
        <ele>110.09</ele>
        <time>2019-11-24T10:10:00Z</time>
      </trkpt>
      <trkpt lat="48.52894" lon="1.95392">
        <ele>108.73</ele>
        <time>2019-11-24T10:10:05Z</time>
      </trkpt>
      <trkpt lat="48.52886" lon="1.95368">
        <ele>109.15</ele>
        <time>2019-11-24T10:10:10Z</time>
      </trkpt>
      <trkpt lat="48.52877" lon="1.95343">
        <ele>109.11</ele>
        <time>2019-11-24T10:10:15Z</time>
      </trkpt>
      <trkpt lat="48.52869" lon="1.95315">
        <ele>108.8</ele>
        <time>2019-11-24T10:10:20Z</time>
      </trkpt>
      <trkpt lat="48.52881" lon="1.95292">
        <ele>110.74</ele>
        <time>2019-11-24T10:10:27Z</time>
      </trkpt>
      <trkpt lat="48.529" lon="1.95294">
        <ele>110.78</ele>
        <time>2019-11-24T10:10:32Z</time>
      </trkpt>
      <trkpt lat="48.5292" lon="1.95295">
        <ele>114.08</ele>
        <time>2019-11-24T10:10:39Z</time>
      </trkpt>
      <trkpt lat="48.52939" lon="1.95297">
        <ele>116.81</ele>
        <time>2019-11-24T10:10:45Z</time>
      </trkpt>
      <trkpt lat="48.52957" lon="1.95299">
        <ele>118.09</ele>
        <time>2019-11-24T10:10:52Z</time>
      </trkpt>
      <trkpt lat="48.52976" lon="1.95298">
        <ele>120.43</ele>
        <time>2019-11-24T10:11:00Z</time>
      </trkpt>
      <trkpt lat="48.52994" lon="1.95298">
        <ele>124.01</ele>
        <time>2019-11-24T10:11:08Z</time>
      </trkpt>
      <trkpt lat="48.53014" lon="1.95294">
        <ele>127.15</ele>
        <time>2019-11-24T10:11:18Z</time>
      </trkpt>
      <trkpt lat="48.53033" lon="1.9529">
        <ele>128.81</ele>
        <time>2019-11-24T10:11:28Z</time>
      </trkpt>
      <trkpt lat="48.53052" lon="1.95282">
        <ele>130.92</ele>
        <time>2019-11-24T10:11:40Z</time>
      </trkpt>
      <trkpt lat="48.5307" lon="1.95273">
        <ele>130.94</ele>
        <time>2019-11-24T10:11:50Z</time>
      </trkpt>
      <trkpt lat="48.53089" lon="1.95264">
        <ele>131.02</ele>
        <time>2019-11-24T10:11:59Z</time>
      </trkpt>
      <trkpt lat="48.53106" lon="1.95255">
        <ele>130.63</ele>
        <time>2019-11-24T10:12:08Z</time>
      </trkpt>
      <trkpt lat="48.53121" lon="1.95236">
        <ele>130.1</ele>
        <time>2019-11-24T10:12:16Z</time>
      </trkpt>
      <trkpt lat="48.53136" lon="1.95213">
        <ele>129.88</ele>
        <time>2019-11-24T10:12:25Z</time>
      </trkpt>
      <trkpt lat="48.5315" lon="1.95192">
        <ele>129.53</ele>
        <time>2019-11-24T10:12:32Z</time>
      </trkpt>
      <trkpt lat="48.53165" lon="1.95173">
        <ele>132.38</ele>
        <time>2019-11-24T10:12:42Z</time>
      </trkpt>
      <trkpt lat="48.53179" lon="1.95154">
        <ele>133.39</ele>
        <time>2019-11-24T10:12:49Z</time>
      </trkpt>
      <trkpt lat="48.53192" lon="1.95134">
        <ele>135.4</ele>
        <time>2019-11-24T10:12:56Z</time>
      </trkpt>
      <trkpt lat="48.53207" lon="1.95111">
        <ele>134.1</ele>
        <time>2019-11-24T10:13:01Z</time>
      </trkpt>
      <trkpt lat="48.53222" lon="1.95092">
        <ele>132.28</ele>
        <time>2019-11-24T10:13:08Z</time>
      </trkpt>
      <trkpt lat="48.53235" lon="1.95071">
        <ele>132.96</ele>
        <time>2019-11-24T10:13:14Z</time>
      </trkpt>
      <trkpt lat="48.53246" lon="1.9505">
        <ele>131.9</ele>
        <time>2019-11-24T10:13:19Z</time>
      </trkpt>
      <trkpt lat="48.53258" lon="1.95027">
        <ele>131.34</ele>
        <time>2019-11-24T10:13:24Z</time>
      </trkpt>
      <trkpt lat="48.53276" lon="1.94992">
        <ele>130.44</ele>
        <time>2019-11-24T10:13:29Z</time>
      </trkpt>
      <trkpt lat="48.53289" lon="1.94967">
        <ele>128.49</ele>
        <time>2019-11-24T10:13:34Z</time>
      </trkpt>
      <trkpt lat="48.53301" lon="1.94939">
        <ele>128.48</ele>
        <time>2019-11-24T10:13:42Z</time>
      </trkpt>
      <trkpt lat="48.53313" lon="1.94912">
        <ele>127.77</ele>
        <time>2019-11-24T10:13:47Z</time>
      </trkpt>
      <trkpt lat="48.53323" lon="1.94886">
        <ele>128.83</ele>
        <time>2019-11-24T10:13:55Z</time>
      </trkpt>
      <trkpt lat="48.53336" lon="1.94863">
        <ele>130.37</ele>
        <time>2019-11-24T10:14:02Z</time>
      </trkpt>
      <trkpt lat="48.53351" lon="1.94843">
        <ele>131.01</ele>
        <time>2019-11-24T10:14:09Z</time>
      </trkpt>
      <trkpt lat="48.53368" lon="1.94823">
        <ele>131.28</ele>
        <time>2019-11-24T10:14:14Z</time>
      </trkpt>
      <trkpt lat="48.53385" lon="1.94805">
        <ele>131.64</ele>
        <time>2019-11-24T10:14:19Z</time>
      </trkpt>
      <trkpt lat="48.534" lon="1.94789">
        <ele>132.64</ele>
        <time>2019-11-24T10:14:26Z</time>
      </trkpt>
      <trkpt lat="48.53416" lon="1.94773">
        <ele>133.47</ele>
        <time>2019-11-24T10:14:32Z</time>
      </trkpt>
      <trkpt lat="48.53433" lon="1.94756">
        <ele>134.02</ele>
        <time>2019-11-24T10:14:39Z</time>
      </trkpt>
      <trkpt lat="48.53451" lon="1.94741">
        <ele>133.07</ele>
        <time>2019-11-24T10:14:46Z</time>
      </trkpt>
      <trkpt lat="48.5347" lon="1.94728">
        <ele>133.84</ele>
        <time>2019-11-24T10:14:53Z</time>
      </trkpt>
      <trkpt lat="48.53489" lon="1.94717">
        <ele>132.11</ele>
        <time>2019-11-24T10:14:59Z</time>
      </trkpt>
      <trkpt lat="48.53506" lon="1.94705">
        <ele>131.89</ele>
        <time>2019-11-24T10:15:05Z</time>
      </trkpt>
      <trkpt lat="48.53523" lon="1.94688">
        <ele>132.27</ele>
        <time>2019-11-24T10:15:11Z</time>
      </trkpt>
      <trkpt lat="48.53536" lon="1.94671">
        <ele>132.25</ele>
        <time>2019-11-24T10:15:19Z</time>
      </trkpt>
      <trkpt lat="48.53551" lon="1.94647">
        <ele>132.09</ele>
        <time>2019-11-24T10:15:26Z</time>
      </trkpt>
      <trkpt lat="48.53565" lon="1.94627">
        <ele>131.99</ele>
        <time>2019-11-24T10:15:30Z</time>
      </trkpt>
      <trkpt lat="48.53576" lon="1.94605">
        <ele>135.77</ele>
        <time>2019-11-24T10:15:36Z</time>
      </trkpt>
      <trkpt lat="48.53589" lon="1.94577">
        <ele>133.37</ele>
        <time>2019-11-24T10:15:39Z</time>
      </trkpt>
      <trkpt lat="48.53603" lon="1.94556">
        <ele>131.37</ele>
        <time>2019-11-24T10:15:42Z</time>
      </trkpt>
      <trkpt lat="48.53614" lon="1.94534">
        <ele>131.58</ele>
        <time>2019-11-24T10:15:45Z</time>
      </trkpt>
      <trkpt lat="48.53627" lon="1.94513">
        <ele>129.7</ele>
        <time>2019-11-24T10:15:48Z</time>
      </trkpt>
      <trkpt lat="48.53642" lon="1.94494">
        <ele>128.28</ele>
        <time>2019-11-24T10:15:51Z</time>
      </trkpt>
      <trkpt lat="48.53655" lon="1.94475">
        <ele>128.44</ele>
        <time>2019-11-24T10:15:54Z</time>
      </trkpt>
      <trkpt lat="48.53672" lon="1.94459">
        <ele>128.4</ele>
        <time>2019-11-24T10:15:57Z</time>
      </trkpt>
      <trkpt lat="48.53687" lon="1.94434">
        <ele>127.79</ele>
        <time>2019-11-24T10:16:01Z</time>
      </trkpt>
      <trkpt lat="48.53702" lon="1.9441">
        <ele>126.79</ele>
        <time>2019-11-24T10:16:05Z</time>
      </trkpt>
      <trkpt lat="48.53718" lon="1.94386">
        <ele>127.22</ele>
        <time>2019-11-24T10:16:09Z</time>
      </trkpt>
      <trkpt lat="48.53734" lon="1.9436">
        <ele>124.71</ele>
        <time>2019-11-24T10:16:13Z</time>
      </trkpt>
      <trkpt lat="48.53748" lon="1.94336">
        <ele>124.56</ele>
        <time>2019-11-24T10:16:16Z</time>
      </trkpt>
      <trkpt lat="48.53763" lon="1.94313">
        <ele>123.76</ele>
        <time>2019-11-24T10:16:19Z</time>
      </trkpt>
      <trkpt lat="48.53777" lon="1.9429">
        <ele>122.5</ele>
        <time>2019-11-24T10:16:22Z</time>
      </trkpt>
      <trkpt lat="48.53789" lon="1.94268">
        <ele>123.52</ele>
        <time>2019-11-24T10:16:25Z</time>
      </trkpt>
      <trkpt lat="48.53806" lon="1.94248">
        <ele>122.95</ele>
        <time>2019-11-24T10:16:28Z</time>
      </trkpt>
      <trkpt lat="48.53822" lon="1.9423">
        <ele>122.19</ele>
        <time>2019-11-24T10:16:31Z</time>
      </trkpt>
      <trkpt lat="48.53838" lon="1.94215">
        <ele>121.91</ele>
        <time>2019-11-24T10:16:34Z</time>
      </trkpt>
      <trkpt lat="48.53855" lon="1.94199">
        <ele>121.69</ele>
        <time>2019-11-24T10:16:37Z</time>
      </trkpt>
      <trkpt lat="48.53874" lon="1.94185">
        <ele>121.8</ele>
        <time>2019-11-24T10:16:40Z</time>
      </trkpt>
      <trkpt lat="48.53895" lon="1.9417">
        <ele>121.78</ele>
        <time>2019-11-24T10:16:43Z</time>
      </trkpt>
      <trkpt lat="48.53916" lon="1.94153">
        <ele>121.55</ele>
        <time>2019-11-24T10:16:46Z</time>
      </trkpt>
      <trkpt lat="48.53936" lon="1.94129">
        <ele>121.22</ele>
        <time>2019-11-24T10:16:49Z</time>
      </trkpt>
      <trkpt lat="48.53953" lon="1.94101">
        <ele>121.05</ele>
        <time>2019-11-24T10:16:52Z</time>
      </trkpt>
      <trkpt lat="48.53969" lon="1.94075">
        <ele>120.95</ele>
        <time>2019-11-24T10:16:55Z</time>
      </trkpt>
      <trkpt lat="48.53987" lon="1.94051">
        <ele>121.25</ele>
        <time>2019-11-24T10:16:58Z</time>
      </trkpt>
      <trkpt lat="48.54002" lon="1.94036">
        <ele>121.66</ele>
        <time>2019-11-24T10:17:00Z</time>
      </trkpt>
      <trkpt lat="48.5402" lon="1.94015">
        <ele>122.68</ele>
        <time>2019-11-24T10:17:03Z</time>
      </trkpt>
      <trkpt lat="48.54041" lon="1.93998">
        <ele>122.25</ele>
        <time>2019-11-24T10:17:06Z</time>
      </trkpt>
      <trkpt lat="48.54061" lon="1.93983">
        <ele>122.8</ele>
        <time>2019-11-24T10:17:09Z</time>
      </trkpt>
      <trkpt lat="48.54081" lon="1.93973">
        <ele>123.03</ele>
        <time>2019-11-24T10:17:12Z</time>
      </trkpt>
      <trkpt lat="48.54103" lon="1.93966">
        <ele>121.85</ele>
        <time>2019-11-24T10:17:15Z</time>
      </trkpt>
      <trkpt lat="48.54124" lon="1.93962">
        <ele>121.35</ele>
        <time>2019-11-24T10:17:18Z</time>
      </trkpt>
      <trkpt lat="48.54145" lon="1.93952">
        <ele>121.81</ele>
        <time>2019-11-24T10:17:21Z</time>
      </trkpt>
      <trkpt lat="48.54165" lon="1.9394">
        <ele>122.21</ele>
        <time>2019-11-24T10:17:24Z</time>
      </trkpt>
      <trkpt lat="48.54184" lon="1.93926">
        <ele>121.43</ele>
        <time>2019-11-24T10:17:27Z</time>
      </trkpt>
      <trkpt lat="48.54202" lon="1.93912">
        <ele>120.73</ele>
        <time>2019-11-24T10:17:30Z</time>
      </trkpt>
      <trkpt lat="48.5422" lon="1.93898">
        <ele>121.64</ele>
        <time>2019-11-24T10:17:33Z</time>
      </trkpt>
      <trkpt lat="48.54236" lon="1.93885">
        <ele>121.34</ele>
        <time>2019-11-24T10:17:36Z</time>
      </trkpt>
      <trkpt lat="48.54253" lon="1.93872">
        <ele>122.34</ele>
        <time>2019-11-24T10:17:39Z</time>
      </trkpt>
      <trkpt lat="48.54272" lon="1.93854">
        <ele>123.49</ele>
        <time>2019-11-24T10:17:43Z</time>
      </trkpt>
      <trkpt lat="48.54286" lon="1.93837">
        <ele>123.14</ele>
        <time>2019-11-24T10:17:46Z</time>
      </trkpt>
      <trkpt lat="48.54306" lon="1.93821">
        <ele>123.55</ele>
        <time>2019-11-24T10:17:50Z</time>
      </trkpt>
      <trkpt lat="48.54326" lon="1.93803">
        <ele>123.35</ele>
        <time>2019-11-24T10:17:54Z</time>
      </trkpt>
      <trkpt lat="48.54343" lon="1.93788">
        <ele>122.77</ele>
        <time>2019-11-24T10:17:58Z</time>
      </trkpt>
      <trkpt lat="48.5436" lon="1.93775">
        <ele>123.6</ele>
        <time>2019-11-24T10:18:02Z</time>
      </trkpt>
      <trkpt lat="48.54379" lon="1.93774">
        <ele>125.35</ele>
        <time>2019-11-24T10:18:08Z</time>
      </trkpt>
      <trkpt lat="48.54384" lon="1.93802">
        <ele>128.67</ele>
        <time>2019-11-24T10:18:14Z</time>
      </trkpt>
      <trkpt lat="48.54389" lon="1.9383">
        <ele>131.31</ele>
        <time>2019-11-24T10:18:19Z</time>
      </trkpt>
      <trkpt lat="48.54399" lon="1.93857">
        <ele>132.42</ele>
        <time>2019-11-24T10:18:24Z</time>
      </trkpt>
      <trkpt lat="48.54413" lon="1.9388">
        <ele>136.24</ele>
        <time>2019-11-24T10:18:33Z</time>
      </trkpt>
      <trkpt lat="48.5443" lon="1.939">
        <ele>139.14</ele>
        <time>2019-11-24T10:18:42Z</time>
      </trkpt>
      <trkpt lat="48.54445" lon="1.93919">
        <ele>141.4</ele>
        <time>2019-11-24T10:18:49Z</time>
      </trkpt>
      <trkpt lat="48.54463" lon="1.9393">
        <ele>143.2</ele>
        <time>2019-11-24T10:19:01Z</time>
      </trkpt>
      <trkpt lat="48.54481" lon="1.93925">
        <ele>148.82</ele>
        <time>2019-11-24T10:19:09Z</time>
      </trkpt>
      <trkpt lat="48.54499" lon="1.93927">
        <ele>154.44</ele>
        <time>2019-11-24T10:19:21Z</time>
      </trkpt>
      <trkpt lat="48.54517" lon="1.93928">
        <ele>162.94</ele>
        <time>2019-11-24T10:19:36Z</time>
      </trkpt>
      <trkpt lat="48.54534" lon="1.93941">
        <ele>169.23</ele>
        <time>2019-11-24T10:19:54Z</time>
      </trkpt>
      <trkpt lat="48.54545" lon="1.93963">
        <ele>170.86</ele>
        <time>2019-11-24T10:20:07Z</time>
      </trkpt>
      <trkpt lat="48.54556" lon="1.93984">
        <ele>179.34</ele>
        <time>2019-11-24T10:20:32Z</time>
      </trkpt>
      <trkpt lat="48.54571" lon="1.94">
        <ele>183.88</ele>
        <time>2019-11-24T10:20:47Z</time>
      </trkpt>
      <trkpt lat="48.54582" lon="1.94022">
        <ele>172.56</ele>
        <time>2019-11-24T10:20:58Z</time>
      </trkpt>
      <trkpt lat="48.54596" lon="1.94039">
        <ele>164.16</ele>
        <time>2019-11-24T10:21:21Z</time>
      </trkpt>
      <trkpt lat="48.54614" lon="1.94044">
        <ele>165.62</ele>
        <time>2019-11-24T10:21:43Z</time>
      </trkpt>
      <trkpt lat="48.54632" lon="1.94034">
        <ele>169.02</ele>
        <time>2019-11-24T10:21:55Z</time>
      </trkpt>
      <trkpt lat="48.54649" lon="1.94021">
        <ele>163.99</ele>
        <time>2019-11-24T10:22:05Z</time>
      </trkpt>
      <trkpt lat="48.54644" lon="1.93994">
        <ele>166.66</ele>
        <time>2019-11-24T10:22:15Z</time>
      </trkpt>
      <trkpt lat="48.54635" lon="1.9397">
        <ele>170.5</ele>
        <time>2019-11-24T10:22:22Z</time>
      </trkpt>
      <trkpt lat="48.54624" lon="1.93944">
        <ele>174.2</ele>
        <time>2019-11-24T10:22:28Z</time>
      </trkpt>
      <trkpt lat="48.54616" lon="1.93918">
        <ele>180.09</ele>
        <time>2019-11-24T10:22:33Z</time>
      </trkpt>
      <trkpt lat="48.54605" lon="1.93894">
        <ele>181.18</ele>
        <time>2019-11-24T10:22:38Z</time>
      </trkpt>
      <trkpt lat="48.54595" lon="1.93851">
        <ele>169.71</ele>
        <time>2019-11-24T10:22:41Z</time>
      </trkpt>
      <trkpt lat="48.54589" lon="1.93823">
        <ele>166.21</ele>
        <time>2019-11-24T10:22:46Z</time>
      </trkpt>
      <trkpt lat="48.54581" lon="1.93789">
        <ele>165.19</ele>
        <time>2019-11-24T10:22:50Z</time>
      </trkpt>
      <trkpt lat="48.54578" lon="1.93762">
        <ele>160.72</ele>
        <time>2019-11-24T10:22:53Z</time>
      </trkpt>
      <trkpt lat="48.54583" lon="1.93733">
        <ele>154.62</ele>
        <time>2019-11-24T10:22:56Z</time>
      </trkpt>
      <trkpt lat="48.54592" lon="1.93704">
        <ele>153.9</ele>
        <time>2019-11-24T10:22:59Z</time>
      </trkpt>
      <trkpt lat="48.54607" lon="1.93663">
        <ele>151.37</ele>
        <time>2019-11-24T10:23:01Z</time>
      </trkpt>
      <trkpt lat="48.54614" lon="1.93635">
        <ele>149.11</ele>
        <time>2019-11-24T10:23:04Z</time>
      </trkpt>
      <trkpt lat="48.54623" lon="1.93608">
        <ele>148.45</ele>
        <time>2019-11-24T10:23:07Z</time>
      </trkpt>
      <trkpt lat="48.54638" lon="1.93589">
        <ele>145.29</ele>
        <time>2019-11-24T10:23:10Z</time>
      </trkpt>
      <trkpt lat="48.54655" lon="1.93574">
        <ele>143.9</ele>
        <time>2019-11-24T10:23:13Z</time>
      </trkpt>
      <trkpt lat="48.54676" lon="1.93548">
        <ele>144.76</ele>
        <time>2019-11-24T10:23:16Z</time>
      </trkpt>
      <trkpt lat="48.54691" lon="1.93531">
        <ele>146.32</ele>
        <time>2019-11-24T10:23:19Z</time>
      </trkpt>
      <trkpt lat="48.54701" lon="1.93503">
        <ele>148.93</ele>
        <time>2019-11-24T10:23:25Z</time>
      </trkpt>
      <trkpt lat="48.54715" lon="1.93481">
        <ele>147.89</ele>
        <time>2019-11-24T10:23:28Z</time>
      </trkpt>
      <trkpt lat="48.5473" lon="1.93456">
        <ele>148.72</ele>
        <time>2019-11-24T10:23:32Z</time>
      </trkpt>
      <trkpt lat="48.54747" lon="1.93438">
        <ele>147.77</ele>
        <time>2019-11-24T10:23:37Z</time>
      </trkpt>
      <trkpt lat="48.54768" lon="1.93432">
        <ele>146.54</ele>
        <time>2019-11-24T10:23:40Z</time>
      </trkpt>
      <trkpt lat="48.54789" lon="1.93417">
        <ele>143.57</ele>
        <time>2019-11-24T10:23:43Z</time>
      </trkpt>
      <trkpt lat="48.54809" lon="1.93412">
        <ele>144.46</ele>
        <time>2019-11-24T10:23:47Z</time>
      </trkpt>
      <trkpt lat="48.54829" lon="1.93413">
        <ele>152.45</ele>
        <time>2019-11-24T10:23:57Z</time>
      </trkpt>
      <trkpt lat="48.54848" lon="1.93413">
        <ele>159.13</ele>
        <time>2019-11-24T10:24:05Z</time>
      </trkpt>
      <trkpt lat="48.54867" lon="1.93418">
        <ele>163.85</ele>
        <time>2019-11-24T10:24:15Z</time>
      </trkpt>
      <trkpt lat="48.54883" lon="1.93431">
        <ele>162.87</ele>
        <time>2019-11-24T10:24:34Z</time>
      </trkpt>
      <trkpt lat="48.549" lon="1.93442">
        <ele>176.6</ele>
        <time>2019-11-24T10:25:06Z</time>
      </trkpt>
      <trkpt lat="48.54914" lon="1.93459">
        <ele>175.7</ele>
        <time>2019-11-24T10:25:27Z</time>
      </trkpt>
      <trkpt lat="48.54933" lon="1.9346">
        <ele>171.12</ele>
        <time>2019-11-24T10:25:48Z</time>
      </trkpt>
      <trkpt lat="48.54953" lon="1.93465">
        <ele>169.11</ele>
        <time>2019-11-24T10:26:08Z</time>
      </trkpt>
      <trkpt lat="48.54972" lon="1.93471">
        <ele>178.08</ele>
        <time>2019-11-24T10:26:19Z</time>
      </trkpt>
      <trkpt lat="48.54992" lon="1.93476">
        <ele>179.06</ele>
        <time>2019-11-24T10:26:25Z</time>
      </trkpt>
      <trkpt lat="48.5501" lon="1.93479">
        <ele>175.37</ele>
        <time>2019-11-24T10:26:30Z</time>
      </trkpt>
      <trkpt lat="48.55027" lon="1.93485">
        <ele>176.32</ele>
        <time>2019-11-24T10:26:35Z</time>
      </trkpt>
      <trkpt lat="48.55047" lon="1.93491">
        <ele>176.88</ele>
        <time>2019-11-24T10:26:40Z</time>
      </trkpt>
      <trkpt lat="48.55068" lon="1.93491">
        <ele>173.37</ele>
        <time>2019-11-24T10:26:46Z</time>
      </trkpt>
      <trkpt lat="48.55083" lon="1.93475">
        <ele>176.13</ele>
        <time>2019-11-24T10:26:51Z</time>
      </trkpt>
      <trkpt lat="48.55102" lon="1.93457">
        <ele>171.75</ele>
        <time>2019-11-24T10:26:56Z</time>
      </trkpt>
      <trkpt lat="48.55118" lon="1.93441">
        <ele>173.35</ele>
        <time>2019-11-24T10:27:00Z</time>
      </trkpt>
      <trkpt lat="48.55135" lon="1.93424">
        <ele>174.39</ele>
        <time>2019-11-24T10:27:04Z</time>
      </trkpt>
      <trkpt lat="48.55152" lon="1.93404">
        <ele>175.58</ele>
        <time>2019-11-24T10:27:08Z</time>
      </trkpt>
      <trkpt lat="48.55167" lon="1.93388">
        <ele>174.94</ele>
        <time>2019-11-24T10:27:11Z</time>
      </trkpt>
      <trkpt lat="48.55182" lon="1.9337">
        <ele>173.33</ele>
        <time>2019-11-24T10:27:14Z</time>
      </trkpt>
      <trkpt lat="48.55197" lon="1.93352">
        <ele>172.22</ele>
        <time>2019-11-24T10:27:17Z</time>
      </trkpt>
      <trkpt lat="48.55215" lon="1.93336">
        <ele>169.25</ele>
        <time>2019-11-24T10:27:21Z</time>
      </trkpt>
      <trkpt lat="48.55232" lon="1.93322">
        <ele>166.23</ele>
        <time>2019-11-24T10:27:25Z</time>
      </trkpt>
      <trkpt lat="48.55229" lon="1.93292">
        <ele>160.4</ele>
        <time>2019-11-24T10:27:32Z</time>
      </trkpt>
      <trkpt lat="48.55211" lon="1.93277">
        <ele>162.14</ele>
        <time>2019-11-24T10:27:37Z</time>
      </trkpt>
      <trkpt lat="48.55189" lon="1.93264">
        <ele>165.26</ele>
        <time>2019-11-24T10:27:42Z</time>
      </trkpt>
      <trkpt lat="48.55171" lon="1.93256">
        <ele>168.33</ele>
        <time>2019-11-24T10:27:46Z</time>
      </trkpt>
      <trkpt lat="48.5515" lon="1.93252">
        <ele>168.91</ele>
        <time>2019-11-24T10:27:51Z</time>
      </trkpt>
      <trkpt lat="48.55129" lon="1.93246">
        <ele>171.88</ele>
        <time>2019-11-24T10:27:57Z</time>
      </trkpt>
      <trkpt lat="48.5511" lon="1.93241">
        <ele>173.74</ele>
        <time>2019-11-24T10:28:03Z</time>
      </trkpt>
      <trkpt lat="48.5509" lon="1.93239">
        <ele>172.36</ele>
        <time>2019-11-24T10:28:09Z</time>
      </trkpt>
      <trkpt lat="48.55073" lon="1.93229">
        <ele>172.48</ele>
        <time>2019-11-24T10:28:15Z</time>
      </trkpt>
      <trkpt lat="48.55061" lon="1.93207">
        <ele>171.75</ele>
        <time>2019-11-24T10:28:20Z</time>
      </trkpt>
      <trkpt lat="48.55049" lon="1.93184">
        <ele>171.65</ele>
        <time>2019-11-24T10:28:25Z</time>
      </trkpt>
      <trkpt lat="48.55036" lon="1.93158">
        <ele>176.61</ele>
        <time>2019-11-24T10:28:30Z</time>
      </trkpt>
      <trkpt lat="48.55022" lon="1.93138">
        <ele>174.38</ele>
        <time>2019-11-24T10:28:34Z</time>
      </trkpt>
      <trkpt lat="48.55008" lon="1.93115">
        <ele>170.91</ele>
        <time>2019-11-24T10:28:38Z</time>
      </trkpt>
      <trkpt lat="48.54991" lon="1.93098">
        <ele>169.2</ele>
        <time>2019-11-24T10:28:42Z</time>
      </trkpt>
      <trkpt lat="48.54971" lon="1.93067">
        <ele>167.85</ele>
        <time>2019-11-24T10:28:46Z</time>
      </trkpt>
      <trkpt lat="48.5495" lon="1.93053">
        <ele>161.6</ele>
        <time>2019-11-24T10:28:47Z</time>
      </trkpt>
      <trkpt lat="48.54932" lon="1.93032">
        <ele>153.38</ele>
        <time>2019-11-24T10:28:49Z</time>
      </trkpt>
      <trkpt lat="48.5492" lon="1.93006">
        <ele>148.77</ele>
        <time>2019-11-24T10:28:51Z</time>
      </trkpt>
      <trkpt lat="48.54909" lon="1.92975">
        <ele>144.77</ele>
        <time>2019-11-24T10:28:53Z</time>
      </trkpt>
      <trkpt lat="48.54901" lon="1.92941">
        <ele>142.12</ele>
        <time>2019-11-24T10:28:55Z</time>
      </trkpt>
      <trkpt lat="48.54891" lon="1.92912">
        <ele>140.77</ele>
        <time>2019-11-24T10:28:57Z</time>
      </trkpt>
      <trkpt lat="48.54885" lon="1.92886">
        <ele>139.83</ele>
        <time>2019-11-24T10:28:59Z</time>
      </trkpt>
      <trkpt lat="48.54878" lon="1.92861">
        <ele>138.11</ele>
        <time>2019-11-24T10:29:01Z</time>
      </trkpt>
      <trkpt lat="48.54872" lon="1.92828">
        <ele>139.15</ele>
        <time>2019-11-24T10:29:04Z</time>
      </trkpt>
      <trkpt lat="48.54857" lon="1.92811">
        <ele>147.83</ele>
        <time>2019-11-24T10:29:10Z</time>
      </trkpt>
      <trkpt lat="48.54827" lon="1.92821">
        <ele>146.57</ele>
        <time>2019-11-24T10:29:16Z</time>
      </trkpt>
      <trkpt lat="48.54808" lon="1.92817">
        <ele>142.13</ele>
        <time>2019-11-24T10:29:20Z</time>
      </trkpt>
      <trkpt lat="48.54791" lon="1.92802">
        <ele>139.77</ele>
        <time>2019-11-24T10:29:28Z</time>
      </trkpt>
      <trkpt lat="48.54789" lon="1.92774">
        <ele>138.7</ele>
        <time>2019-11-24T10:29:34Z</time>
      </trkpt>
      <trkpt lat="48.54793" lon="1.92746">
        <ele>137.88</ele>
        <time>2019-11-24T10:29:40Z</time>
      </trkpt>
      <trkpt lat="48.54796" lon="1.92715">
        <ele>137.44</ele>
        <time>2019-11-24T10:29:45Z</time>
      </trkpt>
      <trkpt lat="48.54806" lon="1.92689">
        <ele>136.03</ele>
        <time>2019-11-24T10:29:51Z</time>
      </trkpt>
      <trkpt lat="48.54813" lon="1.92659">
        <ele>141.33</ele>
        <time>2019-11-24T10:39:32Z</time>
      </trkpt>
      <trkpt lat="48.54818" lon="1.92628">
        <ele>144.51</ele>
        <time>2019-11-24T10:39:38Z</time>
      </trkpt>
      <trkpt lat="48.54826" lon="1.92599">
        <ele>144.59</ele>
        <time>2019-11-24T10:39:42Z</time>
      </trkpt>
      <trkpt lat="48.54833" lon="1.92572">
        <ele>145.01</ele>
        <time>2019-11-24T10:39:46Z</time>
      </trkpt>
      <trkpt lat="48.5484" lon="1.92545">
        <ele>145.79</ele>
        <time>2019-11-24T10:39:50Z</time>
      </trkpt>
      <trkpt lat="48.54848" lon="1.92516">
        <ele>146.09</ele>
        <time>2019-11-24T10:39:55Z</time>
      </trkpt>
      <trkpt lat="48.54857" lon="1.92486">
        <ele>146.1</ele>
        <time>2019-11-24T10:40:00Z</time>
      </trkpt>
      <trkpt lat="48.54865" lon="1.92456">
        <ele>147.87</ele>
        <time>2019-11-24T10:40:05Z</time>
      </trkpt>
      <trkpt lat="48.54873" lon="1.92428">
        <ele>149.59</ele>
        <time>2019-11-24T10:40:10Z</time>
      </trkpt>
      <trkpt lat="48.54882" lon="1.92397">
        <ele>150.23</ele>
        <time>2019-11-24T10:40:15Z</time>
      </trkpt>
      <trkpt lat="48.54889" lon="1.92371">
        <ele>149.28</ele>
        <time>2019-11-24T10:40:19Z</time>
      </trkpt>
      <trkpt lat="48.54897" lon="1.92346">
        <ele>149.4</ele>
        <time>2019-11-24T10:40:23Z</time>
      </trkpt>
      <trkpt lat="48.54905" lon="1.92316">
        <ele>149.23</ele>
        <time>2019-11-24T10:40:28Z</time>
      </trkpt>
      <trkpt lat="48.54913" lon="1.92291">
        <ele>148.97</ele>
        <time>2019-11-24T10:40:32Z</time>
      </trkpt>
      <trkpt lat="48.54922" lon="1.9226">
        <ele>149.66</ele>
        <time>2019-11-24T10:40:37Z</time>
      </trkpt>
      <trkpt lat="48.5493" lon="1.92233">
        <ele>150.6</ele>
        <time>2019-11-24T10:40:42Z</time>
      </trkpt>
      <trkpt lat="48.54938" lon="1.92206">
        <ele>150.68</ele>
        <time>2019-11-24T10:40:47Z</time>
      </trkpt>
      <trkpt lat="48.54946" lon="1.92178">
        <ele>151.35</ele>
        <time>2019-11-24T10:40:52Z</time>
      </trkpt>
      <trkpt lat="48.54955" lon="1.92148">
        <ele>151.15</ele>
        <time>2019-11-24T10:40:56Z</time>
      </trkpt>
      <trkpt lat="48.54966" lon="1.9212">
        <ele>149.55</ele>
        <time>2019-11-24T10:41:00Z</time>
      </trkpt>
      <trkpt lat="48.54974" lon="1.92094">
        <ele>149.65</ele>
        <time>2019-11-24T10:41:05Z</time>
      </trkpt>
      <trkpt lat="48.54981" lon="1.92067">
        <ele>150.51</ele>
        <time>2019-11-24T10:41:10Z</time>
      </trkpt>
      <trkpt lat="48.54989" lon="1.92039">
        <ele>149.96</ele>
        <time>2019-11-24T10:41:15Z</time>
      </trkpt>
      <trkpt lat="48.55002" lon="1.92014">
        <ele>149.59</ele>
        <time>2019-11-24T10:41:21Z</time>
      </trkpt>
      <trkpt lat="48.5501" lon="1.91978">
        <ele>149.58</ele>
        <time>2019-11-24T10:41:25Z</time>
      </trkpt>
      <trkpt lat="48.55015" lon="1.91949">
        <ele>153.92</ele>
        <time>2019-11-24T10:41:30Z</time>
      </trkpt>
      <trkpt lat="48.55024" lon="1.9192">
        <ele>151.63</ele>
        <time>2019-11-24T10:41:35Z</time>
      </trkpt>
      <trkpt lat="48.55032" lon="1.91892">
        <ele>152.75</ele>
        <time>2019-11-24T10:41:40Z</time>
      </trkpt>
      <trkpt lat="48.55041" lon="1.91864">
        <ele>152.88</ele>
        <time>2019-11-24T10:41:46Z</time>
      </trkpt>
      <trkpt lat="48.5505" lon="1.91836">
        <ele>152.28</ele>
        <time>2019-11-24T10:41:52Z</time>
      </trkpt>
      <trkpt lat="48.55059" lon="1.91808">
        <ele>152.55</ele>
        <time>2019-11-24T10:41:58Z</time>
      </trkpt>
      <trkpt lat="48.55065" lon="1.91781">
        <ele>152.99</ele>
        <time>2019-11-24T10:42:04Z</time>
      </trkpt>
      <trkpt lat="48.55068" lon="1.91754">
        <ele>152.57</ele>
        <time>2019-11-24T10:42:10Z</time>
      </trkpt>
      <trkpt lat="48.55071" lon="1.91724">
        <ele>152.22</ele>
        <time>2019-11-24T10:42:17Z</time>
      </trkpt>
      <trkpt lat="48.55073" lon="1.91695">
        <ele>152.08</ele>
        <time>2019-11-24T10:42:23Z</time>
      </trkpt>
      <trkpt lat="48.55074" lon="1.91666">
        <ele>155.32</ele>
        <time>2019-11-24T10:42:29Z</time>
      </trkpt>
      <trkpt lat="48.55073" lon="1.91634">
        <ele>158.01</ele>
        <time>2019-11-24T10:42:35Z</time>
      </trkpt>
      <trkpt lat="48.55071" lon="1.91602">
        <ele>160.59</ele>
        <time>2019-11-24T10:42:41Z</time>
      </trkpt>
      <trkpt lat="48.55073" lon="1.9157">
        <ele>161.02</ele>
        <time>2019-11-24T10:42:46Z</time>
      </trkpt>
      <trkpt lat="48.55074" lon="1.91539">
        <ele>162.19</ele>
        <time>2019-11-24T10:42:51Z</time>
      </trkpt>
      <trkpt lat="48.55072" lon="1.91511">
        <ele>162.46</ele>
        <time>2019-11-24T10:42:55Z</time>
      </trkpt>
      <trkpt lat="48.55073" lon="1.9148">
        <ele>164.84</ele>
        <time>2019-11-24T10:42:59Z</time>
      </trkpt>
      <trkpt lat="48.55072" lon="1.9145">
        <ele>164.76</ele>
        <time>2019-11-24T10:43:03Z</time>
      </trkpt>
      <trkpt lat="48.55071" lon="1.91422">
        <ele>162.39</ele>
        <time>2019-11-24T10:43:06Z</time>
      </trkpt>
      <trkpt lat="48.55071" lon="1.91395">
        <ele>161.67</ele>
        <time>2019-11-24T10:43:09Z</time>
      </trkpt>
      <trkpt lat="48.55073" lon="1.91367">
        <ele>163.16</ele>
        <time>2019-11-24T10:43:12Z</time>
      </trkpt>
      <trkpt lat="48.55075" lon="1.91333">
        <ele>163.87</ele>
        <time>2019-11-24T10:43:16Z</time>
      </trkpt>
      <trkpt lat="48.55077" lon="1.91303">
        <ele>162.29</ele>
        <time>2019-11-24T10:43:20Z</time>
      </trkpt>
      <trkpt lat="48.55094" lon="1.91291">
        <ele>158.55</ele>
        <time>2019-11-24T10:43:24Z</time>
      </trkpt>
      <trkpt lat="48.5511" lon="1.91303">
        <ele>158.29</ele>
        <time>2019-11-24T10:43:29Z</time>
      </trkpt>
      <trkpt lat="48.55121" lon="1.91329">
        <ele>157.63</ele>
        <time>2019-11-24T10:43:35Z</time>
      </trkpt>
      <trkpt lat="48.55126" lon="1.91361">
        <ele>157.23</ele>
        <time>2019-11-24T10:43:40Z</time>
      </trkpt>
      <trkpt lat="48.5513" lon="1.91388">
        <ele>155.94</ele>
        <time>2019-11-24T10:43:44Z</time>
      </trkpt>
      <trkpt lat="48.55134" lon="1.91423">
        <ele>153.7</ele>
        <time>2019-11-24T10:43:48Z</time>
      </trkpt>
      <trkpt lat="48.55137" lon="1.91451">
        <ele>152.86</ele>
        <time>2019-11-24T10:43:51Z</time>
      </trkpt>
      <trkpt lat="48.55139" lon="1.91484">
        <ele>151.73</ele>
        <time>2019-11-24T10:43:54Z</time>
      </trkpt>
      <trkpt lat="48.5514" lon="1.91514">
        <ele>150.88</ele>
        <time>2019-11-24T10:43:57Z</time>
      </trkpt>
      <trkpt lat="48.55142" lon="1.91543">
        <ele>148.94</ele>
        <time>2019-11-24T10:44:00Z</time>
      </trkpt>
      <trkpt lat="48.55141" lon="1.91572">
        <ele>148.33</ele>
        <time>2019-11-24T10:44:06Z</time>
      </trkpt>
      <trkpt lat="48.55142" lon="1.916">
        <ele>145.49</ele>
        <time>2019-11-24T10:46:24Z</time>
      </trkpt>
      <trkpt lat="48.55142" lon="1.91627">
        <ele>145.54</ele>
        <time>2019-11-24T10:46:28Z</time>
      </trkpt>
      <trkpt lat="48.55142" lon="1.91658">
        <ele>145.89</ele>
        <time>2019-11-24T10:46:34Z</time>
      </trkpt>
      <trkpt lat="48.55144" lon="1.91691">
        <ele>146.62</ele>
        <time>2019-11-24T10:46:37Z</time>
      </trkpt>
      <trkpt lat="48.55145" lon="1.91718">
        <ele>147.69</ele>
        <time>2019-11-24T10:46:41Z</time>
      </trkpt>
      <trkpt lat="48.55146" lon="1.91747">
        <ele>147.92</ele>
        <time>2019-11-24T10:46:46Z</time>
      </trkpt>
      <trkpt lat="48.5516" lon="1.91768">
        <ele>148.68</ele>
        <time>2019-11-24T10:46:51Z</time>
      </trkpt>
      <trkpt lat="48.55172" lon="1.91789">
        <ele>150.25</ele>
        <time>2019-11-24T10:47:04Z</time>
      </trkpt>
      <trkpt lat="48.55189" lon="1.91798">
        <ele>157.32</ele>
        <time>2019-11-24T10:48:40Z</time>
      </trkpt>
      <trkpt lat="48.55206" lon="1.91807">
        <ele>162.37</ele>
        <time>2019-11-24T10:49:08Z</time>
      </trkpt>
      <trkpt lat="48.5521" lon="1.91835">
        <ele>168.37</ele>
        <time>2019-11-24T10:49:24Z</time>
      </trkpt>
      <trkpt lat="48.55217" lon="1.91861">
        <ele>175.7</ele>
        <time>2019-11-24T10:49:34Z</time>
      </trkpt>
      <trkpt lat="48.55217" lon="1.91889">
        <ele>179</ele>
        <time>2019-11-24T10:49:42Z</time>
      </trkpt>
      <trkpt lat="48.55219" lon="1.91918">
        <ele>184.03</ele>
        <time>2019-11-24T10:49:48Z</time>
      </trkpt>
      <trkpt lat="48.55224" lon="1.91946">
        <ele>184.11</ele>
        <time>2019-11-24T10:49:53Z</time>
      </trkpt>
      <trkpt lat="48.55229" lon="1.91977">
        <ele>181.81</ele>
        <time>2019-11-24T10:49:59Z</time>
      </trkpt>
      <trkpt lat="48.55232" lon="1.92008">
        <ele>182.06</ele>
        <time>2019-11-24T10:50:05Z</time>
      </trkpt>
      <trkpt lat="48.55236" lon="1.92035">
        <ele>181.67</ele>
        <time>2019-11-24T10:50:10Z</time>
      </trkpt>
      <trkpt lat="48.55238" lon="1.92062">
        <ele>182.96</ele>
        <time>2019-11-24T10:50:15Z</time>
      </trkpt>
      <trkpt lat="48.55235" lon="1.92091">
        <ele>178.43</ele>
        <time>2019-11-24T10:50:21Z</time>
      </trkpt>
      <trkpt lat="48.55239" lon="1.92119">
        <ele>178.44</ele>
        <time>2019-11-24T10:50:30Z</time>
      </trkpt>
      <trkpt lat="48.55241" lon="1.92148">
        <ele>176.6</ele>
        <time>2019-11-24T10:50:39Z</time>
      </trkpt>
      <trkpt lat="48.55242" lon="1.92176">
        <ele>177.39</ele>
        <time>2019-11-24T10:50:47Z</time>
      </trkpt>
      <trkpt lat="48.55243" lon="1.92207">
        <ele>180.14</ele>
        <time>2019-11-24T10:50:55Z</time>
      </trkpt>
      <trkpt lat="48.55245" lon="1.92235">
        <ele>180.56</ele>
        <time>2019-11-24T10:51:02Z</time>
      </trkpt>
      <trkpt lat="48.55248" lon="1.92262">
        <ele>181.61</ele>
        <time>2019-11-24T10:51:09Z</time>
      </trkpt>
      <trkpt lat="48.55249" lon="1.92289">
        <ele>175.99</ele>
        <time>2019-11-24T10:51:16Z</time>
      </trkpt>
      <trkpt lat="48.55251" lon="1.92318">
        <ele>179.39</ele>
        <time>2019-11-24T10:51:26Z</time>
      </trkpt>
      <trkpt lat="48.55254" lon="1.92345">
        <ele>174.42</ele>
        <time>2019-11-24T10:52:03Z</time>
      </trkpt>
      <trkpt lat="48.55248" lon="1.92372">
        <ele>175.13</ele>
        <time>2019-11-24T10:52:10Z</time>
      </trkpt>
      <trkpt lat="48.55248" lon="1.92402">
        <ele>173.28</ele>
        <time>2019-11-24T10:52:17Z</time>
      </trkpt>
      <trkpt lat="48.5526" lon="1.92424">
        <ele>170.57</ele>
        <time>2019-11-24T10:52:23Z</time>
      </trkpt>
      <trkpt lat="48.5527" lon="1.92448">
        <ele>172.99</ele>
        <time>2019-11-24T10:52:29Z</time>
      </trkpt>
      <trkpt lat="48.55279" lon="1.92472">
        <ele>174.59</ele>
        <time>2019-11-24T10:52:33Z</time>
      </trkpt>
      <trkpt lat="48.55291" lon="1.925">
        <ele>177.3</ele>
        <time>2019-11-24T10:52:38Z</time>
      </trkpt>
      <trkpt lat="48.55301" lon="1.92525">
        <ele>173.38</ele>
        <time>2019-11-24T10:52:42Z</time>
      </trkpt>
      <trkpt lat="48.55311" lon="1.92558">
        <ele>167.07</ele>
        <time>2019-11-24T10:52:47Z</time>
      </trkpt>
      <trkpt lat="48.55315" lon="1.92584">
        <ele>164.09</ele>
        <time>2019-11-24T10:52:50Z</time>
      </trkpt>
      <trkpt lat="48.55323" lon="1.92614">
        <ele>165.4</ele>
        <time>2019-11-24T10:52:54Z</time>
      </trkpt>
      <trkpt lat="48.55336" lon="1.92641">
        <ele>167.77</ele>
        <time>2019-11-24T10:52:59Z</time>
      </trkpt>
      <trkpt lat="48.55339" lon="1.9267">
        <ele>169.75</ele>
        <time>2019-11-24T10:53:05Z</time>
      </trkpt>
      <trkpt lat="48.5534" lon="1.92701">
        <ele>170.03</ele>
        <time>2019-11-24T10:53:11Z</time>
      </trkpt>
      <trkpt lat="48.55342" lon="1.92735">
        <ele>168.73</ele>
        <time>2019-11-24T10:53:16Z</time>
      </trkpt>
      <trkpt lat="48.55347" lon="1.92765">
        <ele>168.44</ele>
        <time>2019-11-24T10:53:20Z</time>
      </trkpt>
      <trkpt lat="48.55355" lon="1.92792">
        <ele>166.7</ele>
        <time>2019-11-24T10:53:25Z</time>
      </trkpt>
      <trkpt lat="48.55363" lon="1.92817">
        <ele>164.44</ele>
        <time>2019-11-24T10:53:30Z</time>
      </trkpt>
      <trkpt lat="48.55378" lon="1.92837">
        <ele>166.02</ele>
        <time>2019-11-24T10:53:36Z</time>
      </trkpt>
      <trkpt lat="48.55387" lon="1.92864">
        <ele>166.07</ele>
        <time>2019-11-24T10:53:42Z</time>
      </trkpt>
      <trkpt lat="48.55399" lon="1.92886">
        <ele>165.65</ele>
        <time>2019-11-24T10:53:48Z</time>
      </trkpt>
      <trkpt lat="48.55415" lon="1.92902">
        <ele>166.02</ele>
        <time>2019-11-24T10:53:55Z</time>
      </trkpt>
      <trkpt lat="48.55426" lon="1.92927">
        <ele>168.07</ele>
        <time>2019-11-24T10:54:01Z</time>
      </trkpt>
      <trkpt lat="48.55443" lon="1.92945">
        <ele>167.34</ele>
        <time>2019-11-24T10:54:08Z</time>
      </trkpt>
      <trkpt lat="48.5546" lon="1.92957">
        <ele>165.98</ele>
        <time>2019-11-24T10:54:14Z</time>
      </trkpt>
      <trkpt lat="48.55478" lon="1.92964">
        <ele>165.53</ele>
        <time>2019-11-24T10:54:21Z</time>
      </trkpt>
      <trkpt lat="48.55488" lon="1.92988">
        <ele>168.24</ele>
        <time>2019-11-24T10:54:27Z</time>
      </trkpt>
      <trkpt lat="48.55498" lon="1.93013">
        <ele>167.76</ele>
        <time>2019-11-24T10:54:31Z</time>
      </trkpt>
      <trkpt lat="48.55511" lon="1.93034">
        <ele>168.3</ele>
        <time>2019-11-24T10:54:36Z</time>
      </trkpt>
      <trkpt lat="48.55516" lon="1.93063">
        <ele>171.48</ele>
        <time>2019-11-24T10:54:41Z</time>
      </trkpt>
      <trkpt lat="48.55525" lon="1.93087">
        <ele>171.36</ele>
        <time>2019-11-24T10:54:46Z</time>
      </trkpt>
      <trkpt lat="48.55539" lon="1.93108">
        <ele>172.03</ele>
        <time>2019-11-24T10:54:52Z</time>
      </trkpt>
      <trkpt lat="48.55558" lon="1.93121">
        <ele>170.05</ele>
        <time>2019-11-24T10:54:58Z</time>
      </trkpt>
      <trkpt lat="48.55576" lon="1.93131">
        <ele>171.64</ele>
        <time>2019-11-24T10:55:04Z</time>
      </trkpt>
      <trkpt lat="48.55584" lon="1.93162">
        <ele>172.95</ele>
        <time>2019-11-24T10:55:09Z</time>
      </trkpt>
      <trkpt lat="48.55571" lon="1.93186">
        <ele>170.62</ele>
        <time>2019-11-24T10:55:14Z</time>
      </trkpt>
      <trkpt lat="48.55574" lon="1.93217">
        <ele>169.49</ele>
        <time>2019-11-24T10:55:22Z</time>
      </trkpt>
      <trkpt lat="48.55584" lon="1.93244">
        <ele>171.04</ele>
        <time>2019-11-24T10:55:28Z</time>
      </trkpt>
      <trkpt lat="48.55581" lon="1.93272">
        <ele>172.83</ele>
        <time>2019-11-24T10:55:34Z</time>
      </trkpt>
      <trkpt lat="48.55578" lon="1.93299">
        <ele>171.5</ele>
        <time>2019-11-24T10:55:39Z</time>
      </trkpt>
      <trkpt lat="48.55585" lon="1.93326">
        <ele>169.21</ele>
        <time>2019-11-24T10:55:45Z</time>
      </trkpt>
      <trkpt lat="48.5559" lon="1.93354">
        <ele>168.13</ele>
        <time>2019-11-24T10:55:51Z</time>
      </trkpt>
      <trkpt lat="48.55594" lon="1.93382">
        <ele>170.45</ele>
        <time>2019-11-24T10:55:58Z</time>
      </trkpt>
      <trkpt lat="48.55606" lon="1.93405">
        <ele>169.24</ele>
        <time>2019-11-24T10:56:04Z</time>
      </trkpt>
      <trkpt lat="48.55605" lon="1.93433">
        <ele>171.94</ele>
        <time>2019-11-24T10:56:10Z</time>
      </trkpt>
      <trkpt lat="48.55609" lon="1.93462">
        <ele>175.23</ele>
        <time>2019-11-24T10:56:17Z</time>
      </trkpt>
      <trkpt lat="48.55612" lon="1.93491">
        <ele>175.09</ele>
        <time>2019-11-24T10:56:23Z</time>
      </trkpt>
      <trkpt lat="48.55617" lon="1.93519">
        <ele>174.08</ele>
        <time>2019-11-24T10:56:29Z</time>
      </trkpt>
      <trkpt lat="48.55625" lon="1.93548">
        <ele>172.64</ele>
        <time>2019-11-24T10:56:35Z</time>
      </trkpt>
      <trkpt lat="48.55635" lon="1.93571">
        <ele>174.62</ele>
        <time>2019-11-24T10:56:40Z</time>
      </trkpt>
      <trkpt lat="48.55642" lon="1.93598">
        <ele>173.67</ele>
        <time>2019-11-24T10:56:47Z</time>
      </trkpt>
      <trkpt lat="48.55651" lon="1.93622">
        <ele>172.84</ele>
        <time>2019-11-24T10:56:52Z</time>
      </trkpt>
      <trkpt lat="48.55661" lon="1.93645">
        <ele>174.04</ele>
        <time>2019-11-24T10:56:57Z</time>
      </trkpt>
      <trkpt lat="48.55672" lon="1.93668">
        <ele>174.95</ele>
        <time>2019-11-24T10:57:03Z</time>
      </trkpt>
      <trkpt lat="48.55686" lon="1.93692">
        <ele>172.37</ele>
        <time>2019-11-24T10:57:09Z</time>
      </trkpt>
      <trkpt lat="48.557" lon="1.93712">
        <ele>171.78</ele>
        <time>2019-11-24T10:57:14Z</time>
      </trkpt>
      <trkpt lat="48.55716" lon="1.93733">
        <ele>172.11</ele>
        <time>2019-11-24T10:57:19Z</time>
      </trkpt>
      <trkpt lat="48.55727" lon="1.9376">
        <ele>173.83</ele>
        <time>2019-11-24T10:57:24Z</time>
      </trkpt>
      <trkpt lat="48.55734" lon="1.93785">
        <ele>172.52</ele>
        <time>2019-11-24T10:57:28Z</time>
      </trkpt>
      <trkpt lat="48.55746" lon="1.93811">
        <ele>167.45</ele>
        <time>2019-11-24T10:57:33Z</time>
      </trkpt>
      <trkpt lat="48.55749" lon="1.93841">
        <ele>163.24</ele>
        <time>2019-11-24T10:57:37Z</time>
      </trkpt>
      <trkpt lat="48.55754" lon="1.93867">
        <ele>163.3</ele>
        <time>2019-11-24T10:57:40Z</time>
      </trkpt>
      <trkpt lat="48.55763" lon="1.93891">
        <ele>159.96</ele>
        <time>2019-11-24T10:57:44Z</time>
      </trkpt>
      <trkpt lat="48.55777" lon="1.93911">
        <ele>161.21</ele>
        <time>2019-11-24T10:57:52Z</time>
      </trkpt>
      <trkpt lat="48.55778" lon="1.9394">
        <ele>164.9</ele>
        <time>2019-11-24T10:57:59Z</time>
      </trkpt>
      <trkpt lat="48.55783" lon="1.93967">
        <ele>168.75</ele>
        <time>2019-11-24T10:58:08Z</time>
      </trkpt>
      <trkpt lat="48.55793" lon="1.93991">
        <ele>167.08</ele>
        <time>2019-11-24T10:58:19Z</time>
      </trkpt>
      <trkpt lat="48.55809" lon="1.94007">
        <ele>167.23</ele>
        <time>2019-11-24T10:58:28Z</time>
      </trkpt>
      <trkpt lat="48.55821" lon="1.94028">
        <ele>168.83</ele>
        <time>2019-11-24T10:58:37Z</time>
      </trkpt>
      <trkpt lat="48.55835" lon="1.94045">
        <ele>168.06</ele>
        <time>2019-11-24T10:58:45Z</time>
      </trkpt>
      <trkpt lat="48.55847" lon="1.94071">
        <ele>170.51</ele>
        <time>2019-11-24T10:58:54Z</time>
      </trkpt>
      <trkpt lat="48.55854" lon="1.94097">
        <ele>169.62</ele>
        <time>2019-11-24T10:59:01Z</time>
      </trkpt>
      <trkpt lat="48.55863" lon="1.94125">
        <ele>157.62</ele>
        <time>2019-11-24T10:59:08Z</time>
      </trkpt>
      <trkpt lat="48.55869" lon="1.9416">
        <ele>155.03</ele>
        <time>2019-11-24T10:59:11Z</time>
      </trkpt>
      <trkpt lat="48.55877" lon="1.94188">
        <ele>155.73</ele>
        <time>2019-11-24T10:59:15Z</time>
      </trkpt>
      <trkpt lat="48.55892" lon="1.94211">
        <ele>157.33</ele>
        <time>2019-11-24T10:59:23Z</time>
      </trkpt>
      <trkpt lat="48.55905" lon="1.94237">
        <ele>151.62</ele>
        <time>2019-11-24T10:59:28Z</time>
      </trkpt>
      <trkpt lat="48.55919" lon="1.94254">
        <ele>148.01</ele>
        <time>2019-11-24T10:59:31Z</time>
      </trkpt>
      <trkpt lat="48.55943" lon="1.94279">
        <ele>147.04</ele>
        <time>2019-11-24T10:59:34Z</time>
      </trkpt>
      <trkpt lat="48.55956" lon="1.94299">
        <ele>145.31</ele>
        <time>2019-11-24T10:59:37Z</time>
      </trkpt>
      <trkpt lat="48.55965" lon="1.94327">
        <ele>144.23</ele>
        <time>2019-11-24T10:59:40Z</time>
      </trkpt>
      <trkpt lat="48.55981" lon="1.94349">
        <ele>142.89</ele>
        <time>2019-11-24T10:59:45Z</time>
      </trkpt>
      <trkpt lat="48.55995" lon="1.94371">
        <ele>143.42</ele>
        <time>2019-11-24T10:59:50Z</time>
      </trkpt>
      <trkpt lat="48.56002" lon="1.94398">
        <ele>151.73</ele>
        <time>2019-11-24T11:00:02Z</time>
      </trkpt>
      <trkpt lat="48.56009" lon="1.94424">
        <ele>157.83</ele>
        <time>2019-11-24T11:00:12Z</time>
      </trkpt>
      <trkpt lat="48.56015" lon="1.94451">
        <ele>156.2</ele>
        <time>2019-11-24T11:00:20Z</time>
      </trkpt>
      <trkpt lat="48.5602" lon="1.94479">
        <ele>153.71</ele>
        <time>2019-11-24T11:00:27Z</time>
      </trkpt>
      <trkpt lat="48.56015" lon="1.94506">
        <ele>155.94</ele>
        <time>2019-11-24T11:00:34Z</time>
      </trkpt>
      <trkpt lat="48.56008" lon="1.94532">
        <ele>154.9</ele>
        <time>2019-11-24T11:00:42Z</time>
      </trkpt>
      <trkpt lat="48.56018" lon="1.9456">
        <ele>152.29</ele>
        <time>2019-11-24T11:00:49Z</time>
      </trkpt>
      <trkpt lat="48.56026" lon="1.94586">
        <ele>151.48</ele>
        <time>2019-11-24T11:00:54Z</time>
      </trkpt>
      <trkpt lat="48.56039" lon="1.94606">
        <ele>152.03</ele>
        <time>2019-11-24T11:00:59Z</time>
      </trkpt>
      <trkpt lat="48.56048" lon="1.94631">
        <ele>151.99</ele>
        <time>2019-11-24T11:01:03Z</time>
      </trkpt>
      <trkpt lat="48.56053" lon="1.94658">
        <ele>156.61</ele>
        <time>2019-11-24T11:01:12Z</time>
      </trkpt>
      <trkpt lat="48.56045" lon="1.94685">
        <ele>157.66</ele>
        <time>2019-11-24T11:01:20Z</time>
      </trkpt>
      <trkpt lat="48.56035" lon="1.94711">
        <ele>154.57</ele>
        <time>2019-11-24T11:01:28Z</time>
      </trkpt>
      <trkpt lat="48.56027" lon="1.94736">
        <ele>159.29</ele>
        <time>2019-11-24T11:01:37Z</time>
      </trkpt>
      <trkpt lat="48.56022" lon="1.94764">
        <ele>159.89</ele>
        <time>2019-11-24T11:01:46Z</time>
      </trkpt>
      <trkpt lat="48.56033" lon="1.94788">
        <ele>167.97</ele>
        <time>2019-11-24T11:01:55Z</time>
      </trkpt>
      <trkpt lat="48.56008" lon="1.94796">
        <ele>164.56</ele>
        <time>2019-11-24T11:01:56Z</time>
      </trkpt>
      <trkpt lat="48.55996" lon="1.94821">
        <ele>159.43</ele>
        <time>2019-11-24T11:02:02Z</time>
      </trkpt>
      <trkpt lat="48.55985" lon="1.94845">
        <ele>160.14</ele>
        <time>2019-11-24T11:02:08Z</time>
      </trkpt>
      <trkpt lat="48.55976" lon="1.9487">
        <ele>161.02</ele>
        <time>2019-11-24T11:02:14Z</time>
      </trkpt>
      <trkpt lat="48.55966" lon="1.94898">
        <ele>161.05</ele>
        <time>2019-11-24T11:02:20Z</time>
      </trkpt>
      <trkpt lat="48.55957" lon="1.94923">
        <ele>160.5</ele>
        <time>2019-11-24T11:02:26Z</time>
      </trkpt>
      <trkpt lat="48.55949" lon="1.94949">
        <ele>157.67</ele>
        <time>2019-11-24T11:02:32Z</time>
      </trkpt>
      <trkpt lat="48.55939" lon="1.94977">
        <ele>159.61</ele>
        <time>2019-11-24T11:02:38Z</time>
      </trkpt>
      <trkpt lat="48.55929" lon="1.95001">
        <ele>160.01</ele>
        <time>2019-11-24T11:02:43Z</time>
      </trkpt>
      <trkpt lat="48.55919" lon="1.95025">
        <ele>160.37</ele>
        <time>2019-11-24T11:02:48Z</time>
      </trkpt>
      <trkpt lat="48.5591" lon="1.95048">
        <ele>160.21</ele>
        <time>2019-11-24T11:02:53Z</time>
      </trkpt>
      <trkpt lat="48.559" lon="1.95072">
        <ele>160.68</ele>
        <time>2019-11-24T11:02:58Z</time>
      </trkpt>
      <trkpt lat="48.5589" lon="1.95097">
        <ele>164.28</ele>
        <time>2019-11-24T11:03:04Z</time>
      </trkpt>
      <trkpt lat="48.55881" lon="1.95124">
        <ele>164.49</ele>
        <time>2019-11-24T11:03:11Z</time>
      </trkpt>
      <trkpt lat="48.55865" lon="1.95141">
        <ele>165.34</ele>
        <time>2019-11-24T11:03:16Z</time>
      </trkpt>
      <trkpt lat="48.55874" lon="1.95117">
        <ele>164.01</ele>
        <time>2019-11-24T11:04:12Z</time>
      </trkpt>
      <trkpt lat="48.55865" lon="1.95141">
        <ele>170.96</ele>
        <time>2019-11-24T11:05:23Z</time>
      </trkpt>
      <trkpt lat="48.55853" lon="1.95165">
        <ele>170.9</ele>
        <time>2019-11-24T11:05:33Z</time>
      </trkpt>
      <trkpt lat="48.55846" lon="1.95192">
        <ele>170.03</ele>
        <time>2019-11-24T11:05:41Z</time>
      </trkpt>
      <trkpt lat="48.55835" lon="1.95216">
        <ele>171.72</ele>
        <time>2019-11-24T11:05:48Z</time>
      </trkpt>
      <trkpt lat="48.55829" lon="1.95242">
        <ele>171.82</ele>
        <time>2019-11-24T11:05:54Z</time>
      </trkpt>
      <trkpt lat="48.5582" lon="1.95267">
        <ele>170.6</ele>
        <time>2019-11-24T11:06:00Z</time>
      </trkpt>
      <trkpt lat="48.55809" lon="1.95293">
        <ele>167.73</ele>
        <time>2019-11-24T11:06:06Z</time>
      </trkpt>
      <trkpt lat="48.55791" lon="1.95304">
        <ele>163.28</ele>
        <time>2019-11-24T11:06:11Z</time>
      </trkpt>
      <trkpt lat="48.55771" lon="1.95296">
        <ele>162.45</ele>
        <time>2019-11-24T11:06:17Z</time>
      </trkpt>
      <trkpt lat="48.55749" lon="1.95292">
        <ele>163.06</ele>
        <time>2019-11-24T11:06:23Z</time>
      </trkpt>
      <trkpt lat="48.5573" lon="1.95301">
        <ele>166.3</ele>
        <time>2019-11-24T11:06:29Z</time>
      </trkpt>
      <trkpt lat="48.55715" lon="1.95285">
        <ele>167.15</ele>
        <time>2019-11-24T11:06:36Z</time>
      </trkpt>
      <trkpt lat="48.55696" lon="1.95276">
        <ele>170.18</ele>
        <time>2019-11-24T11:06:43Z</time>
      </trkpt>
      <trkpt lat="48.55678" lon="1.95265">
        <ele>171.07</ele>
        <time>2019-11-24T11:06:49Z</time>
      </trkpt>
      <trkpt lat="48.5566" lon="1.95254">
        <ele>174.56</ele>
        <time>2019-11-24T11:06:56Z</time>
      </trkpt>
      <trkpt lat="48.5564" lon="1.95245">
        <ele>175.08</ele>
        <time>2019-11-24T11:07:03Z</time>
      </trkpt>
      <trkpt lat="48.55621" lon="1.95246">
        <ele>174.92</ele>
        <time>2019-11-24T11:07:11Z</time>
      </trkpt>
      <trkpt lat="48.55603" lon="1.95244">
        <ele>169.44</ele>
        <time>2019-11-24T11:07:22Z</time>
      </trkpt>
      <trkpt lat="48.55586" lon="1.95257">
        <ele>169.86</ele>
        <time>2019-11-24T11:07:27Z</time>
      </trkpt>
      <trkpt lat="48.55568" lon="1.95271">
        <ele>169.14</ele>
        <time>2019-11-24T11:07:32Z</time>
      </trkpt>
      <trkpt lat="48.55549" lon="1.95287">
        <ele>169.93</ele>
        <time>2019-11-24T11:07:39Z</time>
      </trkpt>
      <trkpt lat="48.55531" lon="1.95303">
        <ele>169.59</ele>
        <time>2019-11-24T11:07:44Z</time>
      </trkpt>
      <trkpt lat="48.55514" lon="1.95316">
        <ele>169.25</ele>
        <time>2019-11-24T11:07:50Z</time>
      </trkpt>
      <trkpt lat="48.55498" lon="1.9533">
        <ele>171.18</ele>
        <time>2019-11-24T11:07:55Z</time>
      </trkpt>
      <trkpt lat="48.55481" lon="1.95345">
        <ele>170.6</ele>
        <time>2019-11-24T11:08:02Z</time>
      </trkpt>
      <trkpt lat="48.55466" lon="1.95358">
        <ele>168.74</ele>
        <time>2019-11-24T11:08:08Z</time>
      </trkpt>
      <trkpt lat="48.55451" lon="1.95373">
        <ele>170.05</ele>
        <time>2019-11-24T11:08:12Z</time>
      </trkpt>
      <trkpt lat="48.55432" lon="1.95387">
        <ele>172.07</ele>
        <time>2019-11-24T11:08:17Z</time>
      </trkpt>
      <trkpt lat="48.55416" lon="1.954">
        <ele>172.78</ele>
        <time>2019-11-24T11:08:23Z</time>
      </trkpt>
      <trkpt lat="48.55398" lon="1.95415">
        <ele>174.41</ele>
        <time>2019-11-24T11:08:28Z</time>
      </trkpt>
      <trkpt lat="48.5538" lon="1.95429">
        <ele>177.42</ele>
        <time>2019-11-24T11:08:34Z</time>
      </trkpt>
      <trkpt lat="48.55364" lon="1.95444">
        <ele>176.14</ele>
        <time>2019-11-24T11:08:39Z</time>
      </trkpt>
      <trkpt lat="48.55347" lon="1.95461">
        <ele>177.28</ele>
        <time>2019-11-24T11:08:45Z</time>
      </trkpt>
      <trkpt lat="48.5533" lon="1.95474">
        <ele>172.8</ele>
        <time>2019-11-24T11:08:51Z</time>
      </trkpt>
      <trkpt lat="48.55311" lon="1.95487">
        <ele>170.02</ele>
        <time>2019-11-24T11:08:57Z</time>
      </trkpt>
      <trkpt lat="48.55298" lon="1.95508">
        <ele>170.11</ele>
        <time>2019-11-24T11:09:02Z</time>
      </trkpt>
      <trkpt lat="48.55286" lon="1.95532">
        <ele>169.44</ele>
        <time>2019-11-24T11:09:09Z</time>
      </trkpt>
      <trkpt lat="48.55276" lon="1.95561">
        <ele>172.01</ele>
        <time>2019-11-24T11:09:15Z</time>
      </trkpt>
      <trkpt lat="48.55269" lon="1.95588">
        <ele>175.83</ele>
        <time>2019-11-24T11:09:20Z</time>
      </trkpt>
      <trkpt lat="48.55262" lon="1.95616">
        <ele>177.46</ele>
        <time>2019-11-24T11:09:26Z</time>
      </trkpt>
      <trkpt lat="48.55252" lon="1.95642">
        <ele>177.37</ele>
        <time>2019-11-24T11:09:32Z</time>
      </trkpt>
      <trkpt lat="48.55242" lon="1.95667">
        <ele>173.69</ele>
        <time>2019-11-24T11:09:36Z</time>
      </trkpt>
      <trkpt lat="48.5523" lon="1.95693">
        <ele>172</ele>
        <time>2019-11-24T11:09:41Z</time>
      </trkpt>
      <trkpt lat="48.55218" lon="1.95721">
        <ele>171.39</ele>
        <time>2019-11-24T11:09:46Z</time>
      </trkpt>
      <trkpt lat="48.55209" lon="1.95749">
        <ele>172.23</ele>
        <time>2019-11-24T11:09:51Z</time>
      </trkpt>
      <trkpt lat="48.55198" lon="1.95775">
        <ele>174.06</ele>
        <time>2019-11-24T11:09:56Z</time>
      </trkpt>
      <trkpt lat="48.55189" lon="1.95803">
        <ele>177.6</ele>
        <time>2019-11-24T11:10:02Z</time>
      </trkpt>
      <trkpt lat="48.5518" lon="1.95829">
        <ele>177.09</ele>
        <time>2019-11-24T11:10:07Z</time>
      </trkpt>
      <trkpt lat="48.55172" lon="1.95854">
        <ele>175.94</ele>
        <time>2019-11-24T11:10:12Z</time>
      </trkpt>
      <trkpt lat="48.55166" lon="1.95882">
        <ele>176.64</ele>
        <time>2019-11-24T11:10:17Z</time>
      </trkpt>
      <trkpt lat="48.55157" lon="1.95909">
        <ele>173.14</ele>
        <time>2019-11-24T11:10:22Z</time>
      </trkpt>
      <trkpt lat="48.55146" lon="1.95938">
        <ele>173.89</ele>
        <time>2019-11-24T11:10:27Z</time>
      </trkpt>
      <trkpt lat="48.55136" lon="1.95966">
        <ele>173.2</ele>
        <time>2019-11-24T11:10:32Z</time>
      </trkpt>
      <trkpt lat="48.55129" lon="1.95995">
        <ele>173.52</ele>
        <time>2019-11-24T11:10:38Z</time>
      </trkpt>
      <trkpt lat="48.55119" lon="1.9602">
        <ele>173.18</ele>
        <time>2019-11-24T11:10:43Z</time>
      </trkpt>
      <trkpt lat="48.55109" lon="1.96048">
        <ele>173.52</ele>
        <time>2019-11-24T11:10:49Z</time>
      </trkpt>
      <trkpt lat="48.55099" lon="1.96076">
        <ele>172.29</ele>
        <time>2019-11-24T11:10:54Z</time>
      </trkpt>
      <trkpt lat="48.55088" lon="1.96102">
        <ele>170.75</ele>
        <time>2019-11-24T11:10:59Z</time>
      </trkpt>
      <trkpt lat="48.55079" lon="1.96131">
        <ele>171.95</ele>
        <time>2019-11-24T11:11:05Z</time>
      </trkpt>
      <trkpt lat="48.55069" lon="1.96155">
        <ele>172.13</ele>
        <time>2019-11-24T11:11:11Z</time>
      </trkpt>
      <trkpt lat="48.55061" lon="1.96181">
        <ele>173.44</ele>
        <time>2019-11-24T11:11:17Z</time>
      </trkpt>
      <trkpt lat="48.55054" lon="1.9621">
        <ele>172.56</ele>
        <time>2019-11-24T11:11:24Z</time>
      </trkpt>
      <trkpt lat="48.55044" lon="1.96237">
        <ele>170.68</ele>
        <time>2019-11-24T11:11:28Z</time>
      </trkpt>
      <trkpt lat="48.55032" lon="1.96265">
        <ele>172.56</ele>
        <time>2019-11-24T11:11:33Z</time>
      </trkpt>
      <trkpt lat="48.55026" lon="1.96294">
        <ele>178.83</ele>
        <time>2019-11-24T11:11:39Z</time>
      </trkpt>
      <trkpt lat="48.55017" lon="1.96318">
        <ele>182.6</ele>
        <time>2019-11-24T11:11:44Z</time>
      </trkpt>
      <trkpt lat="48.5501" lon="1.96347">
        <ele>180.58</ele>
        <time>2019-11-24T11:11:49Z</time>
      </trkpt>
      <trkpt lat="48.54999" lon="1.96371">
        <ele>175.08</ele>
        <time>2019-11-24T11:11:53Z</time>
      </trkpt>
      <trkpt lat="48.54987" lon="1.96398">
        <ele>171.55</ele>
        <time>2019-11-24T11:11:58Z</time>
      </trkpt>
      <trkpt lat="48.54978" lon="1.96421">
        <ele>169.84</ele>
        <time>2019-11-24T11:12:02Z</time>
      </trkpt>
      <trkpt lat="48.54969" lon="1.96445">
        <ele>168.08</ele>
        <time>2019-11-24T11:12:06Z</time>
      </trkpt>
      <trkpt lat="48.5496" lon="1.96473">
        <ele>166.67</ele>
        <time>2019-11-24T11:12:11Z</time>
      </trkpt>
      <trkpt lat="48.54954" lon="1.96503">
        <ele>169.51</ele>
        <time>2019-11-24T11:12:16Z</time>
      </trkpt>
      <trkpt lat="48.54948" lon="1.96535">
        <ele>172.38</ele>
        <time>2019-11-24T11:12:21Z</time>
      </trkpt>
      <trkpt lat="48.54937" lon="1.96557">
        <ele>169.68</ele>
        <time>2019-11-24T11:12:25Z</time>
      </trkpt>
      <trkpt lat="48.54926" lon="1.96579">
        <ele>170.2</ele>
        <time>2019-11-24T11:12:29Z</time>
      </trkpt>
      <trkpt lat="48.54911" lon="1.96607">
        <ele>167.56</ele>
        <time>2019-11-24T11:12:32Z</time>
      </trkpt>
      <trkpt lat="48.54905" lon="1.96637">
        <ele>170.98</ele>
        <time>2019-11-24T11:12:38Z</time>
      </trkpt>
      <trkpt lat="48.54899" lon="1.96665">
        <ele>171.15</ele>
        <time>2019-11-24T11:12:43Z</time>
      </trkpt>
      <trkpt lat="48.54888" lon="1.96695">
        <ele>176.12</ele>
        <time>2019-11-24T11:12:48Z</time>
      </trkpt>
      <trkpt lat="48.54875" lon="1.96719">
        <ele>175.09</ele>
        <time>2019-11-24T11:12:52Z</time>
      </trkpt>
      <trkpt lat="48.54866" lon="1.96745">
        <ele>175.5</ele>
        <time>2019-11-24T11:12:56Z</time>
      </trkpt>
      <trkpt lat="48.54858" lon="1.96772">
        <ele>174.79</ele>
        <time>2019-11-24T11:13:00Z</time>
      </trkpt>
      <trkpt lat="48.54849" lon="1.96797">
        <ele>174.14</ele>
        <time>2019-11-24T11:13:04Z</time>
      </trkpt>
      <trkpt lat="48.54839" lon="1.96823">
        <ele>176.27</ele>
        <time>2019-11-24T11:13:08Z</time>
      </trkpt>
      <trkpt lat="48.54826" lon="1.96845">
        <ele>176.66</ele>
        <time>2019-11-24T11:13:12Z</time>
      </trkpt>
      <trkpt lat="48.54817" lon="1.96873">
        <ele>177.4</ele>
        <time>2019-11-24T11:13:17Z</time>
      </trkpt>
      <trkpt lat="48.54809" lon="1.96903">
        <ele>177.36</ele>
        <time>2019-11-24T11:13:22Z</time>
      </trkpt>
      <trkpt lat="48.54803" lon="1.96934">
        <ele>177.84</ele>
        <time>2019-11-24T11:13:27Z</time>
      </trkpt>
      <trkpt lat="48.54793" lon="1.96958">
        <ele>176.05</ele>
        <time>2019-11-24T11:13:31Z</time>
      </trkpt>
      <trkpt lat="48.54783" lon="1.96987">
        <ele>176.65</ele>
        <time>2019-11-24T11:13:36Z</time>
      </trkpt>
      <trkpt lat="48.54777" lon="1.97018">
        <ele>177.21</ele>
        <time>2019-11-24T11:13:41Z</time>
      </trkpt>
      <trkpt lat="48.54767" lon="1.97044">
        <ele>180.83</ele>
        <time>2019-11-24T11:13:46Z</time>
      </trkpt>
      <trkpt lat="48.54758" lon="1.97068">
        <ele>179.98</ele>
        <time>2019-11-24T11:13:51Z</time>
      </trkpt>
      <trkpt lat="48.54746" lon="1.97094">
        <ele>183.08</ele>
        <time>2019-11-24T11:13:57Z</time>
      </trkpt>
      <trkpt lat="48.5474" lon="1.9712">
        <ele>187.05</ele>
        <time>2019-11-24T11:14:03Z</time>
      </trkpt>
      <trkpt lat="48.54729" lon="1.97145">
        <ele>179.74</ele>
        <time>2019-11-24T11:14:08Z</time>
      </trkpt>
      <trkpt lat="48.5472" lon="1.97171">
        <ele>179.37</ele>
        <time>2019-11-24T11:14:14Z</time>
      </trkpt>
      <trkpt lat="48.5471" lon="1.97195">
        <ele>178.44</ele>
        <time>2019-11-24T11:14:19Z</time>
      </trkpt>
      <trkpt lat="48.54702" lon="1.97219">
        <ele>178.01</ele>
        <time>2019-11-24T11:14:24Z</time>
      </trkpt>
      <trkpt lat="48.54692" lon="1.97241">
        <ele>180.82</ele>
        <time>2019-11-24T11:14:29Z</time>
      </trkpt>
      <trkpt lat="48.54684" lon="1.97269">
        <ele>185.86</ele>
        <time>2019-11-24T11:14:38Z</time>
      </trkpt>
      <trkpt lat="48.54676" lon="1.97298">
        <ele>183.91</ele>
        <time>2019-11-24T11:14:44Z</time>
      </trkpt>
      <trkpt lat="48.54669" lon="1.97325">
        <ele>184.25</ele>
        <time>2019-11-24T11:14:47Z</time>
      </trkpt>
      <trkpt lat="48.54664" lon="1.97353">
        <ele>189.04</ele>
        <time>2019-11-24T11:14:55Z</time>
      </trkpt>
      <trkpt lat="48.54655" lon="1.97383">
        <ele>189.2</ele>
        <time>2019-11-24T11:15:01Z</time>
      </trkpt>
      <trkpt lat="48.54643" lon="1.97406">
        <ele>185.81</ele>
        <time>2019-11-24T11:15:06Z</time>
      </trkpt>
      <trkpt lat="48.5463" lon="1.97433">
        <ele>185.89</ele>
        <time>2019-11-24T11:15:11Z</time>
      </trkpt>
      <trkpt lat="48.5462" lon="1.97462">
        <ele>185.84</ele>
        <time>2019-11-24T11:15:16Z</time>
      </trkpt>
      <trkpt lat="48.54614" lon="1.97492">
        <ele>187.26</ele>
        <time>2019-11-24T11:15:23Z</time>
      </trkpt>
      <trkpt lat="48.54605" lon="1.97522">
        <ele>188.44</ele>
        <time>2019-11-24T11:15:29Z</time>
      </trkpt>
      <trkpt lat="48.546" lon="1.97553">
        <ele>190.55</ele>
        <time>2019-11-24T11:15:34Z</time>
      </trkpt>
      <trkpt lat="48.54588" lon="1.97579">
        <ele>192.81</ele>
        <time>2019-11-24T11:15:39Z</time>
      </trkpt>
      <trkpt lat="48.54578" lon="1.97609">
        <ele>198.04</ele>
        <time>2019-11-24T11:15:44Z</time>
      </trkpt>
      <trkpt lat="48.54571" lon="1.97635">
        <ele>200.1</ele>
        <time>2019-11-24T11:15:48Z</time>
      </trkpt>
      <trkpt lat="48.54561" lon="1.97664">
        <ele>193.79</ele>
        <time>2019-11-24T11:15:52Z</time>
      </trkpt>
      <trkpt lat="48.54549" lon="1.97686">
        <ele>190.05</ele>
        <time>2019-11-24T11:15:55Z</time>
      </trkpt>
      <trkpt lat="48.5454" lon="1.97715">
        <ele>190.62</ele>
        <time>2019-11-24T11:15:59Z</time>
      </trkpt>
      <trkpt lat="48.54527" lon="1.97741">
        <ele>188.45</ele>
        <time>2019-11-24T11:16:04Z</time>
      </trkpt>
      <trkpt lat="48.5452" lon="1.97766">
        <ele>187.06</ele>
        <time>2019-11-24T11:16:08Z</time>
      </trkpt>
      <trkpt lat="48.54509" lon="1.97796">
        <ele>186.63</ele>
        <time>2019-11-24T11:16:12Z</time>
      </trkpt>
      <trkpt lat="48.545" lon="1.97823">
        <ele>188.52</ele>
        <time>2019-11-24T11:16:15Z</time>
      </trkpt>
      <trkpt lat="48.54491" lon="1.97851">
        <ele>189.85</ele>
        <time>2019-11-24T11:16:19Z</time>
      </trkpt>
      <trkpt lat="48.5448" lon="1.9788">
        <ele>194.65</ele>
        <time>2019-11-24T11:16:26Z</time>
      </trkpt>
      <trkpt lat="48.54469" lon="1.97909">
        <ele>193.55</ele>
        <time>2019-11-24T11:16:30Z</time>
      </trkpt>
      <trkpt lat="48.54459" lon="1.97933">
        <ele>191.82</ele>
        <time>2019-11-24T11:16:34Z</time>
      </trkpt>
      <trkpt lat="48.54447" lon="1.97962">
        <ele>188.39</ele>
        <time>2019-11-24T11:16:38Z</time>
      </trkpt>
      <trkpt lat="48.54438" lon="1.97988">
        <ele>185.83</ele>
        <time>2019-11-24T11:16:41Z</time>
      </trkpt>
      <trkpt lat="48.54428" lon="1.98016">
        <ele>184.96</ele>
        <time>2019-11-24T11:16:45Z</time>
      </trkpt>
      <trkpt lat="48.5442" lon="1.98041">
        <ele>184.32</ele>
        <time>2019-11-24T11:16:49Z</time>
      </trkpt>
      <trkpt lat="48.5441" lon="1.98068">
        <ele>179.33</ele>
        <time>2019-11-24T11:16:53Z</time>
      </trkpt>
      <trkpt lat="48.54401" lon="1.98097">
        <ele>175.91</ele>
        <time>2019-11-24T11:16:57Z</time>
      </trkpt>
      <trkpt lat="48.54389" lon="1.98122">
        <ele>171.7</ele>
        <time>2019-11-24T11:17:01Z</time>
      </trkpt>
      <trkpt lat="48.54377" lon="1.9815">
        <ele>169.66</ele>
        <time>2019-11-24T11:17:05Z</time>
      </trkpt>
      <trkpt lat="48.54367" lon="1.98176">
        <ele>167.38</ele>
        <time>2019-11-24T11:17:10Z</time>
      </trkpt>
      <trkpt lat="48.54355" lon="1.98201">
        <ele>165.32</ele>
        <time>2019-11-24T11:17:15Z</time>
      </trkpt>
      <trkpt lat="48.5434" lon="1.98219">
        <ele>164.61</ele>
        <time>2019-11-24T11:17:20Z</time>
      </trkpt>
      <trkpt lat="48.5432" lon="1.98234">
        <ele>165.02</ele>
        <time>2019-11-24T11:17:25Z</time>
      </trkpt>
      <trkpt lat="48.543" lon="1.98242">
        <ele>168.68</ele>
        <time>2019-11-24T11:17:30Z</time>
      </trkpt>
      <trkpt lat="48.54281" lon="1.98253">
        <ele>169.42</ele>
        <time>2019-11-24T11:17:35Z</time>
      </trkpt>
      <trkpt lat="48.54264" lon="1.98261">
        <ele>171.05</ele>
        <time>2019-11-24T11:17:41Z</time>
      </trkpt>
      <trkpt lat="48.54242" lon="1.98272">
        <ele>167.83</ele>
        <time>2019-11-24T11:17:46Z</time>
      </trkpt>
      <trkpt lat="48.54222" lon="1.98283">
        <ele>165.18</ele>
        <time>2019-11-24T11:17:48Z</time>
      </trkpt>
      <trkpt lat="48.54196" lon="1.98293">
        <ele>159.67</ele>
        <time>2019-11-24T11:17:51Z</time>
      </trkpt>
      <trkpt lat="48.54175" lon="1.98304">
        <ele>153.2</ele>
        <time>2019-11-24T11:17:54Z</time>
      </trkpt>
      <trkpt lat="48.54152" lon="1.98318">
        <ele>149.35</ele>
        <time>2019-11-24T11:17:57Z</time>
      </trkpt>
      <trkpt lat="48.5413" lon="1.98335">
        <ele>144.49</ele>
        <time>2019-11-24T11:18:00Z</time>
      </trkpt>
      <trkpt lat="48.54113" lon="1.98347">
        <ele>142.83</ele>
        <time>2019-11-24T11:18:02Z</time>
      </trkpt>
      <trkpt lat="48.54092" lon="1.98358">
        <ele>139.7</ele>
        <time>2019-11-24T11:18:05Z</time>
      </trkpt>
      <trkpt lat="48.54074" lon="1.9837">
        <ele>137.65</ele>
        <time>2019-11-24T11:18:09Z</time>
      </trkpt>
      <trkpt lat="48.54053" lon="1.98384">
        <ele>135.87</ele>
        <time>2019-11-24T11:18:16Z</time>
      </trkpt>
      <trkpt lat="48.54031" lon="1.98392">
        <ele>134.69</ele>
        <time>2019-11-24T11:18:19Z</time>
      </trkpt>
      <trkpt lat="48.54015" lon="1.98405">
        <ele>136.21</ele>
        <time>2019-11-24T11:18:25Z</time>
      </trkpt>
      <trkpt lat="48.54001" lon="1.98422">
        <ele>138.72</ele>
        <time>2019-11-24T11:18:31Z</time>
      </trkpt>
      <trkpt lat="48.5398" lon="1.98432">
        <ele>140.65</ele>
        <time>2019-11-24T11:18:34Z</time>
      </trkpt>
      <trkpt lat="48.5396" lon="1.98442">
        <ele>142.77</ele>
        <time>2019-11-24T11:18:38Z</time>
      </trkpt>
      <trkpt lat="48.53942" lon="1.9846">
        <ele>140.63</ele>
        <time>2019-11-24T11:18:45Z</time>
      </trkpt>
      <trkpt lat="48.53946" lon="1.98488">
        <ele>144.38</ele>
        <time>2019-11-24T11:18:53Z</time>
      </trkpt>
      <trkpt lat="48.53958" lon="1.9851">
        <ele>144.94</ele>
        <time>2019-11-24T11:18:56Z</time>
      </trkpt>
      <trkpt lat="48.53973" lon="1.98533">
        <ele>143.37</ele>
        <time>2019-11-24T11:19:00Z</time>
      </trkpt>
      <trkpt lat="48.53987" lon="1.98555">
        <ele>142.13</ele>
        <time>2019-11-24T11:19:06Z</time>
      </trkpt>
      <trkpt lat="48.54001" lon="1.98575">
        <ele>143.48</ele>
        <time>2019-11-24T11:19:10Z</time>
      </trkpt>
      <trkpt lat="48.54016" lon="1.98594">
        <ele>145.09</ele>
        <time>2019-11-24T11:19:13Z</time>
      </trkpt>
      <trkpt lat="48.54032" lon="1.98616">
        <ele>144.84</ele>
        <time>2019-11-24T11:19:17Z</time>
      </trkpt>
      <trkpt lat="48.54046" lon="1.98633">
        <ele>143.24</ele>
        <time>2019-11-24T11:19:20Z</time>
      </trkpt>
      <trkpt lat="48.5406" lon="1.98658">
        <ele>142.22</ele>
        <time>2019-11-24T11:19:22Z</time>
      </trkpt>
      <trkpt lat="48.54077" lon="1.98677">
        <ele>143.41</ele>
        <time>2019-11-24T11:19:24Z</time>
      </trkpt>
      <trkpt lat="48.54094" lon="1.98694">
        <ele>142.16</ele>
        <time>2019-11-24T11:19:28Z</time>
      </trkpt>
      <trkpt lat="48.54113" lon="1.98697">
        <ele>143.4</ele>
        <time>2019-11-24T11:19:37Z</time>
      </trkpt>
      <trkpt lat="48.54132" lon="1.987">
        <ele>148.01</ele>
        <time>2019-11-24T11:19:49Z</time>
      </trkpt>
      <trkpt lat="48.5415" lon="1.98694">
        <ele>152.09</ele>
        <time>2019-11-24T11:20:06Z</time>
      </trkpt>
      <trkpt lat="48.54167" lon="1.98683">
        <ele>153.9</ele>
        <time>2019-11-24T11:20:23Z</time>
      </trkpt>
      <trkpt lat="48.54184" lon="1.98671">
        <ele>161.94</ele>
        <time>2019-11-24T11:20:41Z</time>
      </trkpt>
      <trkpt lat="48.54201" lon="1.98661">
        <ele>165.76</ele>
        <time>2019-11-24T11:21:00Z</time>
      </trkpt>
      <trkpt lat="48.54219" lon="1.98656">
        <ele>174.69</ele>
        <time>2019-11-24T11:21:17Z</time>
      </trkpt>
      <trkpt lat="48.54237" lon="1.98659">
        <ele>176.66</ele>
        <time>2019-11-24T11:21:28Z</time>
      </trkpt>
      <trkpt lat="48.54254" lon="1.98673">
        <ele>178.51</ele>
        <time>2019-11-24T11:21:40Z</time>
      </trkpt>
      <trkpt lat="48.5427" lon="1.98689">
        <ele>170.53</ele>
        <time>2019-11-24T11:21:55Z</time>
      </trkpt>
      <trkpt lat="48.54287" lon="1.987">
        <ele>173.39</ele>
        <time>2019-11-24T11:22:09Z</time>
      </trkpt>
      <trkpt lat="48.54303" lon="1.98714">
        <ele>179.19</ele>
        <time>2019-11-24T11:22:24Z</time>
      </trkpt>
      <trkpt lat="48.54308" lon="1.98743">
        <ele>173.48</ele>
        <time>2019-11-24T11:22:37Z</time>
      </trkpt>
      <trkpt lat="48.54303" lon="1.98769">
        <ele>170.72</ele>
        <time>2019-11-24T11:22:47Z</time>
      </trkpt>
      <trkpt lat="48.54291" lon="1.98796">
        <ele>170.88</ele>
        <time>2019-11-24T11:22:56Z</time>
      </trkpt>
      <trkpt lat="48.54281" lon="1.98821">
        <ele>168.81</ele>
        <time>2019-11-24T11:23:00Z</time>
      </trkpt>
      <trkpt lat="48.54271" lon="1.98845">
        <ele>168.18</ele>
        <time>2019-11-24T11:23:04Z</time>
      </trkpt>
      <trkpt lat="48.54257" lon="1.98866">
        <ele>170.17</ele>
        <time>2019-11-24T11:23:10Z</time>
      </trkpt>
      <trkpt lat="48.54239" lon="1.98877">
        <ele>161.8</ele>
        <time>2019-11-24T11:23:16Z</time>
      </trkpt>
      <trkpt lat="48.54227" lon="1.98898">
        <ele>162.59</ele>
        <time>2019-11-24T11:23:23Z</time>
      </trkpt>
      <trkpt lat="48.54211" lon="1.98917">
        <ele>159.33</ele>
        <time>2019-11-24T11:23:29Z</time>
      </trkpt>
      <trkpt lat="48.5419" lon="1.98924">
        <ele>155.5</ele>
        <time>2019-11-24T11:23:35Z</time>
      </trkpt>
      <trkpt lat="48.54171" lon="1.98925">
        <ele>150.94</ele>
        <time>2019-11-24T11:23:39Z</time>
      </trkpt>
      <trkpt lat="48.54149" lon="1.98928">
        <ele>149.74</ele>
        <time>2019-11-24T11:23:40Z</time>
      </trkpt>
      <trkpt lat="48.54125" lon="1.98932">
        <ele>150.75</ele>
        <time>2019-11-24T11:23:44Z</time>
      </trkpt>
      <trkpt lat="48.54106" lon="1.98945">
        <ele>151.88</ele>
        <time>2019-11-24T11:23:48Z</time>
      </trkpt>
      <trkpt lat="48.54084" lon="1.98943">
        <ele>150.67</ele>
        <time>2019-11-24T11:23:52Z</time>
      </trkpt>
      <trkpt lat="48.54073" lon="1.98968">
        <ele>153.39</ele>
        <time>2019-11-24T11:23:56Z</time>
      </trkpt>
      <trkpt lat="48.54068" lon="1.98997">
        <ele>153.39</ele>
        <time>2019-11-24T11:24:00Z</time>
      </trkpt>
      <trkpt lat="48.54052" lon="1.99012">
        <ele>143.79</ele>
        <time>2019-11-24T11:24:09Z</time>
      </trkpt>
      <trkpt lat="48.54027" lon="1.98995">
        <ele>144.53</ele>
        <time>2019-11-24T11:24:14Z</time>
      </trkpt>
      <trkpt lat="48.54012" lon="1.98979">
        <ele>146.84</ele>
        <time>2019-11-24T11:24:17Z</time>
      </trkpt>
      <trkpt lat="48.53995" lon="1.9896">
        <ele>146.17</ele>
        <time>2019-11-24T11:24:20Z</time>
      </trkpt>
      <trkpt lat="48.53978" lon="1.98941">
        <ele>145.17</ele>
        <time>2019-11-24T11:24:23Z</time>
      </trkpt>
      <trkpt lat="48.5396" lon="1.98936">
        <ele>143.75</ele>
        <time>2019-11-24T11:24:29Z</time>
      </trkpt>
      <trkpt lat="48.53938" lon="1.98947">
        <ele>139.56</ele>
        <time>2019-11-24T11:24:33Z</time>
      </trkpt>
      <trkpt lat="48.53915" lon="1.98949">
        <ele>135.35</ele>
        <time>2019-11-24T11:24:37Z</time>
      </trkpt>
      <trkpt lat="48.53898" lon="1.98958">
        <ele>134.26</ele>
        <time>2019-11-24T11:24:40Z</time>
      </trkpt>
      <trkpt lat="48.53874" lon="1.9896">
        <ele>132.74</ele>
        <time>2019-11-24T11:24:44Z</time>
      </trkpt>
      <trkpt lat="48.53855" lon="1.98946">
        <ele>130.37</ele>
        <time>2019-11-24T11:24:48Z</time>
      </trkpt>
      <trkpt lat="48.53833" lon="1.98951">
        <ele>130.84</ele>
        <time>2019-11-24T11:24:51Z</time>
      </trkpt>
      <trkpt lat="48.53814" lon="1.98957">
        <ele>128.86</ele>
        <time>2019-11-24T11:24:54Z</time>
      </trkpt>
      <trkpt lat="48.53795" lon="1.98958">
        <ele>129.64</ele>
        <time>2019-11-24T11:24:57Z</time>
      </trkpt>
      <trkpt lat="48.53772" lon="1.98959">
        <ele>126.07</ele>
        <time>2019-11-24T11:25:01Z</time>
      </trkpt>
      <trkpt lat="48.53752" lon="1.98966">
        <ele>121.34</ele>
        <time>2019-11-24T11:25:06Z</time>
      </trkpt>
      <trkpt lat="48.53736" lon="1.98985">
        <ele>126.26</ele>
        <time>2019-11-24T11:25:13Z</time>
      </trkpt>
      <trkpt lat="48.53722" lon="1.99009">
        <ele>128.82</ele>
        <time>2019-11-24T11:25:19Z</time>
      </trkpt>
      <trkpt lat="48.53713" lon="1.99033">
        <ele>127.43</ele>
        <time>2019-11-24T11:25:25Z</time>
      </trkpt>
      <trkpt lat="48.53693" lon="1.99027">
        <ele>124.56</ele>
        <time>2019-11-24T11:25:31Z</time>
      </trkpt>
      <trkpt lat="48.53677" lon="1.99007">
        <ele>122.8</ele>
        <time>2019-11-24T11:25:39Z</time>
      </trkpt>
      <trkpt lat="48.5366" lon="1.98996">
        <ele>122.35</ele>
        <time>2019-11-24T11:25:44Z</time>
      </trkpt>
      <trkpt lat="48.53639" lon="1.98994">
        <ele>121.32</ele>
        <time>2019-11-24T11:25:48Z</time>
      </trkpt>
      <trkpt lat="48.53619" lon="1.98994">
        <ele>120.58</ele>
        <time>2019-11-24T11:25:51Z</time>
      </trkpt>
      <trkpt lat="48.53596" lon="1.98998">
        <ele>123.31</ele>
        <time>2019-11-24T11:25:56Z</time>
      </trkpt>
      <trkpt lat="48.53577" lon="1.99004">
        <ele>127.17</ele>
        <time>2019-11-24T11:26:02Z</time>
      </trkpt>
      <trkpt lat="48.53558" lon="1.99021">
        <ele>126.66</ele>
        <time>2019-11-24T11:26:07Z</time>
      </trkpt>
      <trkpt lat="48.53542" lon="1.9904">
        <ele>118.24</ele>
        <time>2019-11-24T11:26:14Z</time>
      </trkpt>
      <trkpt lat="48.53522" lon="1.99044">
        <ele>112.01</ele>
        <time>2019-11-24T11:26:18Z</time>
      </trkpt>
      <trkpt lat="48.53506" lon="1.9902">
        <ele>114.62</ele>
        <time>2019-11-24T11:26:23Z</time>
      </trkpt>
      <trkpt lat="48.53497" lon="1.98995">
        <ele>114.91</ele>
        <time>2019-11-24T11:26:27Z</time>
      </trkpt>
      <trkpt lat="48.53488" lon="1.98967">
        <ele>118.97</ele>
        <time>2019-11-24T11:26:32Z</time>
      </trkpt>
      <trkpt lat="48.53481" lon="1.98938">
        <ele>119.6</ele>
        <time>2019-11-24T11:26:37Z</time>
      </trkpt>
      <trkpt lat="48.5347" lon="1.98916">
        <ele>121.19</ele>
        <time>2019-11-24T11:26:42Z</time>
      </trkpt>
      <trkpt lat="48.53457" lon="1.98895">
        <ele>120.89</ele>
        <time>2019-11-24T11:26:47Z</time>
      </trkpt>
      <trkpt lat="48.53445" lon="1.98869">
        <ele>120.15</ele>
        <time>2019-11-24T11:26:52Z</time>
      </trkpt>
      <trkpt lat="48.53429" lon="1.98844">
        <ele>120.79</ele>
        <time>2019-11-24T11:26:56Z</time>
      </trkpt>
      <trkpt lat="48.53415" lon="1.98821">
        <ele>117.93</ele>
        <time>2019-11-24T11:27:00Z</time>
      </trkpt>
      <trkpt lat="48.53406" lon="1.98792">
        <ele>114.3</ele>
        <time>2019-11-24T11:27:05Z</time>
      </trkpt>
      <trkpt lat="48.53401" lon="1.9876">
        <ele>118.14</ele>
        <time>2019-11-24T11:27:11Z</time>
      </trkpt>
      <trkpt lat="48.53399" lon="1.9873">
        <ele>121.29</ele>
        <time>2019-11-24T11:27:17Z</time>
      </trkpt>
      <trkpt lat="48.53397" lon="1.98702">
        <ele>123.98</ele>
        <time>2019-11-24T11:27:22Z</time>
      </trkpt>
      <trkpt lat="48.53396" lon="1.98674">
        <ele>124.01</ele>
        <time>2019-11-24T11:27:27Z</time>
      </trkpt>
      <trkpt lat="48.53389" lon="1.98646">
        <ele>124.6</ele>
        <time>2019-11-24T11:27:34Z</time>
      </trkpt>
      <trkpt lat="48.53385" lon="1.98618">
        <ele>128.24</ele>
        <time>2019-11-24T11:27:40Z</time>
      </trkpt>
      <trkpt lat="48.53383" lon="1.98591">
        <ele>130.81</ele>
        <time>2019-11-24T11:27:46Z</time>
      </trkpt>
      <trkpt lat="48.53378" lon="1.98562">
        <ele>130.7</ele>
        <time>2019-11-24T11:27:53Z</time>
      </trkpt>
      <trkpt lat="48.53374" lon="1.98532">
        <ele>132.68</ele>
        <time>2019-11-24T11:28:00Z</time>
      </trkpt>
      <trkpt lat="48.53374" lon="1.98503">
        <ele>126.65</ele>
        <time>2019-11-24T11:28:06Z</time>
      </trkpt>
      <trkpt lat="48.5337" lon="1.98474">
        <ele>127.37</ele>
        <time>2019-11-24T11:28:14Z</time>
      </trkpt>
      <trkpt lat="48.53366" lon="1.98445">
        <ele>126.74</ele>
        <time>2019-11-24T11:28:22Z</time>
      </trkpt>
      <trkpt lat="48.53366" lon="1.98415">
        <ele>131.86</ele>
        <time>2019-11-24T11:28:30Z</time>
      </trkpt>
      <trkpt lat="48.53381" lon="1.98397">
        <ele>134.86</ele>
        <time>2019-11-24T11:28:38Z</time>
      </trkpt>
      <trkpt lat="48.53398" lon="1.98384">
        <ele>139.28</ele>
        <time>2019-11-24T11:28:46Z</time>
      </trkpt>
      <trkpt lat="48.53413" lon="1.98369">
        <ele>134.34</ele>
        <time>2019-11-24T11:28:55Z</time>
      </trkpt>
      <trkpt lat="48.5343" lon="1.98355">
        <ele>136.13</ele>
        <time>2019-11-24T11:29:04Z</time>
      </trkpt>
      <trkpt lat="48.53447" lon="1.9834">
        <ele>136.72</ele>
        <time>2019-11-24T11:29:14Z</time>
      </trkpt>
      <trkpt lat="48.53463" lon="1.98322">
        <ele>136.3</ele>
        <time>2019-11-24T11:29:23Z</time>
      </trkpt>
      <trkpt lat="48.53479" lon="1.98307">
        <ele>137.32</ele>
        <time>2019-11-24T11:29:32Z</time>
      </trkpt>
      <trkpt lat="48.53495" lon="1.98294">
        <ele>137.96</ele>
        <time>2019-11-24T11:29:40Z</time>
      </trkpt>
      <trkpt lat="48.53511" lon="1.98278">
        <ele>138.12</ele>
        <time>2019-11-24T11:29:48Z</time>
      </trkpt>
      <trkpt lat="48.53528" lon="1.98262">
        <ele>140.48</ele>
        <time>2019-11-24T11:29:56Z</time>
      </trkpt>
      <trkpt lat="48.53543" lon="1.98244">
        <ele>143.32</ele>
        <time>2019-11-24T11:30:05Z</time>
      </trkpt>
      <trkpt lat="48.53559" lon="1.98231">
        <ele>143.07</ele>
        <time>2019-11-24T11:30:13Z</time>
      </trkpt>
      <trkpt lat="48.53575" lon="1.98218">
        <ele>143.42</ele>
        <time>2019-11-24T11:30:21Z</time>
      </trkpt>
      <trkpt lat="48.53592" lon="1.98202">
        <ele>143.29</ele>
        <time>2019-11-24T11:30:29Z</time>
      </trkpt>
      <trkpt lat="48.53608" lon="1.98192">
        <ele>143.16</ele>
        <time>2019-11-24T11:30:38Z</time>
      </trkpt>
      <trkpt lat="48.53624" lon="1.98175">
        <ele>143.88</ele>
        <time>2019-11-24T11:30:48Z</time>
      </trkpt>
      <trkpt lat="48.53641" lon="1.98166">
        <ele>145.37</ele>
        <time>2019-11-24T11:30:59Z</time>
      </trkpt>
      <trkpt lat="48.53655" lon="1.98147">
        <ele>145.69</ele>
        <time>2019-11-24T11:31:12Z</time>
      </trkpt>
      <trkpt lat="48.53671" lon="1.98132">
        <ele>153.88</ele>
        <time>2019-11-24T11:31:25Z</time>
      </trkpt>
      <trkpt lat="48.53687" lon="1.98118">
        <ele>151.21</ele>
        <time>2019-11-24T11:31:38Z</time>
      </trkpt>
      <trkpt lat="48.53703" lon="1.98105">
        <ele>147.96</ele>
        <time>2019-11-24T11:31:51Z</time>
      </trkpt>
      <trkpt lat="48.53718" lon="1.9809">
        <ele>148.79</ele>
        <time>2019-11-24T11:32:05Z</time>
      </trkpt>
      <trkpt lat="48.53733" lon="1.98074">
        <ele>150.69</ele>
        <time>2019-11-24T11:32:17Z</time>
      </trkpt>
      <trkpt lat="48.53748" lon="1.98057">
        <ele>150.47</ele>
        <time>2019-11-24T11:32:28Z</time>
      </trkpt>
      <trkpt lat="48.53743" lon="1.9803">
        <ele>152.9</ele>
        <time>2019-11-24T11:32:48Z</time>
      </trkpt>
      <trkpt lat="48.53734" lon="1.98005">
        <ele>159.7</ele>
        <time>2019-11-24T11:33:00Z</time>
      </trkpt>
      <trkpt lat="48.53715" lon="1.98007">
        <ele>159.59</ele>
        <time>2019-11-24T11:33:11Z</time>
      </trkpt>
      <trkpt lat="48.53695" lon="1.98016">
        <ele>154.33</ele>
        <time>2019-11-24T11:33:19Z</time>
      </trkpt>
      <trkpt lat="48.53674" lon="1.98015">
        <ele>145.29</ele>
        <time>2019-11-24T11:33:25Z</time>
      </trkpt>
      <trkpt lat="48.53657" lon="1.97994">
        <ele>140.6</ele>
        <time>2019-11-24T11:33:30Z</time>
      </trkpt>
      <trkpt lat="48.53653" lon="1.97966">
        <ele>136.98</ele>
        <time>2019-11-24T11:33:37Z</time>
      </trkpt>
      <trkpt lat="48.53657" lon="1.97936">
        <ele>130.16</ele>
        <time>2019-11-24T11:33:43Z</time>
      </trkpt>
      <trkpt lat="48.53665" lon="1.97905">
        <ele>127.36</ele>
        <time>2019-11-24T11:33:46Z</time>
      </trkpt>
      <trkpt lat="48.53656" lon="1.97874">
        <ele>130.76</ele>
        <time>2019-11-24T11:33:51Z</time>
      </trkpt>
      <trkpt lat="48.53643" lon="1.97847">
        <ele>128.74</ele>
        <time>2019-11-24T11:33:57Z</time>
      </trkpt>
      <trkpt lat="48.53623" lon="1.97831">
        <ele>129.3</ele>
        <time>2019-11-24T11:33:58Z</time>
      </trkpt>
      <trkpt lat="48.53604" lon="1.9782">
        <ele>128.31</ele>
        <time>2019-11-24T11:34:01Z</time>
      </trkpt>
      <trkpt lat="48.5358" lon="1.97815">
        <ele>126.3</ele>
        <time>2019-11-24T11:34:05Z</time>
      </trkpt>
      <trkpt lat="48.53565" lon="1.97839">
        <ele>130</ele>
        <time>2019-11-24T11:34:13Z</time>
      </trkpt>
      <trkpt lat="48.53535" lon="1.97859">
        <ele>126.14</ele>
        <time>2019-11-24T11:34:17Z</time>
      </trkpt>
      <trkpt lat="48.53513" lon="1.97875">
        <ele>127.66</ele>
        <time>2019-11-24T11:34:22Z</time>
      </trkpt>
      <trkpt lat="48.53493" lon="1.97886">
        <ele>122.18</ele>
        <time>2019-11-24T11:34:29Z</time>
      </trkpt>
      <trkpt lat="48.53473" lon="1.979">
        <ele>118.42</ele>
        <time>2019-11-24T11:34:34Z</time>
      </trkpt>
      <trkpt lat="48.53452" lon="1.97915">
        <ele>120.11</ele>
        <time>2019-11-24T11:34:38Z</time>
      </trkpt>
      <trkpt lat="48.53435" lon="1.97929">
        <ele>121.28</ele>
        <time>2019-11-24T11:34:41Z</time>
      </trkpt>
      <trkpt lat="48.53419" lon="1.97945">
        <ele>123.64</ele>
        <time>2019-11-24T11:34:44Z</time>
      </trkpt>
      <trkpt lat="48.53406" lon="1.97962">
        <ele>124.78</ele>
        <time>2019-11-24T11:34:47Z</time>
      </trkpt>
      <trkpt lat="48.53389" lon="1.97981">
        <ele>123.55</ele>
        <time>2019-11-24T11:34:51Z</time>
      </trkpt>
      <trkpt lat="48.53377" lon="1.98006">
        <ele>134.05</ele>
        <time>2019-11-24T11:34:59Z</time>
      </trkpt>
      <trkpt lat="48.53357" lon="1.98004">
        <ele>128.99</ele>
        <time>2019-11-24T11:35:05Z</time>
      </trkpt>
      <trkpt lat="48.5334" lon="1.97993">
        <ele>128.8</ele>
        <time>2019-11-24T11:35:10Z</time>
      </trkpt>
      <trkpt lat="48.53321" lon="1.97983">
        <ele>129.56</ele>
        <time>2019-11-24T11:35:15Z</time>
      </trkpt>
      <trkpt lat="48.53299" lon="1.97981">
        <ele>128.64</ele>
        <time>2019-11-24T11:35:19Z</time>
      </trkpt>
      <trkpt lat="48.53277" lon="1.97966">
        <ele>127.87</ele>
        <time>2019-11-24T11:35:23Z</time>
      </trkpt>
      <trkpt lat="48.53259" lon="1.9796">
        <ele>123.64</ele>
        <time>2019-11-24T11:35:25Z</time>
      </trkpt>
      <trkpt lat="48.53244" lon="1.97941">
        <ele>125.7</ele>
        <time>2019-11-24T11:35:30Z</time>
      </trkpt>
      <trkpt lat="48.53229" lon="1.97925">
        <ele>125.24</ele>
        <time>2019-11-24T11:35:35Z</time>
      </trkpt>
      <trkpt lat="48.53211" lon="1.97913">
        <ele>125.56</ele>
        <time>2019-11-24T11:35:38Z</time>
      </trkpt>
      <trkpt lat="48.53191" lon="1.97904">
        <ele>127.16</ele>
        <time>2019-11-24T11:35:40Z</time>
      </trkpt>
      <trkpt lat="48.53174" lon="1.97887">
        <ele>125.01</ele>
        <time>2019-11-24T11:35:45Z</time>
      </trkpt>
      <trkpt lat="48.53155" lon="1.97871">
        <ele>121.26</ele>
        <time>2019-11-24T11:35:50Z</time>
      </trkpt>
      <trkpt lat="48.53138" lon="1.9786">
        <ele>121.04</ele>
        <time>2019-11-24T11:35:52Z</time>
      </trkpt>
      <trkpt lat="48.53119" lon="1.97849">
        <ele>121.89</ele>
        <time>2019-11-24T11:35:57Z</time>
      </trkpt>
      <trkpt lat="48.53095" lon="1.97845">
        <ele>125.1</ele>
        <time>2019-11-24T11:36:02Z</time>
      </trkpt>
      <trkpt lat="48.53075" lon="1.97846">
        <ele>123.83</ele>
        <time>2019-11-24T11:36:07Z</time>
      </trkpt>
      <trkpt lat="48.53056" lon="1.97851">
        <ele>123.01</ele>
        <time>2019-11-24T11:36:13Z</time>
      </trkpt>
      <trkpt lat="48.53039" lon="1.97864">
        <ele>123.27</ele>
        <time>2019-11-24T11:36:15Z</time>
      </trkpt>
      <trkpt lat="48.53028" lon="1.97886">
        <ele>126.11</ele>
        <time>2019-11-24T11:36:22Z</time>
      </trkpt>
      <trkpt lat="48.5303" lon="1.97914">
        <ele>129.36</ele>
        <time>2019-11-24T11:36:30Z</time>
      </trkpt>
      <trkpt lat="48.53036" lon="1.97943">
        <ele>128.78</ele>
        <time>2019-11-24T11:36:38Z</time>
      </trkpt>
      <trkpt lat="48.53042" lon="1.9797">
        <ele>130.35</ele>
        <time>2019-11-24T11:36:43Z</time>
      </trkpt>
      <trkpt lat="48.53034" lon="1.97999">
        <ele>119.66</ele>
        <time>2019-11-24T11:36:48Z</time>
      </trkpt>
      <trkpt lat="48.53013" lon="1.98009">
        <ele>117.2</ele>
        <time>2019-11-24T11:36:53Z</time>
      </trkpt>
      <trkpt lat="48.53001" lon="1.98033">
        <ele>113.89</ele>
        <time>2019-11-24T11:36:57Z</time>
      </trkpt>
      <trkpt lat="48.52997" lon="1.98063">
        <ele>112.93</ele>
        <time>2019-11-24T11:37:00Z</time>
      </trkpt>
      <trkpt lat="48.5299" lon="1.9809">
        <ele>108.56</ele>
        <time>2019-11-24T11:37:03Z</time>
      </trkpt>
      <trkpt lat="48.52975" lon="1.98112">
        <ele>108.03</ele>
        <time>2019-11-24T11:37:06Z</time>
      </trkpt>
      <trkpt lat="48.52985" lon="1.98136">
        <ele>106.96</ele>
        <time>2019-11-24T11:37:18Z</time>
      </trkpt>
      <trkpt lat="48.52996" lon="1.98159">
        <ele>110.85</ele>
        <time>2019-11-24T11:37:26Z</time>
      </trkpt>
      <trkpt lat="48.53005" lon="1.98183">
        <ele>116</ele>
        <time>2019-11-24T11:37:35Z</time>
      </trkpt>
      <trkpt lat="48.53011" lon="1.9821">
        <ele>117.46</ele>
        <time>2019-11-24T11:37:43Z</time>
      </trkpt>
      <trkpt lat="48.53019" lon="1.98235">
        <ele>120.51</ele>
        <time>2019-11-24T11:37:52Z</time>
      </trkpt>
      <trkpt lat="48.53024" lon="1.98266">
        <ele>123.74</ele>
        <time>2019-11-24T11:37:58Z</time>
      </trkpt>
      <trkpt lat="48.53032" lon="1.98291">
        <ele>126.29</ele>
        <time>2019-11-24T11:38:02Z</time>
      </trkpt>
      <trkpt lat="48.53043" lon="1.98319">
        <ele>127.12</ele>
        <time>2019-11-24T11:38:06Z</time>
      </trkpt>
      <trkpt lat="48.53052" lon="1.98343">
        <ele>127.04</ele>
        <time>2019-11-24T11:38:09Z</time>
      </trkpt>
      <trkpt lat="48.53063" lon="1.98366">
        <ele>127.36</ele>
        <time>2019-11-24T11:38:12Z</time>
      </trkpt>
      <trkpt lat="48.53073" lon="1.98405">
        <ele>128.24</ele>
        <time>2019-11-24T11:38:16Z</time>
      </trkpt>
      <trkpt lat="48.53074" lon="1.98434">
        <ele>126.68</ele>
        <time>2019-11-24T11:38:19Z</time>
      </trkpt>
      <trkpt lat="48.53081" lon="1.98464">
        <ele>122.54</ele>
        <time>2019-11-24T11:38:26Z</time>
      </trkpt>
      <trkpt lat="48.53086" lon="1.98497">
        <ele>121.75</ele>
        <time>2019-11-24T11:38:31Z</time>
      </trkpt>
      <trkpt lat="48.53091" lon="1.98525">
        <ele>120.07</ele>
        <time>2019-11-24T11:38:34Z</time>
      </trkpt>
      <trkpt lat="48.53096" lon="1.98552">
        <ele>119.43</ele>
        <time>2019-11-24T11:38:40Z</time>
      </trkpt>
      <trkpt lat="48.53104" lon="1.98583">
        <ele>120.17</ele>
        <time>2019-11-24T11:38:46Z</time>
      </trkpt>
      <trkpt lat="48.5311" lon="1.9861">
        <ele>120.28</ele>
        <time>2019-11-24T11:38:50Z</time>
      </trkpt>
      <trkpt lat="48.53116" lon="1.98642">
        <ele>117.19</ele>
        <time>2019-11-24T11:38:55Z</time>
      </trkpt>
      <trkpt lat="48.5313" lon="1.98662">
        <ele>114.11</ele>
        <time>2019-11-24T11:39:00Z</time>
      </trkpt>
      <trkpt lat="48.53151" lon="1.98658">
        <ele>113.34</ele>
        <time>2019-11-24T11:39:06Z</time>
      </trkpt>
      <trkpt lat="48.53162" lon="1.98635">
        <ele>112.23</ele>
        <time>2019-11-24T11:39:14Z</time>
      </trkpt>
      <trkpt lat="48.53181" lon="1.98632">
        <ele>113.1</ele>
        <time>2019-11-24T11:39:22Z</time>
      </trkpt>
      <trkpt lat="48.53198" lon="1.98627">
        <ele>114.69</ele>
        <time>2019-11-24T11:39:31Z</time>
      </trkpt>
      <trkpt lat="48.53217" lon="1.9862">
        <ele>114.84</ele>
        <time>2019-11-24T11:39:41Z</time>
      </trkpt>
      <trkpt lat="48.53235" lon="1.98623">
        <ele>115.9</ele>
        <time>2019-11-24T11:39:49Z</time>
      </trkpt>
      <trkpt lat="48.53255" lon="1.98626">
        <ele>119.65</ele>
        <time>2019-11-24T11:39:57Z</time>
      </trkpt>
      <trkpt lat="48.5327" lon="1.98646">
        <ele>121.71</ele>
        <time>2019-11-24T11:40:03Z</time>
      </trkpt>
      <trkpt lat="48.53284" lon="1.98669">
        <ele>119.93</ele>
        <time>2019-11-24T11:40:09Z</time>
      </trkpt>
      <trkpt lat="48.53299" lon="1.98687">
        <ele>118.27</ele>
        <time>2019-11-24T11:40:16Z</time>
      </trkpt>
      <trkpt lat="48.53314" lon="1.98708">
        <ele>116.72</ele>
        <time>2019-11-24T11:40:21Z</time>
      </trkpt>
      <trkpt lat="48.53327" lon="1.98734">
        <ele>116.71</ele>
        <time>2019-11-24T11:40:26Z</time>
      </trkpt>
      <trkpt lat="48.53338" lon="1.98756">
        <ele>122.58</ele>
        <time>2019-11-24T11:40:31Z</time>
      </trkpt>
      <trkpt lat="48.53352" lon="1.98774">
        <ele>125.11</ele>
        <time>2019-11-24T11:40:36Z</time>
      </trkpt>
      <trkpt lat="48.53365" lon="1.98797">
        <ele>122.15</ele>
        <time>2019-11-24T11:40:41Z</time>
      </trkpt>
      <trkpt lat="48.53377" lon="1.98823">
        <ele>115.74</ele>
        <time>2019-11-24T11:40:46Z</time>
      </trkpt>
      <trkpt lat="48.53389" lon="1.98847">
        <ele>111.29</ele>
        <time>2019-11-24T11:40:54Z</time>
      </trkpt>
      <trkpt lat="48.53404" lon="1.98871">
        <ele>109.22</ele>
        <time>2019-11-24T11:40:59Z</time>
      </trkpt>
      <trkpt lat="48.53418" lon="1.98893">
        <ele>108.14</ele>
        <time>2019-11-24T11:41:04Z</time>
      </trkpt>
      <trkpt lat="48.53429" lon="1.98919">
        <ele>108.93</ele>
        <time>2019-11-24T11:41:10Z</time>
      </trkpt>
      <trkpt lat="48.53436" lon="1.98947">
        <ele>110.49</ele>
        <time>2019-11-24T11:41:14Z</time>
      </trkpt>
      <trkpt lat="48.5344" lon="1.98978">
        <ele>116.35</ele>
        <time>2019-11-24T11:41:22Z</time>
      </trkpt>
      <trkpt lat="48.53443" lon="1.99012">
        <ele>119.03</ele>
        <time>2019-11-24T11:41:27Z</time>
      </trkpt>
      <trkpt lat="48.53446" lon="1.99043">
        <ele>111.61</ele>
        <time>2019-11-24T11:41:31Z</time>
      </trkpt>
      <trkpt lat="48.53448" lon="1.99071">
        <ele>110.86</ele>
        <time>2019-11-24T11:41:35Z</time>
      </trkpt>
      <trkpt lat="48.53449" lon="1.99098">
        <ele>111.69</ele>
        <time>2019-11-24T11:41:39Z</time>
      </trkpt>
      <trkpt lat="48.53453" lon="1.99131">
        <ele>112.51</ele>
        <time>2019-11-24T11:41:44Z</time>
      </trkpt>
      <trkpt lat="48.53456" lon="1.99159">
        <ele>111.44</ele>
        <time>2019-11-24T11:41:48Z</time>
      </trkpt>
      <trkpt lat="48.53457" lon="1.99191">
        <ele>110.38</ele>
        <time>2019-11-24T11:41:53Z</time>
      </trkpt>
      <trkpt lat="48.53458" lon="1.99223">
        <ele>112.31</ele>
        <time>2019-11-24T11:41:59Z</time>
      </trkpt>
      <trkpt lat="48.53459" lon="1.99251">
        <ele>114.5</ele>
        <time>2019-11-24T11:42:04Z</time>
      </trkpt>
      <trkpt lat="48.5346" lon="1.99279">
        <ele>117</ele>
        <time>2019-11-24T11:42:09Z</time>
      </trkpt>
      <trkpt lat="48.53462" lon="1.9931">
        <ele>119.44</ele>
        <time>2019-11-24T11:42:15Z</time>
      </trkpt>
      <trkpt lat="48.53465" lon="1.99341">
        <ele>121.77</ele>
        <time>2019-11-24T11:42:21Z</time>
      </trkpt>
      <trkpt lat="48.53467" lon="1.99374">
        <ele>123.49</ele>
        <time>2019-11-24T11:42:27Z</time>
      </trkpt>
      <trkpt lat="48.53472" lon="1.99401">
        <ele>125.54</ele>
        <time>2019-11-24T11:42:32Z</time>
      </trkpt>
      <trkpt lat="48.53476" lon="1.99432">
        <ele>126.64</ele>
        <time>2019-11-24T11:42:37Z</time>
      </trkpt>
      <trkpt lat="48.53459" lon="1.99445">
        <ele>122.86</ele>
        <time>2019-11-24T11:42:46Z</time>
      </trkpt>
      <trkpt lat="48.53441" lon="1.9944">
        <ele>118.74</ele>
        <time>2019-11-24T11:42:52Z</time>
      </trkpt>
      <trkpt lat="48.5342" lon="1.9943">
        <ele>116.73</ele>
        <time>2019-11-24T11:43:05Z</time>
      </trkpt>
    </trkseg>
  </trk>
</gpx>